GEFSSE_500_meanwind_006.txt.gz
Wind_Speed
10 10 10 8 6 5 6 6 6 5 5 5 5 6 7 7 6 6 7 7 8 9 10 12 13 14 15 16 16 18 19 18 18 18 19 21 22 24 27 30 32 32 32
10 9 8 7 7 6 5 6 7 7 6 7 7 7 8 8 7 6 7 7 9 11 12 14 15 16 18 19 20 21 22 22 21 21 21 22 24 26 28 31 32 32 32
9 8 7 7 7 6 5 5 6 8 8 8 8 8 7 7 7 6 7 9 11 13 14 15 18 20 22 24 25 26 25 24 24 23 24 25 27 29 30 31 32 33 32
9 7 7 7 7 6 5 4 6 7 8 7 8 8 8 8 8 7 8 10 12 13 14 16 18 21 23 25 27 28 28 27 25 25 25 26 28 30 31 32 32 33 32
10 8 8 8 7 6 6 6 7 8 8 8 9 9 10 11 10 9 10 12 12 13 14 16 18 20 22 23 25 26 26 25 24 25 25 26 29 31 32 31 32 32 32
12 9 9 9 7 7 6 7 10 11 11 11 10 10 11 12 12 12 13 13 13 13 14 16 19 21 22 23 23 22 22 21 21 23 24 26 28 29 29 29 29 30 29
13 10 10 10 9 8 7 7 10 13 13 13 12 11 10 11 12 14 16 15 14 13 13 16 19 21 21 21 20 20 20 19 20 21 22 24 25 26 26 27 28 28 27
13 12 11 11 11 11 9 8 9 12 14 14 13 11 10 12 13 15 17 16 14 13 13 15 17 18 19 18 18 19 20 20 20 20 22 24 25 25 26 26 27 27 28
13 14 12 13 14 13 11 10 9 11 13 14 13 13 13 13 14 16 16 16 15 15 15 15 16 17 17 17 17 18 19 20 20 21 22 23 24 25 26 27 28 28 29
14 14 14 14 15 15 14 12 11 11 13 14 15 16 16 16 17 17 17 18 18 17 18 18 17 17 18 18 19 19 19 20 21 23 24 25 26 27 29 29 30 30 31
14 15 15 15 16 17 17 15 14 14 15 17 18 19 19 20 21 21 20 21 21 21 21 22 22 21 22 22 22 22 22 23 24 25 27 28 29 31 32 33 34 34 34
15 15 16 17 16 18 18 17 17 18 18 20 21 22 23 25 25 26 25 25 26 26 26 26 26 27 27 27 27 27 26 26 27 28 30 32 33 34 35 35 37 37 37
17 16 16 18 18 19 19 19 19 20 21 23 24 25 26 27 29 30 30 30 31 31 31 31 31 32 32 32 32 32 31 30 30 30 31 33 35 36 37 38 39 40 40
19 19 17 17 18 19 20 20 21 22 24 26 27 28 29 31 33 34 36 37 37 36 35 35 36 36 36 35 35 36 35 34 34 34 35 36 38 39 39 40 40 41 42
21 21 18 17 18 19 21 23 24 26 27 28 30 32 34 36 38 39 41 42 41 39 39 39 40 41 40 39 39 39 39 39 39 39 39 40 40 41 41 42 42 43 43
23 23 20 17 18 20 23 25 26 28 30 32 35 37 38 39 41 42 43 43 42 41 41 41 42 43 43 43 43 43 43 44 45 45 45 44 43 43 43 44 45 45 46
24 23 22 19 20 22 25 27 29 31 33 35 36 37 37 37 38 39 40 41 42 42 43 42 43 44 46 47 48 49 49 49 48 48 48 46 45 45 45 46 47 48 49
24 22 22 22 24 27 30 32 33 34 35 35 35 35 36 36 37 38 39 41 42 42 43 44 44 46 48 49 51 53 53 53 52 51 50 49 48 48 48 49 50 51 51
21 22 24 26 29 32 34 34 33 32 30 30 31 33 34 35 36 37 38 40 41 42 43 45 47 48 49 51 54 55 56 57 56 54 52 53 52 52 52 52 52 52 52
22 25 27 30 33 34 33 31 28 26 25 27 29 31 33 35 36 38 39 40 42 44 45 47 49 51 52 53 55 56 57 58 58 56 56 56 55 56 57 56 55 54 53
25 29 31 32 32 30 27 26 26 26 26 27 29 31 32 34 36 37 38 39 41 43 43 44 46 48 49 52 55 56 57 58 58 58 59 59 59 60 59 58 57 56 54
31 33 33 31 28 25 24 25 26 27 29 30 31 33 35 37 40 41 43 44 45 47 48 49 51 52 53 55 57 60 61 61 60 62 63 62 62 62 59 58 59 59 57
34 34 32 29 28 27 27 27 28 30 31 34 36 39 41 44 46 48 49 50 52 53 54 54 56 58 59 59 61 64 67 67 65 63 63 64 64 63 61 60 60 60 58
32 30 29 29 29 29 30 31 33 35 37 39 41 43 46 47 49 51 52 54 56 57 59 60 61 62 64 64 65 67 69 72 74 72 65 63 64 63 61 61 61 61 58
27 27 28 29 30 32 33 35 37 38 40 42 43 45 48 50 52 54 56 58 60 62 64 66 67 69 70 71 71 72 73 73 73 74 72 64 61 60 60 61 63 62 59
26 27 28 29 31 32 34 36 38 40 43 45 47 50 52 54 56 58 60 62 63 65 66 67 68 69 70 71 71 71 71 70 67 66 67 65 63 60 61 62 63 62 60

GEFSSE_500_meanwind_012.txt.gz
Wind_Speed
12 13 13 13 13 12 11 11 11 11 10 9 8 8 8 8 9 9 9 8 8 8 9 10 12 14 16 17 19 20 22 23 24 24 24 24 23 23 24 25 26 26 25
12 13 13 12 13 12 12 12 12 12 12 11 10 9 9 10 10 11 11 10 10 11 12 12 13 14 15 17 19 21 22 24 24 25 25 24 24 24 24 25 26 25 24
12 13 12 12 12 13 13 13 13 13 14 13 11 10 11 10 11 12 12 12 12 13 14 14 13 14 16 18 20 22 23 23 22 21 21 21 21 22 21 22 23 21 21
12 12 11 12 13 13 14 14 13 13 14 14 12 12 12 11 11 12 13 14 15 15 16 15 14 15 17 20 21 22 22 20 19 18 17 17 18 18 17 18 18 18 19
11 11 12 13 14 13 13 13 13 12 13 14 13 13 13 13 13 14 14 15 17 17 17 16 15 15 17 19 20 20 20 18 16 14 14 14 14 14 14 15 16 17 18
11 12 13 14 14 14 13 13 12 13 14 15 15 15 15 14 14 15 16 17 18 19 18 17 16 16 17 17 17 17 17 17 15 13 13 13 13 14 14 15 16 17 18
11 12 13 13 13 14 14 13 13 14 16 17 18 18 17 16 16 16 17 18 19 19 19 18 18 18 17 16 16 16 16 16 15 14 14 14 14 15 16 17 18 20 21
11 12 13 13 13 14 14 14 15 14 15 18 20 20 19 18 18 18 18 19 19 18 18 19 20 21 21 20 18 17 17 18 17 17 17 17 18 18 19 20 21 22 24
12 13 13 13 14 14 15 16 16 17 16 17 18 19 20 20 19 19 20 20 20 19 19 21 22 23 24 25 25 24 23 23 23 23 22 23 23 23 23 24 25 26 27
13 13 13 14 15 15 17 18 19 19 19 18 18 19 21 21 21 22 23 24 24 23 24 25 26 26 27 29 31 31 30 30 30 30 30 29 29 29 29 29 29 30 31
14 13 13 14 15 17 18 20 21 22 22 22 22 22 22 23 24 25 27 28 29 29 30 31 31 32 33 34 35 36 37 37 37 37 37 36 35 35 35 35 35 36 37
14 14 13 14 15 17 19 21 23 24 25 25 25 25 26 27 28 29 30 32 33 34 35 36 37 38 39 40 41 41 41 41 42 43 43 42 41 40 40 41 41 42 42
16 16 15 15 16 18 19 21 23 25 26 26 26 27 29 30 31 32 33 35 36 37 39 40 42 43 45 45 45 44 44 44 45 46 47 47 47 46 46 46 47 47 48
19 19 18 18 19 19 20 21 22 23 25 26 27 28 30 32 33 35 37 38 40 42 43 44 46 47 48 48 47 46 45 45 46 47 48 50 50 51 51 51 52 52 52
21 22 21 22 21 20 20 21 21 22 24 25 27 29 32 34 36 38 40 42 44 46 46 46 46 46 47 47 46 46 46 46 46 47 48 49 50 52 53 54 55 55 55
23 23 24 24 23 21 21 21 22 24 25 27 29 32 35 38 40 42 43 44 45 44 42 42 42 43 44 44 45 45 46 47 48 49 50 50 51 52 53 54 55 56 56
26 26 25 24 24 22 22 22 24 26 28 30 33 36 39 41 42 42 42 41 41 40 40 40 41 42 43 44 44 45 46 47 48 49 50 51 52 53 53 54 54 55 55
30 30 28 25 24 23 23 24 27 29 32 34 36 38 39 39 38 37 36 36 37 38 38 39 40 41 42 43 44 45 45 46 47 48 49 50 52 53 54 55 55 55 55
31 30 28 25 24 24 25 27 30 33 35 37 37 37 36 34 34 33 33 33 34 35 36 38 40 41 43 44 46 47 48 49 51 52 53 54 56 56 57 58 60 61 60
28 28 26 25 25 26 28 30 33 35 36 36 36 34 33 32 32 31 32 34 36 37 39 41 43 45 47 49 51 51 51 52 54 55 57 59 61 62 63 64 65 65 66
24 24 24 26 27 29 31 33 34 35 35 35 34 33 32 33 34 35 36 38 40 42 44 46 49 51 53 55 57 58 57 58 58 59 60 62 63 64 66 66 67 68 68
22 23 25 28 31 33 35 35 35 34 33 33 33 33 34 36 37 39 40 43 45 47 50 52 54 56 57 58 61 62 62 60 59 59 61 62 62 63 64 64 65 65 65
22 25 28 31 33 34 34 33 31 31 32 33 34 35 37 39 41 43 45 47 50 51 53 54 56 58 59 59 62 65 67 67 66 64 64 64 64 64 65 65 65 65 65
25 28 30 32 33 32 31 31 31 32 34 35 37 39 41 43 45 47 48 49 50 52 54 56 58 60 62 64 66 68 71 74 76 75 73 72 71 69 68 67 67 67 66
29 31 32 32 31 31 32 32 33 35 36 38 40 42 43 44 46 47 50 52 54 57 59 61 64 66 69 71 74 76 78 79 81 84 83 81 81 80 78 75 71 69 67
32 33 32 32 32 33 34 35 37 38 39 40 41 42 44 46 49 53 56 59 63 65 68 70 72 74 77 79 81 83 84 86 87 89 91 90 89 87 86 85 82 78 73

GEFSSE_500_meanwind_018.txt.gz
Wind_Speed
17 17 17 16 16 16 15 15 15 14 15 16 16 15 14 14 15 14 13 12 11 11 12 12 12 13 14 15 15 16 17 18 20 22 24 24 24 24 24 24 24 24 23
18 18 16 16 15 15 14 14 15 15 15 16 17 16 15 15 15 14 14 13 13 13 14 15 14 14 15 17 18 18 19 20 22 24 24 24 23 22 21 20 20 20 20
17 16 16 15 15 14 14 14 15 15 15 15 17 17 16 16 16 15 14 15 15 16 16 16 16 16 16 18 19 19 19 21 22 23 23 22 20 19 17 16 16 15 15
15 13 13 13 14 14 14 15 15 15 15 15 16 18 17 17 16 16 15 16 17 18 17 17 17 17 18 18 19 19 19 20 21 21 20 19 17 16 14 13 13 12 12
13 11 12 13 14 15 15 16 15 15 14 14 15 17 18 18 17 17 17 18 19 19 18 18 19 19 19 19 20 20 20 19 20 19 19 18 16 15 14 13 13 13 14
11 11 12 13 14 15 15 16 16 15 14 14 15 17 18 19 18 18 18 20 21 21 20 19 19 20 20 20 21 21 21 21 21 20 20 19 18 18 18 18 18 18 18
11 11 12 13 14 15 15 16 17 16 15 14 15 17 19 20 21 21 21 22 22 21 20 19 19 20 20 20 21 22 23 25 25 25 24 24 24 24 24 23 23 24 24
13 12 11 12 13 14 15 16 17 17 17 16 16 17 19 21 22 23 23 23 23 22 20 20 21 21 22 22 23 24 25 27 29 29 29 30 30 30 30 30 30 30 30
14 13 11 12 12 14 15 16 17 18 19 19 19 19 19 20 22 23 24 24 24 23 23 24 25 26 26 27 28 28 29 31 33 34 34 34 35 35 36 36 37 36 36
15 13 12 11 12 13 15 16 17 19 20 22 23 23 22 22 22 23 23 25 26 26 27 28 29 31 31 32 33 34 35 36 38 39 39 39 39 39 40 41 41 41 41
16 15 14 13 12 12 14 16 18 20 21 23 25 26 26 26 26 26 26 26 27 28 30 32 34 35 36 37 37 38 39 40 42 43 43 43 42 42 42 42 43 43 43
17 17 16 15 13 12 14 16 17 19 21 23 25 26 27 28 28 28 28 29 29 31 33 35 37 39 40 41 42 43 43 44 45 45 46 46 45 44 43 43 43 44 44
18 19 18 18 16 15 17 17 18 19 20 21 23 24 25 27 27 28 29 30 31 33 35 38 40 42 43 44 45 46 45 45 45 45 46 47 47 46 46 46 46 46 46
20 20 20 20 19 19 20 20 21 21 21 21 21 22 23 25 26 27 29 31 33 35 38 41 43 44 44 44 44 43 43 42 43 44 45 46 47 47 48 49 49 50 50
22 21 22 22 21 21 22 22 23 23 23 23 22 23 24 25 27 29 32 34 36 38 40 41 41 41 42 42 41 41 41 41 42 43 43 44 45 46 46 47 48 49 50
22 22 22 22 23 23 23 23 24 25 25 25 25 26 27 29 31 33 35 36 37 37 37 36 35 35 35 36 37 38 38 39 40 42 43 44 46 47 48 49 50 51 52
22 22 22 23 23 24 24 25 26 26 27 27 27 29 30 32 34 35 36 36 36 35 35 34 34 34 35 36 37 38 40 42 44 46 47 49 50 51 52 53 54 55 55
22 22 23 24 25 26 26 26 27 28 28 29 30 32 34 35 36 36 36 36 35 35 35 35 36 37 38 40 41 42 44 45 47 49 51 52 53 54 54 55 56 57 56
23 24 25 26 28 28 28 28 29 29 30 31 34 36 37 37 37 37 36 36 36 36 37 38 39 41 42 43 44 45 47 48 49 51 53 55 56 57 58 58 59 60 61
25 27 28 29 29 28 28 28 29 30 31 34 36 38 38 38 37 37 37 37 38 39 39 40 42 43 45 46 47 48 49 51 53 55 57 59 60 62 64 65 66 66 67
28 29 29 28 26 26 26 28 29 31 33 36 37 38 38 38 38 38 39 39 40 41 42 43 44 45 47 49 51 53 54 56 59 61 62 65 66 68 69 70 72 72 73
29 28 26 25 24 25 27 28 31 33 35 37 37 37 38 39 39 40 40 41 42 43 44 45 47 49 51 55 58 60 61 62 64 66 68 69 71 72 73 74 75 76 77
27 25 24 24 25 26 28 30 32 33 35 36 37 38 39 40 41 42 42 42 43 44 46 48 51 54 56 59 63 67 70 71 72 71 72 73 74 75 76 78 79 80 82
25 24 24 25 27 28 30 32 33 34 35 36 37 38 40 41 42 42 43 43 45 47 50 53 56 60 63 66 68 71 74 77 80 81 80 81 81 81 82 83 85 87 89
25 25 26 28 29 31 32 33 34 35 36 38 39 40 41 42 42 43 44 46 49 52 55 59 62 66 69 71 74 76 78 80 83 86 86 87 88 89 90 92 93 95 97
26 27 28 30 31 32 33 34 35 36 38 39 40 41 41 42 43 45 47 50 54 57 61 65 67 70 72 75 78 81 83 86 88 90 91 91 93 93 95 97 99 101 102

GEFSSE_500_meanwind_024.txt.gz
Wind_Speed
20 21 21 22 22 22 21 20 19 17 17 17 18 18 18 18 17 17 17 17 17 17 16 15 15 15 14 14 14 13 14 14 15 15 15 16 17 18 19 18 18 17 17
21 21 21 22 22 22 21 20 19 17 17 17 17 17 17 17 17 17 17 16 16 17 17 17 17 16 16 16 15 15 15 15 15 15 15 15 15 16 16 15 14 13 12
22 22 21 21 20 19 19 18 17 17 16 16 16 16 16 16 17 17 16 16 15 16 17 18 18 18 18 18 18 17 16 16 16 16 16 16 16 16 16 15 13 12 10
22 21 21 19 18 17 17 17 16 16 16 15 14 14 15 16 17 17 16 15 15 16 17 18 18 19 20 20 20 19 18 17 17 17 17 17 17 18 17 17 16 15 13
22 21 19 16 15 15 15 16 16 15 15 14 13 13 14 15 17 18 18 17 16 17 18 19 19 20 21 22 22 21 20 19 18 19 19 20 20 21 21 20 20 19 18
20 19 17 14 14 15 15 15 15 15 15 14 14 13 13 14 16 18 19 19 19 20 20 21 21 21 21 21 22 22 21 21 20 20 22 23 23 24 25 25 25 25 24
19 16 15 13 13 14 14 14 14 14 14 14 14 14 14 14 16 18 20 21 21 22 23 23 22 22 21 21 21 22 23 23 23 23 24 26 27 28 29 29 29 29 30
19 16 15 13 13 14 14 14 13 14 14 15 15 16 16 16 17 18 19 20 21 23 23 23 23 23 23 23 24 25 26 26 27 28 29 30 31 32 33 34 34 34 34
19 17 16 15 14 14 14 14 14 14 15 16 16 17 18 19 19 20 20 20 21 22 22 23 24 25 25 26 27 29 30 31 32 33 34 35 36 37 38 38 39 39 39
20 19 18 16 16 15 15 14 13 13 14 16 17 18 20 21 22 23 24 24 24 24 24 25 27 28 29 30 31 33 34 36 36 38 39 40 40 41 41 42 42 43 43
21 20 19 18 18 17 16 15 13 13 14 15 16 17 19 20 22 23 24 25 26 26 27 28 29 31 32 33 34 36 38 39 40 41 42 43 43 43 44 43 43 43 43
22 21 20 20 20 19 17 16 15 15 16 16 16 17 18 19 20 21 23 24 26 27 28 30 31 33 34 36 37 39 41 42 42 43 43 43 43 43 42 41 41 41 41
22 22 22 22 22 20 19 19 19 19 19 19 19 19 19 20 21 21 22 24 26 27 30 31 33 34 36 38 40 42 42 42 41 40 40 40 40 39 39 38 38 38 39
23 22 23 23 23 22 22 22 22 22 23 23 23 22 22 22 22 23 24 25 27 29 32 34 36 37 39 41 41 40 39 37 35 34 34 35 35 36 37 37 38 38 40
24 22 22 23 24 24 24 24 24 25 26 26 26 26 26 26 26 26 27 28 30 31 33 35 36 38 38 38 38 37 36 35 35 34 34 34 35 36 37 39 39 40 41
24 23 22 23 24 25 25 25 26 27 28 29 29 29 29 30 30 30 30 31 33 34 35 35 36 36 36 36 36 36 36 35 35 36 36 36 37 37 38 40 42 43 44
24 23 22 23 24 25 25 25 27 28 29 31 32 32 32 32 32 33 34 35 36 37 36 36 35 35 35 34 34 34 35 35 36 37 37 38 39 40 41 43 45 47 49
24 23 22 23 24 25 26 27 28 30 31 33 34 34 34 34 34 35 37 38 38 38 37 36 35 34 34 34 34 34 35 36 37 38 40 41 43 45 46 48 50 52 54
25 23 23 23 24 26 27 29 30 32 34 34 34 33 33 34 35 37 39 39 38 37 36 36 35 36 36 36 36 37 37 38 40 42 44 46 49 51 53 55 57 59 60
25 24 23 24 25 27 29 32 33 35 35 34 33 33 33 35 37 39 40 40 39 38 37 37 37 38 39 39 39 40 41 42 45 47 49 52 54 56 59 61 63 65 66
27 25 25 25 27 29 31 33 35 35 34 33 33 34 35 37 39 40 41 40 39 39 39 39 40 41 42 43 44 44 46 48 51 53 56 59 61 63 65 66 68 70 71
28 27 26 27 29 31 32 33 33 33 32 33 34 36 38 40 41 42 41 41 41 41 42 42 43 44 45 48 50 51 52 53 56 59 62 64 66 68 69 70 72 73 75
28 28 28 28 30 32 32 32 32 32 33 35 36 38 40 41 41 41 42 42 42 43 44 45 46 48 50 52 56 59 62 64 65 65 67 68 70 71 73 74 75 77 78
28 28 28 29 30 31 31 31 32 33 35 37 39 40 41 41 41 41 42 42 43 44 45 47 50 53 55 58 61 65 69 73 75 74 72 73 74 75 76 78 79 80 81
28 28 29 30 30 31 32 33 34 36 38 39 40 40 40 40 41 41 41 42 43 45 48 51 55 58 62 65 68 71 72 74 76 79 78 79 79 80 81 82 83 85 86
28 28 29 30 31 32 34 35 37 38 39 39 40 40 40 40 40 41 42 43 46 49 53 56 60 64 67 70 72 74 76 78 80 81 82 83 83 83 85 86 88 90 92

GEFSSE_500_meanwind_030.txt.gz
Wind_Speed
16 16 16 16 15 16 16 16 16 16 16 15 15 15 15 14 14 15 15 14 14 15 17 18 18 17 17 17 18 19 19 19 19 19 18 17 16 14 13 12 13 13 13
18 18 17 17 16 16 17 16 16 15 15 14 14 14 14 14 14 15 16 16 15 16 17 18 18 19 19 19 20 21 21 22 21 21 20 19 18 17 15 14 13 13 12
19 19 18 18 17 17 17 16 15 15 15 14 14 13 12 13 14 16 17 17 17 16 16 17 18 18 19 20 21 22 23 23 23 22 22 22 21 20 18 17 15 15 14
20 19 19 19 18 18 17 16 15 15 15 14 14 13 12 13 15 17 18 19 18 18 17 17 17 18 19 20 21 23 24 25 25 24 25 24 24 23 21 20 19 18 17
20 20 20 20 19 18 17 16 15 14 14 14 14 14 13 13 15 16 18 19 20 19 19 19 20 20 21 22 23 24 25 26 26 26 27 26 26 26 25 24 23 23 22
21 20 20 21 20 19 17 16 14 14 14 14 14 14 14 15 15 16 17 19 20 21 22 22 23 23 24 24 25 25 26 27 27 27 27 27 27 28 29 29 28 27 27
22 21 21 21 21 19 18 15 14 13 14 14 14 15 15 16 16 17 17 18 20 21 23 24 25 26 27 27 27 28 28 28 28 28 28 28 28 29 31 32 33 33 32
21 21 21 21 21 20 19 16 14 13 14 14 15 16 16 17 18 19 19 20 21 21 23 24 25 26 27 28 28 29 29 30 30 30 31 31 32 32 34 35 36 37 37
20 21 22 23 22 22 20 17 15 14 14 14 15 16 17 18 19 20 21 22 23 23 24 25 26 26 27 28 29 29 30 31 31 32 34 35 35 36 37 38 39 40 41
20 21 23 23 23 23 21 19 17 16 15 14 14 15 17 18 18 19 20 21 23 24 25 26 27 28 29 29 31 32 32 33 34 35 36 37 38 39 40 41 42 42 43
21 22 23 23 24 23 22 21 19 18 17 15 15 16 17 17 18 19 19 20 20 22 23 24 25 27 28 30 31 33 34 35 36 37 38 40 41 42 43 43 43 43 42
23 22 23 23 24 23 23 23 21 20 19 18 17 18 18 19 19 20 20 20 21 21 22 23 24 26 28 30 32 33 35 36 37 39 40 41 41 42 42 41 39 38 37
24 23 23 23 24 24 24 24 23 22 21 21 21 21 22 22 22 23 23 24 24 24 25 26 27 28 30 31 33 35 36 38 39 40 40 41 40 40 39 38 37 35 34
25 24 23 24 25 25 25 25 24 24 24 24 24 24 25 26 26 26 27 27 27 28 28 29 31 32 33 34 35 37 38 38 39 39 39 39 39 38 38 38 37 37 37
26 25 23 23 25 25 25 26 25 25 25 25 25 25 27 28 29 30 31 31 32 32 32 32 34 35 36 37 37 38 38 38 39 38 38 38 38 38 39 39 40 40 40
26 26 25 25 25 24 24 24 25 25 25 25 25 26 28 30 32 33 34 35 35 35 35 36 36 37 38 39 39 39 39 39 39 39 39 39 40 40 41 42 42 43 44
26 25 26 26 25 24 22 23 23 24 24 25 25 26 28 30 31 32 33 34 35 36 37 38 39 39 39 40 40 40 40 40 40 41 41 42 42 43 44 45 45 46 47
26 25 26 26 25 23 22 21 22 22 23 24 25 27 28 30 31 31 31 31 32 34 36 37 39 40 41 41 41 41 41 42 42 42 43 44 45 46 47 48 49 51 52
26 26 26 26 24 23 22 21 21 22 23 24 26 28 30 30 30 30 31 32 33 35 37 38 40 41 41 42 42 42 42 42 43 44 45 46 48 49 50 52 54 55 57
27 27 26 25 24 23 22 22 23 23 24 26 28 30 30 31 31 31 32 34 36 38 40 41 42 43 43 42 42 42 43 43 44 46 47 49 51 53 55 57 60 62 64
28 27 26 25 24 24 23 24 24 25 26 28 30 30 31 31 33 34 36 38 39 41 42 42 43 44 44 43 43 43 44 45 47 49 52 55 57 60 62 64 66 68 69
28 27 26 26 25 25 25 25 26 27 28 30 31 31 32 34 35 37 39 40 41 42 42 42 42 43 44 44 45 45 46 48 51 54 57 60 63 65 67 68 70 71 72
28 27 26 26 26 27 27 27 28 29 31 31 32 33 34 36 38 40 42 42 42 42 42 43 43 43 45 48 50 52 54 55 56 57 60 63 65 67 68 69 71 72 73
28 27 27 27 28 28 28 29 30 31 32 32 33 35 37 39 41 42 42 42 42 43 43 44 45 46 49 51 55 59 62 65 67 66 64 64 65 66 68 70 72 73 75
28 27 27 27 28 29 29 30 31 32 33 34 35 37 39 41 42 43 42 42 43 44 45 46 48 51 54 57 60 63 66 69 72 74 73 71 68 67 68 70 73 76 79
28 28 27 27 28 29 30 31 32 33 34 35 37 39 41 42 43 43 43 44 44 46 47 49 52 55 58 62 65 67 69 70 71 73 75 75 74 73 73 75 78 82 86

GEFSSE_500_meanwind_036.txt.gz
Wind_Speed
17 16 15 15 14 14 14 15 15 15 14 13 12 12 11 11 11 11 12 13 14 15 16 17 18 19 20 21 22 22 21 21 21 21 22 22 22 22 22 21 20 20 18
17 17 16 16 15 15 15 16 16 16 15 14 13 12 12 12 12 12 13 14 15 16 17 18 18 19 21 22 23 23 23 23 23 24 24 25 25 24 24 24 23 22 21
18 18 18 17 17 17 16 16 16 16 15 14 14 13 12 12 12 13 13 15 16 17 18 19 20 20 21 22 23 23 24 24 25 25 26 27 27 27 27 26 25 24 23
19 19 19 19 18 18 17 17 17 16 16 15 14 13 13 12 12 13 14 15 17 18 19 20 21 21 21 21 22 22 23 24 25 26 27 28 29 29 29 28 27 27 26
20 20 20 20 20 19 18 17 17 17 16 15 14 13 13 13 13 13 14 15 17 18 20 21 22 22 22 23 23 24 24 25 26 27 28 29 29 29 29 29 28 28 28
21 21 21 21 20 20 19 18 17 17 16 15 14 14 13 13 14 14 15 16 17 18 19 20 21 22 23 24 25 26 27 27 28 29 29 30 30 30 30 30 30 29 30
23 22 22 22 21 20 19 18 18 17 17 15 15 14 14 14 14 15 15 16 18 18 19 20 21 22 24 25 26 27 28 29 30 30 31 31 31 31 31 32 32 32 33
23 22 22 21 21 20 19 18 18 18 17 16 15 15 15 15 15 15 16 17 18 20 21 22 23 24 25 26 28 29 30 30 31 32 32 33 33 33 33 34 35 35 36
22 22 21 20 20 19 19 19 19 19 19 17 17 16 16 16 16 16 16 17 18 19 21 22 23 25 26 27 29 30 31 32 33 34 34 35 35 35 36 36 37 38 39
22 21 20 20 19 19 19 19 20 21 21 20 18 18 17 17 16 16 16 17 18 19 20 21 22 24 25 26 27 28 29 31 32 33 34 35 36 37 38 39 39 40 41
22 21 21 20 20 20 19 20 21 22 22 21 20 19 19 18 18 17 17 18 19 20 20 22 23 24 25 26 26 27 29 30 31 32 33 35 36 38 39 40 41 42 42
23 22 22 22 21 21 20 20 21 22 23 23 22 21 21 20 20 20 20 21 22 23 24 25 26 27 27 28 29 30 31 32 32 33 34 35 37 38 39 40 41 41 42
25 24 24 23 23 22 22 21 21 21 22 24 24 23 22 22 22 23 23 24 26 27 29 31 31 32 32 33 34 34 35 36 36 37 37 38 38 39 39 40 40 41 41
27 26 26 25 25 24 23 22 21 21 22 23 25 25 24 24 24 25 26 27 29 30 32 33 34 34 35 37 38 39 39 39 40 40 40 41 41 41 41 41 41 41 41
29 28 28 27 27 26 24 23 22 21 21 23 24 25 25 25 25 26 27 29 30 31 31 32 32 33 34 35 37 38 39 40 41 42 42 42 42 42 42 42 42 42 42
30 30 30 29 29 27 26 24 22 21 22 23 25 25 25 25 26 27 28 29 29 29 30 30 31 31 33 34 35 37 38 40 41 42 43 43 43 43 43 43 43 43 43
31 31 31 30 30 29 27 25 22 21 23 24 25 24 25 25 26 27 28 28 29 30 30 31 31 32 33 35 37 39 40 42 43 44 44 44 44 44 44 44 44 45 45
32 31 31 31 30 30 28 26 23 23 24 25 25 25 25 25 26 27 28 29 30 30 31 31 32 33 35 37 39 41 42 43 44 44 44 44 44 44 45 45 46 47 48
34 32 32 31 30 30 28 26 25 25 26 26 26 26 25 26 27 28 29 30 31 31 32 33 34 36 38 40 41 42 43 43 44 44 44 44 45 46 47 48 49 51 52
36 33 32 31 30 29 28 27 26 27 27 28 27 26 27 28 29 30 30 31 31 32 34 35 37 39 40 41 41 42 43 43 44 44 45 46 48 49 50 52 54 55 57
37 34 33 32 31 29 28 28 28 29 29 29 28 28 29 30 31 31 32 32 33 34 36 38 40 41 41 41 42 42 44 44 45 46 47 49 51 53 55 57 59 61 62
37 36 34 33 32 30 29 28 29 29 30 29 29 30 31 31 32 33 33 34 35 37 39 40 42 42 43 43 43 43 44 45 47 48 51 53 55 57 60 62 63 64 65
38 37 35 34 33 31 29 28 29 30 30 30 31 31 32 33 34 35 36 37 38 40 41 42 43 45 46 46 46 47 47 47 47 48 52 56 58 60 62 64 65 66 67
38 37 36 35 34 32 30 29 29 30 30 31 32 33 34 35 36 37 38 39 41 42 43 44 45 47 47 48 49 50 52 54 54 53 54 57 59 61 63 64 65 66 67
38 38 37 35 34 32 30 29 29 30 30 31 32 34 35 36 38 39 40 41 43 44 45 46 47 48 49 50 51 53 55 58 60 61 60 60 61 62 63 64 65 67 70
38 38 37 35 34 32 30 29 29 29 30 32 33 35 36 38 39 40 42 43 44 45 46 48 49 50 51 53 55 57 59 61 63 65 65 65 65 64 65 66 68 71 75

GEFSSE_500_meanwind_042.txt.gz
Wind_Speed
17 17 18 19 19 19 18 16 15 13 12 12 11 10 10 10 10 10 10 11 12 12 13 14 15 16 16 17 17 18 19 20 21 22 22 21 21 22 22 22 22 22 22
17 17 18 18 19 19 19 17 16 14 13 13 12 11 11 11 11 11 12 12 13 13 14 15 16 16 17 18 18 18 19 20 21 22 23 23 23 23 24 24 24 24 24
18 18 19 19 19 20 19 18 17 16 15 14 13 12 12 11 12 12 13 13 14 14 15 16 17 17 18 19 19 19 19 20 20 21 22 23 23 24 24 25 25 26 26
19 19 19 20 20 20 20 19 18 17 16 15 15 14 13 12 12 13 14 14 15 15 16 16 18 18 19 20 21 21 21 21 21 22 22 23 24 25 25 26 26 26 26
21 21 20 20 21 20 20 20 19 18 17 17 16 15 14 14 13 14 15 16 16 16 17 17 18 19 20 21 22 22 22 23 23 23 24 25 25 26 26 26 27 27 27
23 23 22 22 22 21 21 20 20 19 18 18 17 16 15 15 14 15 16 16 17 17 17 18 19 19 19 20 21 22 22 22 23 24 24 25 26 26 27 27 27 27 27
24 25 25 24 24 23 22 21 21 20 20 19 19 18 17 16 15 16 16 17 17 18 18 19 19 20 20 21 21 22 22 22 23 24 25 26 27 27 28 28 28 28 29
24 25 26 26 26 26 24 22 21 21 21 21 20 19 18 17 17 17 17 17 17 17 18 18 18 19 19 20 21 22 22 23 23 24 25 26 26 27 27 28 28 29 29
24 24 25 27 27 26 24 22 22 22 22 22 21 21 20 19 18 18 17 17 17 18 17 17 18 18 18 19 20 21 22 22 23 23 23 24 25 26 26 27 28 29 30
24 25 26 26 26 25 24 22 22 22 22 22 23 23 23 21 20 20 19 19 18 18 18 18 18 19 20 20 21 22 22 23 23 24 24 25 25 26 27 27 28 29 30
26 26 27 27 27 26 24 23 22 21 22 22 23 24 24 24 23 21 20 20 19 19 19 19 20 21 22 24 25 25 26 26 27 27 28 28 29 29 30 31 31 32 32
29 28 28 28 29 28 26 25 23 21 21 22 23 25 25 25 25 23 22 21 21 21 21 22 23 24 25 27 28 28 28 29 29 30 30 31 32 32 33 34 34 35 35
32 30 30 30 30 30 29 27 25 22 22 22 23 25 26 26 26 25 24 23 23 23 23 24 25 26 27 28 28 28 28 28 29 30 30 31 32 33 34 35 36 37 37
34 32 32 32 32 32 32 30 27 24 23 23 24 25 26 27 27 26 25 25 25 25 25 26 27 27 28 28 27 27 27 27 28 29 30 32 33 34 35 36 37 39 39
35 35 34 33 33 34 34 32 30 27 25 25 25 26 27 27 27 26 25 26 26 26 26 27 28 28 29 28 28 27 28 28 29 30 32 33 34 35 36 37 38 39 40
37 37 36 35 35 34 34 34 33 30 28 27 27 28 28 28 27 26 26 27 27 27 28 29 29 30 30 29 29 29 30 31 32 33 34 35 36 37 38 39 40 40 41
38 38 38 37 36 35 35 35 34 32 31 30 30 30 30 29 28 28 28 28 28 28 29 30 30 30 31 30 31 31 32 33 34 36 37 37 38 39 40 41 42 42 43
39 39 40 39 37 36 36 36 35 34 33 32 32 32 31 31 30 30 29 29 29 29 30 30 31 31 32 32 32 33 34 36 37 38 38 39 41 42 43 44 45 45 46
40 40 41 40 39 38 37 36 36 35 35 34 34 34 33 33 32 31 31 31 30 31 31 32 32 33 33 34 35 36 37 38 39 40 41 43 44 45 46 47 48 48 49
42 42 41 41 41 40 39 37 36 36 36 36 36 36 35 34 34 33 32 32 32 32 33 33 34 35 35 36 37 39 40 42 42 43 45 46 47 48 49 50 51 52 53
43 43 42 43 42 42 41 39 37 37 37 37 37 37 36 35 35 34 34 34 34 34 35 35 36 37 37 38 40 42 43 44 45 47 48 49 50 51 52 54 55 56 57
44 44 43 43 43 43 42 41 39 38 38 37 37 37 36 35 35 36 36 36 36 36 37 38 39 39 39 40 42 44 46 47 48 50 51 52 53 54 56 57 59 60 61
46 45 44 43 43 44 43 42 40 38 38 37 37 37 36 36 37 37 37 37 38 38 39 40 41 42 42 43 45 46 48 49 50 50 53 55 56 57 59 61 63 64 66
47 46 45 44 44 44 43 42 41 39 38 37 37 37 37 37 37 37 38 38 39 40 41 42 43 44 45 46 47 49 50 52 53 52 52 54 57 59 61 63 65 67 68
49 47 46 45 44 44 43 42 41 39 37 37 37 37 37 38 38 38 39 40 41 42 43 44 44 45 47 48 50 51 52 54 56 57 56 56 58 60 62 64 66 68 70
51 50 48 45 43 43 43 42 40 38 37 37 37 37 37 38 38 39 40 41 42 43 44 44 45 46 48 50 52 53 55 57 58 60 61 61 62 63 64 65 66 68 70

GEFSSE_500_meanwind_048.txt.gz
Wind_Speed
18 19 19 20 21 22 23 22 21 21 20 19 18 18 17 16 16 15 15 15 14 14 15 15 14 14 14 15 15 16 17 17 18 18 19 20 20 20 21 21 21 22 22
19 19 20 20 21 21 22 23 23 22 22 21 20 19 18 17 17 16 16 15 15 15 16 16 15 15 15 16 16 17 18 19 19 19 20 20 21 21 21 22 22 22 23
21 21 21 21 21 21 22 22 23 23 23 23 22 21 20 19 18 17 17 16 17 17 17 17 17 17 17 17 18 18 19 20 20 20 20 21 21 21 21 22 22 23 23
22 22 22 23 23 22 23 23 23 24 24 24 23 22 21 20 19 19 18 18 18 18 18 18 19 19 19 19 19 20 20 21 21 21 21 21 22 22 22 23 23 23 24
22 22 23 23 23 23 23 23 23 24 24 24 24 23 22 21 21 20 19 19 19 19 19 20 20 20 20 20 20 20 21 21 21 22 22 22 23 23 24 24 24 24 24
23 23 23 23 24 24 24 24 24 24 24 24 25 24 23 22 21 21 20 20 20 20 20 20 21 21 21 21 21 21 21 22 22 22 22 23 24 24 24 25 25 25 25
24 24 24 25 25 25 26 26 26 26 25 25 25 24 24 23 23 22 21 21 21 21 21 21 21 21 21 21 21 21 22 22 23 23 23 24 24 25 25 25 25 25 25
26 25 26 26 26 26 26 26 27 27 26 26 25 25 25 24 24 23 22 22 21 21 21 20 20 20 21 21 21 22 22 22 22 22 23 25 25 25 25 25 25 25 25
27 26 28 28 28 27 27 27 26 26 26 26 26 26 25 25 24 24 23 22 22 21 21 20 20 21 21 21 21 22 22 22 23 23 24 26 26 26 26 27 27 26 26
30 28 29 29 29 28 28 27 27 26 26 26 26 26 25 25 25 24 24 23 23 22 21 21 21 21 21 22 22 23 23 24 25 26 27 28 28 29 29 30 30 29 29
31 31 30 30 30 29 29 29 28 27 26 26 26 26 25 25 25 25 25 25 24 23 23 23 22 22 23 23 24 24 25 26 27 27 29 30 30 30 31 31 31 31 32
32 32 31 31 31 30 30 29 29 28 27 26 26 26 25 25 25 26 26 26 26 26 25 25 25 25 25 26 26 27 27 28 28 27 29 29 28 28 29 30 31 31 32
32 33 32 32 32 32 31 31 30 29 28 27 27 27 26 26 25 25 26 26 27 27 28 28 27 28 28 28 29 29 29 29 29 27 28 28 27 27 28 29 29 30 31
31 32 33 33 33 33 33 32 32 31 30 30 29 28 28 27 26 26 26 26 27 28 29 30 30 30 31 31 30 30 30 30 30 28 28 28 28 28 28 29 30 30 30
32 31 33 34 34 34 34 33 33 32 32 31 30 30 29 29 28 27 27 27 28 29 30 31 31 32 32 32 32 32 31 31 31 30 29 30 30 30 30 30 31 32 32
33 33 33 35 36 36 35 35 34 34 33 32 32 32 32 31 31 30 29 28 29 29 31 32 33 33 33 34 34 33 33 32 32 31 30 31 31 32 32 32 33 33 34
33 35 35 35 37 37 36 36 36 35 35 34 34 33 33 33 33 32 31 31 31 31 32 33 34 34 34 35 35 34 34 34 33 33 32 32 33 34 35 35 36 36 37
34 36 37 37 37 38 38 37 37 37 36 36 35 35 35 35 35 34 33 33 33 33 34 35 35 36 36 36 36 36 36 36 35 35 35 35 35 36 37 38 39 40 41
35 37 38 38 38 39 39 39 38 38 37 37 36 35 35 36 36 36 36 35 35 36 36 36 37 37 37 37 37 37 38 37 37 38 38 38 39 40 40 41 42 43 45
37 39 40 40 40 40 41 40 39 39 39 38 36 36 36 36 37 37 37 37 38 38 39 38 38 38 38 39 39 39 39 40 40 41 41 42 42 43 44 44 45 46 48
40 41 42 42 41 42 43 42 40 40 40 39 38 37 37 37 38 38 38 39 39 39 39 39 39 39 40 40 41 41 42 42 43 44 45 46 46 46 47 48 49 50 51
43 44 44 45 44 44 45 44 43 42 41 39 39 38 38 38 39 39 40 40 40 40 39 40 40 41 41 42 42 43 44 44 45 46 48 49 49 49 50 51 52 53 54
47 47 47 47 48 47 47 47 46 44 42 40 40 39 39 39 39 40 40 40 41 40 40 41 41 42 42 43 44 45 46 47 47 48 49 50 50 51 52 53 55 57 58
50 51 50 50 50 51 50 49 47 46 44 42 41 40 40 39 39 39 40 41 41 41 41 41 42 41 42 43 44 45 47 49 50 50 50 51 51 52 53 55 57 59 61
54 54 53 53 52 53 53 50 48 48 46 44 43 41 40 40 40 40 40 41 41 41 42 42 41 42 43 44 45 46 48 50 51 52 51 51 53 54 56 57 58 60 62
57 57 56 55 54 53 53 51 50 49 48 46 44 42 41 41 40 40 40 40 41 41 41 42 42 43 44 46 46 48 50 51 52 53 53 53 53 55 57 59 61 63 64

GEFSSE_500_meanwind_054.txt.gz
Wind_Speed
16 16 17 17 18 19 19 19 20 20 20 20 19 19 19 19 18 18 18 18 18 18 18 18 19 19 19 18 18 18 17 17 17 18 18 18 19 19 19 20 20 20 20
17 17 18 18 18 18 18 19 19 20 20 21 21 21 20 20 20 20 20 19 19 19 19 20 20 20 20 20 19 19 19 19 19 19 20 20 20 20 20 20 21 21 20
17 18 19 19 19 19 19 19 19 20 21 21 22 22 22 22 22 22 22 22 21 21 21 21 21 21 21 21 20 20 20 20 21 21 21 21 21 21 21 22 22 22 22
18 18 19 19 20 20 21 21 21 22 22 22 23 23 24 24 24 24 24 24 23 23 22 22 22 22 22 22 22 22 22 22 22 23 23 23 23 23 23 23 23 23 23
19 19 19 20 20 21 22 22 23 23 23 23 24 24 25 25 25 25 25 25 25 24 24 24 24 23 24 24 24 23 23 22 22 23 23 23 23 23 23 23 23 23 23
21 21 20 21 21 22 22 23 23 24 24 24 24 25 25 26 26 26 27 27 26 26 26 25 25 25 24 24 24 24 24 23 23 23 23 23 23 24 24 24 24 24 24
23 23 22 22 22 22 22 23 23 23 24 25 25 25 26 26 27 27 27 27 27 27 27 26 26 25 25 25 25 24 23 23 23 24 23 23 23 23 24 24 24 24 25
26 25 24 24 24 24 24 24 24 24 24 24 25 25 25 25 26 26 27 27 27 27 27 27 27 26 26 25 24 23 23 23 24 24 23 23 24 24 25 26 26 26 26
28 26 26 26 26 26 25 25 24 24 24 24 24 25 24 24 24 25 26 26 26 26 26 27 27 26 26 25 24 23 23 23 23 24 24 25 25 26 27 28 28 28 28
26 27 27 27 27 26 26 26 25 25 25 25 25 24 24 24 24 24 24 25 25 25 26 26 26 26 26 25 24 24 23 23 24 25 26 26 27 28 29 29 29 29 29
25 26 27 27 27 27 27 27 27 26 26 26 26 25 25 24 23 23 23 24 24 25 25 25 26 26 26 25 25 25 25 25 26 27 28 28 29 30 30 30 30 29 28
25 26 26 27 27 27 27 27 27 27 27 27 26 26 25 25 24 23 23 23 24 25 25 26 26 27 27 27 27 27 27 27 28 29 30 30 30 31 31 31 30 29 28
25 25 25 25 26 26 27 27 27 27 28 27 27 27 26 26 26 24 24 24 24 24 25 26 26 27 28 28 29 29 30 30 31 31 32 32 32 32 31 31 30 29 29
25 25 25 25 25 26 26 27 27 27 28 28 28 27 27 27 27 26 25 25 24 25 25 26 27 28 28 29 30 31 32 33 33 34 34 34 34 33 32 32 31 31 30
25 25 25 25 26 26 26 27 27 28 28 28 28 28 28 28 28 27 27 26 26 26 26 27 27 28 28 29 31 32 33 34 34 35 35 35 35 34 33 33 32 32 32
26 26 25 25 26 27 27 28 28 29 29 29 29 29 29 29 29 28 28 28 28 28 28 28 28 29 29 30 31 32 33 34 35 35 35 35 35 35 34 34 34 34 34
27 27 26 26 27 27 28 29 29 30 30 30 30 30 30 30 30 29 29 30 30 29 29 29 29 30 31 31 32 33 33 35 35 36 36 37 37 37 37 36 36 36 36
29 29 28 27 27 28 29 30 31 31 31 31 32 32 31 31 31 31 31 31 31 31 31 31 31 31 32 32 33 34 35 36 37 37 37 38 38 39 39 39 39 38 38
31 31 30 30 29 29 30 31 32 32 32 33 33 33 33 33 32 32 33 32 32 32 32 32 32 32 33 33 34 35 36 37 38 38 39 39 40 40 41 41 41 41 42
33 33 33 33 32 32 33 34 34 34 34 34 34 35 35 34 34 34 34 34 33 33 33 33 33 34 34 35 35 36 36 37 38 39 39 40 41 42 42 43 43 44 44
36 36 36 35 35 35 35 36 36 36 37 37 37 37 37 36 36 36 35 35 34 34 34 35 35 35 36 36 36 37 37 38 39 40 40 42 43 43 44 44 45 45 46
38 39 39 39 39 39 39 39 40 40 40 41 40 39 39 38 38 38 37 36 35 35 35 35 36 36 36 36 36 37 38 38 39 41 42 43 43 44 44 45 45 46 47
41 42 43 43 43 43 43 43 43 44 43 42 42 41 41 41 41 41 39 37 37 36 36 36 36 36 36 36 37 38 39 39 40 40 42 43 43 44 45 46 46 47 48
45 46 46 47 47 47 48 47 47 46 45 45 44 44 45 44 44 43 41 39 38 37 37 37 37 37 37 37 38 39 40 40 40 40 41 42 43 45 46 47 48 49 49
48 49 50 51 52 52 52 51 51 50 49 48 48 48 47 47 46 44 43 41 40 39 38 38 37 38 38 38 39 40 40 41 41 42 42 44 45 46 47 49 50 51 52
52 53 54 55 55 56 56 56 55 54 52 51 50 50 49 49 48 46 45 44 43 41 40 39 38 38 39 40 40 41 42 42 43 43 44 44 46 47 49 51 53 54 55

GEFSSE_500_meanwind_060.txt.gz
Wind_Speed
16 15 15 15 16 16 16 16 16 16 16 16 16 17 16 16 16 16 16 15 15 15 15 16 16 16 16 17 17 18 18 18 18 18 18 18 18 18 19 19 19 19 19
16 16 15 15 16 17 17 17 17 16 16 16 16 17 17 17 18 18 18 18 18 18 17 18 18 18 18 18 19 19 19 19 19 19 19 19 20 20 20 20 20 20 20
18 17 16 16 17 18 18 18 17 17 17 16 17 17 17 18 18 19 20 20 20 20 20 20 20 20 20 20 20 21 21 21 21 21 21 21 21 21 22 22 22 22 21
19 18 18 18 18 18 18 18 18 18 18 18 18 17 18 18 18 19 20 20 21 21 21 21 21 21 21 22 22 22 23 22 22 22 22 22 22 22 22 23 23 22 22
20 19 18 18 18 18 18 18 18 18 18 18 18 18 18 18 18 18 19 20 20 21 22 22 22 22 22 23 23 24 24 24 24 23 23 23 23 23 23 23 23 23 23
21 20 20 19 19 19 18 18 18 18 18 18 19 19 18 18 18 18 18 19 20 20 21 22 22 22 23 23 24 25 25 25 25 24 24 24 24 23 23 23 23 23 23
23 23 22 21 21 20 20 19 19 19 19 19 19 19 19 19 19 19 19 19 20 20 21 22 22 22 22 23 24 25 25 25 25 25 24 24 23 23 23 23 23 23 24
26 25 24 24 23 22 22 22 22 21 21 21 21 21 20 20 20 20 20 20 20 20 21 21 22 22 22 23 24 24 25 25 24 24 24 23 23 23 24 24 24 24 25
27 27 26 26 25 25 24 24 23 23 23 22 22 21 22 21 21 21 20 20 20 21 21 21 21 22 22 23 23 24 24 24 24 24 24 24 24 25 25 25 25 26 26
28 28 28 27 27 26 26 25 25 24 23 23 22 22 22 22 22 22 22 21 21 21 21 21 21 22 22 23 23 24 24 24 25 25 25 25 26 26 27 27 27 27 27
29 29 29 28 28 27 27 26 25 25 24 23 22 22 22 21 21 22 22 22 22 22 22 22 22 22 23 23 24 24 25 25 26 26 27 28 28 28 29 29 29 29 29
30 30 29 28 28 28 27 26 25 25 24 23 22 22 22 21 21 21 21 22 22 22 22 23 23 23 23 24 24 25 26 26 27 28 29 30 30 31 31 31 31 31 31
30 29 28 28 28 28 27 26 25 25 24 24 23 22 22 22 21 22 22 22 23 23 23 24 24 24 24 24 25 26 26 27 28 29 30 31 32 33 33 34 33 33 32
30 30 29 29 28 28 27 27 26 25 25 25 24 23 22 22 22 22 23 23 23 24 24 24 25 25 26 26 26 27 27 28 29 30 30 31 32 33 33 34 34 34 33
30 31 31 30 30 30 29 28 28 27 27 26 25 24 24 24 23 23 24 24 24 25 26 26 26 27 27 28 28 29 29 30 30 31 31 31 32 32 33 33 34 34 33
32 33 33 33 33 32 30 30 29 29 29 28 26 25 25 25 25 25 25 26 26 26 27 27 27 28 29 29 30 30 30 31 31 32 32 32 33 33 34 34 34 34 34
33 34 35 35 35 34 32 31 31 31 31 29 28 27 26 26 27 27 27 27 28 28 28 29 29 29 30 31 31 32 32 32 33 33 33 34 34 35 35 35 35 36 36
35 36 37 37 37 35 34 33 33 33 32 31 30 29 28 28 28 29 29 30 30 30 30 31 30 31 32 32 33 33 33 34 34 35 35 35 35 35 35 35 36 36 36
37 38 38 38 38 37 36 35 35 34 33 32 31 31 31 31 31 31 32 32 32 32 33 33 33 33 33 34 34 34 34 34 35 35 36 36 36 36 36 36 36 36 37
38 39 39 39 38 38 38 37 36 36 35 34 34 34 34 34 34 34 34 35 35 35 35 35 35 35 35 35 35 35 36 36 36 36 36 36 36 36 36 36 37 37 37
40 40 39 39 39 39 39 38 38 37 37 38 38 38 38 37 36 36 37 38 38 38 38 38 37 37 37 37 37 37 37 37 37 37 37 37 36 36 36 37 37 38 38
41 41 41 41 40 41 41 40 40 40 40 41 41 41 40 39 39 40 40 41 41 41 41 40 40 40 40 39 39 39 38 37 37 37 37 37 37 38 37 37 37 38 39
42 42 42 42 43 43 43 43 43 43 43 43 43 42 42 43 43 43 44 44 44 44 43 43 42 42 42 41 41 40 40 39 38 38 38 38 38 38 38 39 39 40 40
42 43 44 44 45 46 46 47 47 46 46 45 45 46 46 47 47 47 47 47 47 47 46 46 45 45 44 43 43 42 41 41 40 39 39 40 39 39 40 41 41 41 42
43 43 44 45 47 48 49 50 50 50 50 49 49 49 50 50 50 50 49 49 49 49 48 48 47 47 47 46 45 44 44 43 42 42 42 41 41 41 42 42 43 44 45
42 44 45 46 48 49 51 52 53 54 54 54 54 54 53 53 53 52 52 52 52 51 51 50 50 49 48 47 47 47 45 45 44 44 44 43 43 43 44 45 46 47 48

GEFSSE_500_meanwind_066.txt.gz
Wind_Speed
15 15 15 16 16 16 15 15 15 15 15 15 15 15 16 16 16 16 16 16 16 16 15 15 15 14 14 14 14 15 16 16 17 18 18 18 18 18 18 17 17 17 17
16 16 15 16 16 16 16 15 15 15 15 15 16 16 16 16 17 17 17 18 18 18 18 18 18 17 17 17 17 17 17 18 18 19 20 20 20 20 20 19 19 19 19
17 17 16 16 16 16 16 16 16 16 16 16 16 16 16 17 17 17 18 18 18 19 19 19 19 19 19 18 18 18 19 19 20 20 21 21 21 21 21 21 20 20 20
18 17 17 17 17 17 16 16 16 16 16 16 16 16 16 17 17 17 17 17 18 18 18 18 19 19 19 19 19 19 20 20 21 21 22 22 23 23 22 22 22 21 21
19 18 17 17 17 16 16 16 16 16 16 15 15 15 16 16 17 17 17 17 17 17 17 17 18 18 19 19 19 19 20 20 21 22 22 23 23 23 23 23 22 22 21
20 19 18 18 17 17 16 16 16 16 16 16 16 16 16 17 17 17 18 18 18 17 17 17 18 18 19 19 19 19 20 20 21 22 22 23 23 24 24 23 22 22 21
21 20 20 19 19 18 17 17 17 17 17 18 18 18 18 19 19 19 19 19 19 19 19 19 19 19 19 19 19 19 20 20 21 21 22 23 23 23 23 23 22 22 22
22 22 22 21 21 20 19 19 19 19 19 20 20 20 20 20 21 21 21 21 20 20 20 20 20 19 19 19 19 20 20 21 21 21 22 22 23 23 23 23 23 23 23
24 24 24 24 23 23 22 21 21 21 21 21 21 21 21 22 22 21 21 21 20 20 20 20 20 20 20 20 20 20 21 21 21 22 22 23 23 24 24 25 25 25 25
26 26 26 26 26 25 24 24 23 23 22 22 22 22 22 22 21 21 21 20 20 20 19 19 19 19 19 19 20 20 21 21 22 22 23 23 24 25 25 26 27 27 27
29 29 29 29 28 28 27 26 26 25 24 23 23 23 22 21 21 20 20 20 20 19 19 19 19 19 19 19 20 20 21 21 22 23 23 24 25 26 26 27 28 29 29
31 31 31 31 30 30 29 28 27 26 25 25 24 23 22 22 21 21 20 20 19 19 19 19 19 19 19 19 20 20 21 21 22 23 23 24 25 26 27 27 28 29 29
32 32 32 32 31 31 31 30 29 28 27 26 25 24 23 23 22 21 21 20 20 19 19 19 19 19 19 20 20 21 21 22 23 23 24 25 25 26 27 27 28 28 29
32 32 32 33 32 32 32 32 30 29 28 28 27 26 25 24 24 23 22 21 20 20 20 20 20 20 20 20 21 21 22 23 23 24 24 25 26 26 27 28 28 28 29
32 32 33 33 33 33 33 32 32 31 31 30 29 28 27 26 25 24 23 23 22 21 21 21 21 21 21 22 22 22 23 23 24 24 25 26 26 27 27 28 28 29 29
32 33 34 34 34 34 34 34 33 33 33 32 31 30 29 29 28 26 25 24 24 24 23 23 23 23 23 24 24 24 24 25 26 26 26 27 28 28 28 29 29 30 30
33 34 34 35 35 35 35 35 35 35 35 34 33 33 32 31 30 29 28 27 27 26 25 25 25 25 25 26 26 26 26 27 27 27 28 28 29 29 29 30 30 31 31
35 35 36 36 36 36 37 37 37 37 37 36 36 35 34 33 32 31 30 30 30 29 28 28 28 28 28 28 28 28 28 29 29 29 30 30 30 31 31 31 32 32 32
36 36 37 37 37 38 39 39 40 39 39 38 37 37 36 36 35 35 34 33 33 32 32 31 32 32 31 31 31 31 31 31 31 31 32 32 32 33 33 33 33 33 33
36 36 37 38 38 39 40 41 41 41 41 41 40 39 39 39 39 38 37 37 36 36 35 35 36 35 34 34 34 34 34 34 34 34 34 34 34 34 34 34 34 34 34
37 37 38 39 39 40 41 42 43 43 43 43 43 42 42 41 41 40 40 40 39 39 39 39 39 38 38 38 38 38 37 37 37 37 37 37 37 37 37 36 36 36 36
38 38 39 39 40 41 42 44 44 45 45 45 45 44 44 43 43 43 43 43 43 43 43 43 42 42 42 42 42 41 40 40 39 39 39 39 39 39 39 39 39 40 40
39 39 39 40 41 42 43 44 45 46 45 45 45 45 45 46 46 46 46 46 46 46 46 46 46 45 45 45 45 45 43 42 42 42 41 42 42 42 42 43 43 43 43
40 40 40 40 41 42 43 44 45 45 46 46 47 47 48 49 49 49 48 49 49 49 49 49 49 49 49 48 48 48 47 46 45 44 44 45 45 45 45 45 46 46 46
40 40 39 40 41 42 43 44 45 45 46 46 48 49 50 50 51 51 51 52 52 52 52 53 52 52 52 52 51 50 50 49 48 47 47 47 48 48 48 48 48 49 49
39 39 39 39 40 41 42 43 44 45 46 47 48 49 51 52 53 54 54 55 55 56 55 56 56 55 55 54 53 52 52 52 51 51 50 50 51 51 51 51 51 52 51

GEFSSE_500_meanwind_072.txt.gz
Wind_Speed
15 14 14 13 12 12 12 12 12 13 13 13 13 13 13 13 14 14 14 15 15 16 16 17 17 17 17 17 17 16 16 16 16 16 17 17 18 18 18 18 18 18 18
15 14 14 13 13 12 12 12 12 13 13 13 13 14 14 15 15 15 16 16 16 17 17 17 18 18 18 18 18 18 18 17 17 17 18 18 18 18 18 19 19 19 19
16 15 15 14 13 12 12 12 12 13 13 14 14 15 15 15 16 16 16 16 17 17 17 17 18 18 18 18 18 18 18 18 18 18 18 18 18 19 19 19 19 20 20
18 16 15 15 14 13 13 13 13 13 14 14 14 15 15 15 15 16 16 16 17 17 17 17 18 17 17 17 17 17 18 18 18 18 18 18 18 19 19 19 19 20 20
19 18 17 16 15 14 14 14 14 14 14 14 14 14 15 15 15 16 16 17 17 17 17 18 17 18 18 18 18 18 18 18 18 18 18 18 19 19 19 19 20 20 20
21 19 18 17 16 15 15 15 14 14 14 15 15 15 15 16 16 17 17 17 18 18 18 18 18 18 19 18 18 18 18 18 18 17 18 18 19 19 19 19 19 19 20
22 21 20 19 18 16 16 15 15 15 15 16 16 16 17 17 17 18 19 19 19 19 19 19 19 19 19 19 18 18 18 17 17 17 18 18 18 18 19 19 19 20 20
23 23 22 21 20 18 17 17 16 16 17 17 17 18 18 18 19 19 20 20 20 19 19 18 18 18 18 18 17 17 17 17 17 17 17 17 18 18 19 19 20 20 21
25 25 24 23 22 21 20 19 18 18 18 19 19 19 19 20 20 20 20 20 20 19 19 18 18 18 18 18 17 17 17 16 16 16 17 17 18 18 19 19 20 21 21
27 27 26 24 24 23 22 21 20 20 20 20 21 21 20 21 21 21 21 20 20 19 19 18 18 18 17 17 17 17 16 16 16 16 17 17 18 18 19 19 20 21 22
30 29 28 26 25 25 24 23 22 22 22 22 22 22 21 21 21 21 21 21 20 20 19 19 18 18 17 17 16 16 16 16 16 16 17 17 18 18 19 20 20 21 22
31 30 29 28 27 26 25 25 24 24 23 23 23 23 22 22 22 22 21 21 21 20 20 19 19 18 17 17 16 16 16 16 16 16 17 17 18 19 20 20 21 21 22
33 32 30 30 29 28 27 27 26 26 25 25 25 24 23 23 23 23 22 22 22 21 21 20 20 19 18 18 17 17 17 17 16 17 18 18 19 20 20 21 21 22 22
34 33 32 31 30 30 29 28 28 28 27 27 26 25 25 24 24 24 23 23 23 23 22 22 21 21 20 20 19 19 19 18 18 18 19 19 20 21 21 22 22 23 23
35 34 33 32 31 31 30 30 30 29 29 28 27 27 26 26 25 25 25 25 25 24 24 24 23 22 22 22 22 21 21 21 20 20 20 21 21 22 23 23 24 24 25
36 35 34 33 32 32 31 31 31 31 30 30 29 28 27 27 27 27 27 26 27 27 26 26 26 25 25 25 24 24 23 23 23 22 22 23 23 23 24 25 25 26 26
37 35 34 34 33 33 32 32 32 31 31 30 30 29 29 29 29 29 29 29 29 29 29 29 29 28 28 28 28 27 27 26 26 25 25 25 26 26 26 27 27 28 28
37 36 35 34 34 33 33 33 32 32 32 31 31 31 31 31 31 31 32 32 32 32 32 32 32 32 31 31 31 31 30 30 29 29 28 27 28 28 29 29 29 30 30
37 36 36 35 34 34 34 34 33 33 33 33 33 33 33 34 34 34 34 35 35 35 35 35 35 35 35 35 35 34 34 33 33 32 32 31 31 31 31 32 32 32 32
38 37 36 36 35 35 35 35 34 34 34 35 35 35 36 36 37 37 37 38 38 38 38 38 39 39 39 39 39 38 38 37 37 36 36 35 35 34 34 34 34 35 35
38 37 37 37 36 36 36 36 35 35 36 37 37 38 38 39 39 39 40 40 41 41 41 41 41 42 42 43 43 42 42 41 40 39 39 39 39 38 37 37 37 37 37
38 38 38 38 38 37 37 37 37 37 37 38 39 39 40 41 42 42 42 42 43 43 44 44 44 45 45 46 47 47 46 45 44 43 43 43 42 42 41 40 40 40 40
39 38 38 38 39 38 38 38 39 39 39 39 40 41 42 43 44 44 44 45 45 46 46 46 47 48 48 49 50 50 50 48 48 47 46 46 46 45 44 44 44 43 43
40 39 39 38 39 39 39 39 40 40 40 41 42 42 43 44 44 45 46 46 47 48 48 49 50 51 52 52 53 53 53 53 52 50 50 49 49 48 48 48 47 47 46
40 39 39 39 39 39 40 40 40 41 41 41 42 43 43 44 45 46 46 47 48 49 50 52 53 54 54 55 56 55 56 56 56 55 54 53 52 51 51 51 50 50 50
39 39 39 39 39 39 40 40 40 41 41 42 42 43 43 44 45 46 47 48 49 51 52 54 55 56 57 58 58 58 58 59 58 58 58 56 55 54 54 53 52 52 51

GEFSSE_500_meanwind_078.txt.gz
Wind_Speed
16 14 13 12 10 9 8 8 7 7 7 8 8 8 9 9 10 10 10 11 11 11 12 12 12 12 13 13 13 13 13 14 14 14 15 15 15 15 15 16 16 16 16
16 15 14 13 11 10 9 8 8 8 8 8 8 9 10 10 11 11 11 11 11 11 12 12 13 13 13 13 13 13 14 14 14 14 15 15 16 16 16 16 16 16 16
17 16 14 13 12 10 10 9 9 8 8 9 9 10 10 10 11 10 10 11 11 12 12 13 13 14 14 14 14 14 15 15 15 15 15 16 16 16 17 17 17 16 16
18 16 15 13 12 11 10 10 9 9 9 9 10 10 10 10 10 10 11 11 12 12 13 13 14 14 14 15 15 15 15 16 16 16 16 16 16 16 17 17 16 16 16
18 17 15 14 12 11 11 10 10 10 10 10 10 10 11 11 11 11 11 12 12 13 13 14 14 15 15 15 15 15 16 16 16 16 16 16 16 16 16 16 16 16 16
19 18 16 15 13 12 12 11 11 11 11 11 11 11 11 11 12 12 12 13 13 13 14 14 14 15 15 15 15 15 16 16 16 16 16 16 16 16 16 16 16 16 16
21 19 18 16 15 14 13 13 13 13 12 12 12 12 12 12 13 13 13 13 14 14 14 14 15 15 15 15 15 15 16 16 16 16 16 16 16 16 15 15 15 15 15
23 21 19 18 17 16 15 14 14 14 14 14 14 14 14 14 14 14 14 14 15 15 15 15 15 15 15 15 15 15 16 16 16 16 16 15 15 15 15 15 15 15 15
24 23 21 20 19 18 17 16 16 16 16 15 15 15 15 16 16 16 15 15 15 15 15 15 15 16 16 16 16 16 16 17 16 16 16 16 15 15 15 15 15 15 15
26 25 24 23 22 21 20 19 18 18 17 17 17 17 17 17 17 17 16 16 16 16 16 17 17 17 17 17 17 17 17 17 17 16 16 16 16 16 16 16 15 16 16
28 27 26 25 24 23 22 21 20 19 19 18 18 18 18 18 18 18 18 18 18 17 18 18 18 18 18 18 18 18 18 19 18 18 17 17 17 17 17 17 17 17 17
31 29 28 27 26 25 24 23 22 21 20 19 19 18 19 19 19 19 19 19 19 19 19 19 19 20 20 20 19 19 20 20 20 20 19 19 19 19 19 19 18 18 18
33 32 31 30 28 27 26 25 24 23 22 21 20 19 20 20 20 20 20 20 20 20 20 20 21 21 21 22 21 21 21 22 22 22 22 22 21 21 21 21 20 20 20
35 34 33 32 30 29 28 27 26 24 23 22 22 21 21 21 22 22 22 22 22 22 22 22 22 23 24 24 24 24 24 24 24 24 24 24 24 24 23 23 23 22 22
37 36 34 33 32 31 30 28 27 26 25 24 24 23 23 23 23 23 23 23 23 24 24 24 24 24 25 26 27 27 27 26 26 27 27 27 27 27 26 26 26 25 25
38 37 36 35 34 32 31 30 29 28 27 26 26 25 25 25 25 24 24 25 25 25 25 26 26 26 27 28 29 30 30 30 29 30 30 30 30 30 30 29 29 28 28
40 39 38 37 35 34 33 32 31 30 29 28 28 28 27 27 27 26 26 26 27 27 27 28 29 29 30 30 31 32 32 32 32 33 33 33 33 33 33 32 32 32 31
41 40 39 38 37 35 34 33 33 32 31 30 30 29 29 29 28 28 28 28 29 29 29 30 31 32 32 33 34 35 35 35 35 36 36 36 37 37 36 36 36 35 35
42 41 40 39 38 37 36 35 34 33 32 32 31 31 31 31 30 30 30 30 31 31 31 32 33 34 35 36 37 37 38 38 38 38 39 39 39 40 40 40 39 39 38
43 42 41 40 39 38 37 36 35 35 34 33 33 33 33 32 32 32 32 32 33 33 34 34 35 36 37 38 39 39 40 40 40 40 41 42 42 42 43 43 43 43 42
43 42 41 40 39 39 38 37 36 35 35 35 34 34 34 34 34 34 34 34 35 35 36 37 37 38 39 40 41 41 42 42 42 43 44 44 44 45 45 45 46 46 46
44 42 41 40 39 39 38 37 37 37 36 36 36 35 35 36 36 36 36 36 37 38 38 39 40 41 41 42 43 44 44 43 44 46 46 47 47 47 47 47 48 48 48
44 44 43 42 41 40 40 39 39 38 38 37 37 37 38 38 38 38 38 38 39 39 40 41 42 42 43 44 44 46 46 46 47 48 48 49 50 50 50 50 50 50 50
44 43 43 42 41 41 41 40 40 39 39 39 39 39 39 39 39 39 40 40 41 41 42 42 43 43 44 45 46 47 48 49 50 50 50 51 52 53 53 53 52 52 52
45 44 43 43 42 42 41 41 40 40 40 40 40 40 40 40 40 41 41 42 42 43 43 43 44 45 45 46 47 48 50 51 51 52 53 53 54 54 55 55 55 55 55
45 45 45 44 43 43 43 42 42 41 41 41 41 41 41 41 42 42 43 43 43 43 44 44 45 45 46 47 48 49 51 52 53 54 55 54 55 55 56 57 57 55 55

GEFSSE_500_meanwind_084.txt.gz
Wind_Speed
16 15 13 12 10 9 8 7 6 5 4 3 3 3 3 4 5 6 6 7 7 7 7 8 8 9 9 9 10 11 11 12 13 13 14 14 15 15 16 16 16 16 17
17 15 14 12 11 10 9 8 7 6 4 4 3 3 4 5 6 7 7 7 7 7 8 8 9 9 10 11 11 11 12 13 14 14 15 15 16 16 16 16 16 16 17
18 16 15 13 12 10 10 8 7 6 5 5 4 4 5 6 7 7 7 7 7 8 8 9 9 10 11 11 12 12 13 14 14 15 15 16 16 16 16 16 16 17 17
19 17 16 14 13 11 10 9 8 6 6 5 5 5 5 6 7 7 8 8 8 9 9 9 10 11 11 12 13 13 14 14 15 15 16 16 16 16 16 16 16 17 16
20 18 17 15 13 12 11 9 8 7 6 5 5 5 6 7 7 8 8 9 9 10 10 10 11 12 12 13 13 14 14 15 15 16 16 17 17 17 17 17 17 16 16
21 19 17 15 14 12 11 10 9 7 7 6 6 6 7 8 8 9 10 10 10 11 11 11 12 12 13 14 14 15 15 16 16 17 17 17 18 18 18 18 17 17 17
23 21 19 17 15 13 12 10 9 8 8 7 7 7 8 9 9 10 11 11 12 12 12 12 13 13 14 15 15 16 17 17 17 18 18 18 18 18 18 18 18 18 18
25 22 21 18 16 14 13 11 10 9 9 8 8 9 9 10 11 12 12 12 12 13 13 13 14 14 15 16 17 17 18 18 19 19 19 19 19 19 19 19 19 19 19
26 23 21 20 17 16 14 12 12 11 11 10 10 10 11 12 12 13 13 13 14 14 14 14 15 16 16 17 18 19 19 19 20 20 20 21 21 21 21 21 21 20 20
27 25 23 21 19 17 16 14 13 13 12 12 12 12 13 13 14 14 14 15 15 15 16 16 16 17 18 18 19 20 20 21 21 22 22 22 22 22 23 23 22 22 22
29 27 24 22 21 19 18 16 15 14 14 14 14 14 15 15 15 15 16 16 16 17 17 18 18 19 19 20 21 22 22 23 23 24 24 24 24 25 25 25 25 25 24
31 29 26 25 23 22 20 19 17 16 16 16 16 16 16 16 17 17 17 18 18 18 19 19 20 20 21 22 23 23 24 25 25 25 26 26 27 27 27 27 27 27 27
34 32 29 27 25 24 22 21 20 19 18 17 17 17 18 18 18 18 18 19 19 20 20 21 21 22 22 23 24 25 26 26 27 27 28 28 28 29 29 29 30 29 29
36 34 31 29 28 26 25 24 22 21 20 20 19 19 19 19 19 20 20 20 21 21 22 22 23 24 24 24 25 26 27 28 28 29 29 30 30 31 32 32 32 32 32
38 36 34 32 30 29 28 26 25 24 23 22 22 22 21 21 21 21 21 22 22 22 23 24 24 25 25 26 27 27 28 29 30 31 31 32 33 33 34 34 34 35 35
39 38 36 34 33 32 30 29 28 27 26 25 24 24 23 23 23 23 23 23 24 24 24 25 26 26 27 28 29 29 30 31 31 32 33 34 35 35 36 36 36 37 37
42 40 38 37 36 34 33 32 31 30 29 28 27 26 26 26 25 25 25 25 26 26 26 27 28 28 29 30 31 31 32 32 33 34 35 35 36 37 37 38 38 39 39
44 42 40 39 38 37 36 35 34 32 31 30 30 29 28 28 28 27 27 27 28 28 28 29 30 30 31 32 33 33 34 34 35 35 36 37 38 39 39 40 40 41 41
45 44 43 41 40 39 39 37 36 35 34 33 32 31 31 31 30 30 29 30 30 30 30 31 32 32 33 34 35 35 36 36 37 37 38 39 39 40 41 41 42 42 43
47 46 45 44 42 42 41 39 38 37 36 35 35 34 33 33 32 32 31 32 32 32 33 33 34 34 35 36 37 37 37 38 38 39 40 40 41 41 42 43 43 44 44
48 47 47 46 44 43 42 41 40 40 39 38 37 36 36 35 34 34 33 34 34 34 35 35 36 36 37 38 38 38 39 39 40 40 41 42 42 43 43 44 44 45 45
50 49 48 47 46 46 45 44 43 42 41 40 39 38 37 37 37 36 36 36 36 36 37 37 38 38 39 40 40 41 40 39 40 41 42 43 43 44 44 45 45 46 47
50 50 50 49 48 47 47 46 45 44 43 42 41 39 39 39 39 38 38 38 38 38 39 39 40 40 40 41 42 43 42 41 41 41 42 43 44 44 45 45 46 47 48
49 50 49 49 49 49 48 47 46 45 44 42 42 41 41 40 40 40 40 40 41 41 41 41 42 42 42 42 43 43 44 44 44 43 42 43 43 43 44 46 47 47 48
49 49 49 49 49 49 48 48 47 46 45 44 43 42 42 42 42 42 42 42 42 42 42 42 43 43 44 44 44 44 44 44 45 45 44 43 43 44 45 46 47 47 48
49 49 49 49 49 49 49 49 48 47 46 45 44 43 43 43 43 43 43 43 43 43 43 43 44 44 44 45 44 44 44 44 44 45 44 43 43 44 45 46 46 47 47

GEFSSE_500_meanwind_090.txt.gz
Wind_Speed
17 16 15 14 13 12 11 10 9 8 8 7 6 5 4 3 2 2 2 3 3 3 4 4 5 6 7 7 8 8 9 10 11 12 13 13 14 15 15 16 16 17 17
18 17 15 14 13 12 11 10 9 8 8 7 6 5 4 3 2 2 2 3 3 3 4 5 5 6 7 7 8 9 10 11 11 12 13 14 15 15 16 16 17 17 17
19 17 16 15 14 12 11 10 10 9 8 7 6 5 4 3 3 3 3 3 3 4 5 5 6 6 7 8 9 10 11 11 12 13 14 15 15 16 17 17 17 17 17
20 18 16 15 14 13 12 11 10 9 8 7 7 6 4 3 3 3 3 3 4 4 5 6 6 7 7 8 9 10 11 12 13 14 15 15 16 17 18 18 18 18 18
22 20 18 16 15 14 12 11 10 9 9 8 7 6 4 3 3 3 3 4 4 5 5 6 6 7 8 9 10 11 12 13 14 15 16 17 17 18 19 19 19 19 19
23 21 19 18 16 14 13 12 11 10 9 8 7 6 5 4 4 4 4 4 5 5 6 6 7 7 8 9 11 12 13 14 15 16 16 17 18 19 19 20 20 20 21
25 22 21 19 17 16 14 13 12 11 10 9 8 7 6 5 4 4 4 5 5 6 6 7 7 8 9 10 11 12 14 15 16 17 18 18 19 20 21 21 21 21 22
26 24 22 20 19 17 16 14 13 12 11 10 9 8 7 6 6 5 5 6 6 6 7 7 8 9 10 11 12 13 15 16 17 18 18 19 20 21 22 22 23 23 23
28 26 23 22 20 19 17 16 15 14 13 11 10 9 8 7 7 7 7 7 7 7 8 8 9 10 11 12 13 14 16 17 18 19 19 20 21 22 23 23 24 24 24
30 27 25 23 22 20 19 17 16 15 14 13 11 10 9 8 8 8 8 8 8 8 9 9 11 12 13 14 15 16 17 18 19 20 21 22 23 24 24 25 25 26 26
31 29 26 25 24 22 21 19 18 16 15 14 13 12 11 10 10 10 10 10 10 10 11 11 12 13 14 15 16 17 19 20 21 22 23 24 24 25 26 26 27 27 27
33 31 29 27 25 24 22 21 20 18 17 16 15 13 12 12 12 11 11 11 11 12 12 13 14 14 15 16 18 19 20 21 23 24 25 25 26 27 27 28 28 29 29
36 34 32 29 28 26 24 23 22 20 19 18 17 15 15 14 14 13 13 13 13 14 14 15 15 16 17 18 19 20 22 23 24 25 26 27 28 29 29 30 30 30 31
39 36 34 32 30 28 27 25 24 22 21 20 19 18 17 16 16 16 16 16 16 16 16 17 17 18 19 20 21 22 23 25 26 27 28 29 30 30 31 31 31 32 32
41 39 36 34 32 31 29 28 26 25 24 23 21 20 19 18 18 18 18 18 18 18 18 19 19 20 21 22 23 24 25 26 27 29 30 31 31 32 32 32 33 33 32
42 41 39 37 35 33 32 30 29 28 26 25 24 23 22 21 21 21 20 20 20 20 21 21 22 22 23 24 25 26 27 28 29 30 31 32 33 33 33 33 33 34 33
44 43 41 39 37 36 35 34 32 31 29 28 27 26 25 24 24 23 23 23 23 23 23 24 24 25 25 26 27 28 29 30 31 32 33 34 34 34 34 35 34 34 34
45 44 43 41 40 39 38 37 36 34 33 31 30 29 28 27 27 26 26 26 26 26 26 26 27 27 28 28 29 29 30 32 32 33 35 35 35 36 36 36 36 36 36
46 45 43 43 42 41 40 40 39 38 36 35 33 32 32 31 30 30 29 29 29 29 29 29 29 30 30 31 31 31 32 33 34 35 36 36 37 37 37 37 37 37 37
48 47 45 44 44 44 43 42 42 41 39 38 37 36 35 34 34 33 33 33 32 32 32 32 32 32 33 33 33 34 34 35 35 36 37 37 38 38 38 38 38 38 39
49 48 48 47 46 46 45 45 44 44 42 41 40 39 39 37 37 36 36 35 35 34 34 34 34 35 35 35 36 36 36 36 37 38 38 38 39 39 39 39 39 40 39
50 49 49 48 47 47 47 47 47 46 45 44 43 43 42 40 40 39 38 38 38 37 37 37 37 37 37 37 38 38 37 37 38 39 40 40 41 41 40 40 40 40 40
52 51 50 49 48 48 49 48 48 48 47 47 46 45 44 43 43 42 41 41 40 40 39 39 39 39 39 39 40 40 40 39 39 38 39 40 41 41 41 41 41 41 41
52 53 52 51 50 50 51 51 50 49 49 49 48 47 47 46 45 45 44 43 43 42 42 41 41 41 41 41 41 41 42 42 42 41 39 39 40 41 41 42 41 41 41
53 52 52 52 52 51 51 52 51 51 51 51 50 49 49 48 47 47 47 46 45 44 43 42 42 43 42 42 42 42 42 43 43 43 41 41 41 41 41 41 41 40 40
53 53 53 53 53 52 52 52 52 52 52 52 52 52 51 50 49 49 48 47 46 46 45 44 44 44 44 43 43 44 44 43 43 43 43 42 41 41 41 41 40 40 40

GEFSSE_500_meanwind_096.txt.gz
Wind_Speed
17 16 15 14 13 12 11 10 10 8 8 7 6 5 5 4 3 3 3 2 2 3 3 3 4 4 5 6 7 8 8 9 10 11 12 13 13 14 15 16 17 18 18
19 17 16 15 14 13 12 11 10 9 8 7 7 6 5 5 4 3 3 2 2 2 2 3 3 4 4 5 6 7 8 9 10 11 12 13 14 14 15 16 17 18 18
20 18 17 16 15 14 13 12 11 10 9 8 7 7 6 5 4 4 3 3 2 2 2 2 3 3 4 5 6 7 8 9 10 11 12 13 14 15 16 17 17 18 18
21 19 18 17 15 14 14 13 12 10 9 9 8 7 7 6 5 4 4 3 3 2 2 2 2 3 4 5 6 7 8 9 10 11 12 13 14 15 16 17 18 19 19
23 21 19 17 16 15 14 13 12 11 10 9 9 8 7 7 6 5 4 4 3 3 2 2 2 3 3 4 5 7 8 9 10 11 12 13 15 16 17 18 19 19 20
24 22 20 19 17 16 15 14 13 12 11 10 10 9 8 7 6 6 5 4 4 3 3 3 2 3 3 4 5 7 8 9 10 12 13 14 15 17 18 19 20 20 21
26 24 22 20 18 17 15 15 14 13 12 11 10 10 9 8 7 6 5 5 4 4 4 3 3 3 4 4 6 7 8 10 11 12 13 15 16 17 19 20 21 21 22
27 25 24 22 20 18 17 16 15 14 13 12 12 11 10 9 8 7 6 5 5 4 4 4 4 4 4 5 6 7 9 10 12 13 15 16 17 19 20 21 22 22 22
29 27 25 23 22 20 18 17 16 15 15 14 13 12 11 10 9 8 7 6 6 5 5 5 5 5 5 6 7 8 10 11 13 14 16 17 18 20 21 22 23 23 23
30 28 26 24 22 21 20 19 18 17 16 15 14 13 12 11 10 10 9 8 7 6 6 6 6 6 7 7 8 10 11 13 14 16 17 18 20 21 22 23 24 24 25
32 30 28 25 24 23 21 21 20 18 17 17 15 14 14 13 12 11 10 9 8 8 8 8 8 8 9 9 10 11 13 14 15 17 18 20 21 22 23 24 25 25 26
34 32 30 27 26 24 23 22 21 20 19 18 17 16 15 14 13 12 11 11 10 10 9 9 10 10 11 11 12 13 14 16 17 19 20 22 23 24 25 26 26 27 27
36 34 32 30 28 26 25 24 23 22 21 20 19 17 17 15 15 14 13 12 12 12 11 11 12 12 13 13 14 16 17 18 19 20 22 23 25 25 26 27 28 29 29
38 36 34 32 30 28 26 25 25 24 23 22 21 20 19 17 17 16 15 15 14 14 14 14 14 14 15 16 17 18 19 20 21 22 23 25 26 27 28 29 29 30 30
40 39 36 34 32 30 29 27 27 26 25 24 23 22 21 20 19 18 18 17 17 16 16 16 16 17 17 18 19 20 21 22 23 24 25 27 28 29 29 30 31 31 31
43 41 38 36 34 32 31 29 29 28 27 26 25 24 23 22 21 21 20 20 19 19 19 19 19 19 20 21 21 22 23 24 25 26 27 29 30 31 31 31 32 32 32
45 43 41 39 37 35 33 32 30 29 29 28 28 27 26 25 24 23 23 22 22 21 21 21 22 22 23 23 24 25 25 26 27 28 30 31 32 32 33 33 33 33 33
46 45 43 42 39 37 36 34 33 31 31 31 30 30 29 28 27 27 26 25 24 24 24 24 24 25 25 26 26 27 28 29 30 31 32 33 33 33 34 34 34 35 35
48 47 45 43 41 40 38 37 36 34 34 33 33 32 32 31 31 30 29 28 28 27 27 27 27 28 28 28 29 29 30 31 32 33 33 34 35 35 35 36 36 36 36
50 49 47 45 43 42 41 40 39 38 36 36 35 35 35 35 34 33 32 32 31 31 31 30 30 31 31 31 31 32 32 33 34 34 35 36 37 37 37 38 37 37 37
52 50 49 47 46 44 43 41 40 39 39 38 38 38 38 37 37 37 36 36 35 34 34 34 34 33 33 34 34 34 35 35 36 36 37 38 38 39 40 40 39 39 38
53 52 51 50 48 47 45 44 43 42 42 41 41 40 40 39 39 39 39 38 38 38 38 38 37 37 37 37 38 38 37 37 37 37 38 39 40 41 41 41 41 41 40
54 53 52 51 50 49 48 47 46 45 44 43 42 42 42 42 42 41 41 41 41 41 41 41 41 40 40 40 40 41 41 40 39 38 39 40 41 41 42 42 42 41 41
53 53 53 52 52 51 49 48 47 46 45 44 44 44 43 43 44 43 43 43 44 44 43 44 44 44 43 43 43 43 43 43 43 42 41 41 41 41 42 42 42 41 40
53 53 53 52 52 51 51 49 49 49 48 47 46 46 45 45 45 45 45 45 45 45 45 45 46 46 46 45 45 44 44 44 45 45 44 43 43 42 42 42 41 40 40
53 53 53 53 53 52 52 52 51 51 50 50 49 49 48 47 47 48 48 47 47 47 47 48 48 48 47 47 47 47 46 46 46 46 46 45 44 43 43 42 41 40 40

GEFSSE_500_meanwind_102.txt.gz
Wind_Speed
19 17 15 13 12 10 9 8 7 7 7 7 7 7 6 5 5 5 4 4 4 4 3 2 2 2 2 2 2 3 4 5 6 7 8 8 9 10 12 13 14 14 15
21 19 17 15 13 12 10 9 9 8 8 8 8 7 7 6 6 6 5 5 4 4 3 3 2 2 1 1 1 2 3 4 5 6 7 8 9 11 12 13 14 14 15
22 20 18 16 15 13 12 11 10 9 9 9 9 8 8 7 7 6 6 5 5 4 4 3 2 2 1 1 0 1 2 3 4 5 6 8 9 11 12 13 14 14 15
24 22 19 17 16 15 13 12 11 11 10 10 9 9 9 8 8 7 7 6 5 5 4 4 3 3 2 1 1 1 2 3 4 5 6 8 9 11 12 13 14 15 16
25 23 21 19 17 16 14 13 12 12 11 11 10 10 10 9 9 8 7 7 6 6 5 5 4 3 3 2 1 1 2 3 4 5 6 8 9 11 12 13 14 15 16
26 25 23 21 19 17 16 14 13 13 12 12 12 11 11 10 10 9 8 8 7 7 6 5 5 4 4 3 2 2 2 3 4 5 7 8 9 11 12 14 15 16 17
28 26 24 22 20 19 17 16 15 14 13 13 13 13 12 12 11 10 9 8 8 7 7 6 5 5 4 4 3 3 3 4 5 6 7 8 10 11 13 15 16 17 18
29 27 25 23 21 20 18 17 16 15 14 14 14 14 13 13 12 11 10 9 9 8 7 7 6 6 6 5 4 4 4 5 5 7 8 9 11 12 14 15 17 18 19
31 28 26 24 22 21 20 18 18 17 16 15 15 15 14 14 13 12 12 10 10 9 8 8 7 7 6 6 6 5 6 6 7 8 9 10 12 13 15 16 18 19 20
32 30 28 26 24 22 21 20 19 18 17 16 16 16 16 15 15 14 13 12 11 10 9 9 8 8 7 7 7 7 7 8 9 9 10 12 13 15 16 17 19 20 21
33 31 29 27 26 24 22 21 21 19 18 18 18 17 17 17 16 15 15 13 12 11 11 10 10 9 9 9 9 9 9 10 10 11 12 13 15 16 18 19 20 21 22
33 32 31 29 27 25 24 23 22 21 20 20 19 19 18 18 17 16 16 15 14 13 12 12 11 11 11 11 11 11 11 12 12 13 14 15 16 18 19 20 22 23 24
36 35 33 30 28 27 25 24 24 23 22 21 20 20 20 19 19 18 17 16 15 15 14 14 13 13 13 12 12 13 13 14 14 15 16 17 18 20 21 22 23 25 25
38 36 34 32 30 28 27 25 25 24 23 23 22 21 21 21 20 19 19 18 17 16 16 15 15 15 15 14 15 15 15 16 17 17 18 19 20 21 23 24 25 26 27
40 38 35 33 32 30 28 27 26 26 25 24 23 23 23 22 22 21 20 20 19 18 18 18 17 17 17 17 17 17 18 18 19 20 21 21 22 24 25 25 26 27 28
41 39 36 35 34 32 31 29 28 27 26 25 25 24 24 24 23 23 22 22 21 21 21 20 20 20 20 20 20 20 20 21 22 22 23 24 25 26 27 28 28 29 30
43 41 39 38 36 35 34 32 30 28 27 26 26 25 25 25 25 25 25 24 24 23 23 23 23 22 22 22 22 23 23 24 24 25 25 26 27 28 29 30 31 31 32
45 44 43 41 39 37 36 34 32 31 29 28 27 27 27 26 26 27 27 27 26 26 26 26 26 25 25 25 25 25 26 26 27 27 28 29 30 31 31 32 32 33 33
48 46 45 43 41 40 38 37 35 33 31 30 29 29 28 28 28 28 29 29 29 29 29 29 28 28 28 28 28 28 29 29 30 30 31 31 32 33 33 34 34 35 35
49 48 46 45 44 43 42 40 39 36 34 33 32 31 31 30 30 31 31 31 31 31 31 31 31 31 30 30 31 31 31 32 33 34 34 34 35 35 35 36 36 36 36
50 49 47 47 45 44 44 42 41 38 36 35 34 34 34 33 33 32 33 33 33 33 33 33 33 33 33 33 33 34 34 35 35 36 36 37 38 38 38 38 37 37 37
50 49 49 48 47 44 44 43 42 41 39 38 37 36 35 35 35 35 35 35 35 36 36 36 36 36 37 37 37 37 36 36 36 37 38 39 39 39 39 39 39 39 39
51 50 48 48 48 46 45 45 44 43 42 41 40 39 38 37 37 37 37 37 37 37 37 37 37 37 38 39 39 38 38 38 38 39 39 39 40 40 40 40 40 40 40
52 52 51 50 49 49 47 46 45 45 43 42 41 41 40 40 40 40 40 40 39 39 39 39 39 39 39 39 39 40 40 41 40 41 40 41 41 41 41 41 41 40 40
50 51 52 51 50 50 48 47 47 47 45 45 44 44 44 43 43 42 42 42 41 41 42 42 42 41 41 41 42 43 43 44 44 44 43 43 43 42 42 42 41 41 41
50 50 51 51 51 50 49 48 48 47 46 46 46 46 46 46 45 45 45 44 44 44 43 43 43 43 43 43 44 45 46 46 45 46 46 45 44 44 43 43 42 42 42

GEFSSE_500_meanwind_108.txt.gz
Wind_Speed
24 22 19 17 15 14 12 11 11 10 8 7 6 6 5 4 4 3 3 3 4 4 4 4 3 3 2 2 2 2 2 3 4 4 5 6 7 8 10 11 12 13 14
26 24 21 19 17 15 14 13 12 11 9 8 7 6 6 5 5 4 4 4 4 4 4 3 3 3 3 2 1 1 2 2 3 3 4 5 7 8 9 11 12 13 14
27 25 23 21 19 17 16 14 13 12 11 9 8 8 7 7 6 5 5 4 4 4 4 4 4 3 3 2 1 1 1 1 2 3 4 5 7 8 9 11 12 13 14
29 26 24 22 20 19 17 16 14 13 12 11 9 9 8 8 7 6 6 5 5 5 5 4 4 4 3 3 2 2 2 2 2 3 4 5 7 8 9 10 12 13 14
30 28 26 24 22 20 19 17 16 14 13 12 11 10 9 8 8 7 6 6 6 6 6 5 4 4 4 4 3 3 3 3 3 4 5 6 7 8 10 11 12 14 15
32 29 27 25 23 21 20 19 17 15 14 13 12 11 10 9 9 8 7 7 7 7 6 6 5 5 5 5 4 4 4 4 4 5 6 7 8 9 10 12 13 14 16
33 31 29 27 25 23 21 20 19 17 15 14 13 13 12 11 10 9 9 8 8 8 7 7 6 6 6 6 6 5 5 5 6 6 7 8 9 10 11 12 14 15 16
35 33 31 29 26 25 23 21 20 18 17 16 14 14 13 12 12 11 10 9 9 9 8 8 7 7 7 7 7 7 7 7 7 8 8 9 10 11 12 14 15 16 17
36 34 32 30 27 26 24 23 21 20 18 17 16 15 14 13 13 12 11 11 10 10 9 9 8 8 8 8 8 8 8 8 9 9 10 10 11 12 14 15 16 17 18
38 36 34 31 29 27 25 24 23 21 20 18 17 16 15 15 14 13 13 12 12 11 11 10 10 10 9 10 10 10 10 10 10 11 11 12 13 14 15 16 17 18 20
39 37 35 32 30 28 26 25 23 22 21 19 18 17 16 16 15 15 14 14 13 13 12 12 12 11 11 11 11 11 12 12 12 12 13 14 14 15 16 17 19 20 21
40 38 36 34 31 29 27 26 24 23 22 21 20 19 18 17 16 16 16 15 15 14 14 14 13 13 13 13 13 13 14 14 14 14 15 15 16 17 18 19 20 21 22
41 39 38 36 33 30 28 26 25 24 23 21 21 20 19 18 18 17 17 17 16 16 16 16 15 15 15 15 15 15 15 16 16 16 16 17 18 19 20 21 22 23 24
42 40 39 37 34 31 29 27 26 25 24 23 22 21 20 20 19 18 18 18 18 18 18 18 17 17 17 17 17 17 17 18 18 18 19 19 20 21 22 23 24 25 26
43 42 40 37 34 32 30 28 27 26 25 24 23 22 22 21 21 20 20 20 20 20 19 19 19 19 19 19 19 19 20 20 20 21 21 22 22 23 24 25 26 27 28
45 42 41 38 36 34 31 30 28 28 27 25 24 24 23 23 22 22 21 21 21 21 21 21 21 21 21 21 22 22 22 23 23 23 23 24 25 25 26 27 29 29 30
45 43 42 41 39 36 34 32 30 29 28 27 26 25 24 24 24 23 23 23 22 23 23 23 23 23 23 24 24 24 25 25 25 25 26 26 27 28 28 29 30 31 32
45 44 42 41 41 39 37 35 33 31 30 29 28 27 26 25 25 25 24 24 24 24 24 25 25 25 25 26 26 27 27 27 28 28 28 29 29 30 31 31 32 33 34
46 45 42 43 43 41 40 38 35 34 33 31 30 29 28 28 27 27 26 26 26 26 27 27 27 27 28 28 29 29 29 29 30 30 31 31 32 32 33 33 34 34 35
47 46 44 42 44 43 42 40 39 37 35 34 33 32 30 29 29 29 28 28 28 28 29 29 29 30 30 31 31 31 31 32 33 33 33 34 34 35 35 35 36 36 37
49 48 48 45 44 43 42 41 40 38 37 36 36 34 33 32 31 31 30 30 30 30 30 31 31 32 33 33 33 33 33 34 34 35 35 35 36 36 36 37 37 37 38
50 49 48 49 46 44 43 42 41 40 39 39 38 37 36 35 34 33 32 32 32 32 33 33 34 34 34 35 35 35 34 34 35 35 36 37 37 38 38 38 39 40 40
51 51 50 49 47 44 44 45 44 42 41 40 40 38 38 37 35 35 35 35 35 34 35 36 36 36 36 37 37 36 36 35 34 35 36 37 39 39 40 40 41 42 42
49 50 50 49 49 46 45 46 45 44 42 41 41 40 41 40 39 37 37 37 36 36 36 37 38 38 37 37 37 38 38 37 38 37 38 39 40 41 42 42 43 43 43
50 50 49 49 48 48 48 47 45 45 44 43 42 41 41 40 40 40 40 39 38 38 37 38 38 38 39 39 39 39 39 40 41 41 40 40 40 41 42 44 44 43 43
52 51 49 49 49 48 48 46 45 46 45 45 44 44 44 43 42 42 40 39 39 38 38 38 39 40 40 41 41 41 42 42 43 43 42 41 41 43 44 44 44 44 44

GEFSSE_500_meanwind_114.txt.gz
Wind_Speed
29 27 25 23 21 20 18 16 15 14 13 12 11 10 9 8 7 6 5 3 2 1 1 0 0 1 1 1 1 1 1 2 2 2 3 4 5 6 7 8 10 11 12
31 29 27 25 23 21 20 18 16 15 14 13 12 11 10 9 8 7 6 4 3 2 1 1 1 0 0 0 1 1 1 1 0 1 2 3 5 6 7 8 10 11 12
33 31 29 27 25 23 21 20 18 17 15 14 13 12 12 11 9 8 7 6 4 3 2 2 2 2 1 1 1 1 1 1 1 1 2 3 5 6 7 8 10 11 12
35 33 31 29 27 25 23 22 20 18 17 16 14 13 13 12 10 9 8 7 5 4 4 3 3 3 2 2 2 2 2 3 2 2 3 4 5 7 8 9 10 11 12
37 35 33 31 29 27 25 23 22 20 19 17 16 15 14 13 12 10 9 8 7 6 5 4 4 4 3 3 4 4 4 4 4 4 4 5 6 7 8 9 11 12 13
39 37 35 33 31 29 27 25 23 21 20 19 17 16 15 14 13 12 11 9 8 7 6 5 5 5 5 5 5 5 5 5 5 5 6 6 7 9 10 11 12 13 14
41 39 37 35 33 31 29 27 25 23 22 20 19 18 16 15 15 13 12 11 9 8 7 7 7 6 6 6 6 6 6 6 6 7 7 8 9 10 11 12 13 14 15
43 41 39 37 35 32 30 28 26 25 23 21 20 19 18 17 16 15 14 12 11 10 9 8 8 7 7 7 7 7 7 7 8 8 9 9 10 11 12 13 14 15 16
44 43 41 39 37 34 32 30 28 26 24 23 22 20 19 18 17 16 15 14 13 12 11 10 9 9 8 8 8 8 8 8 9 10 10 10 11 12 13 14 15 16 17
46 44 43 40 38 36 33 32 30 27 26 24 23 22 20 19 18 18 17 16 14 13 12 11 10 10 10 9 9 9 9 10 10 11 11 12 13 13 14 15 16 17 18
48 46 44 42 40 38 35 33 31 29 27 26 25 23 22 21 20 19 18 17 16 15 14 13 12 12 11 11 11 11 11 11 12 12 13 14 14 15 16 17 18 19 20
49 48 46 44 42 40 37 35 33 31 29 28 26 25 24 22 21 20 19 18 18 17 16 15 14 13 13 13 13 13 13 13 13 14 15 15 16 17 18 19 20 21 21
51 49 48 46 44 41 39 37 35 33 31 29 28 26 25 24 23 22 21 20 19 18 17 16 16 15 15 15 15 15 15 15 15 16 17 17 18 19 19 20 21 22 23
53 50 48 47 45 42 40 39 36 34 32 31 29 28 27 26 25 23 22 22 21 20 19 18 17 17 17 17 17 17 17 17 17 18 18 19 20 21 22 22 23 24 25
54 52 51 48 46 44 42 40 38 35 34 33 31 29 28 27 26 25 24 23 22 21 21 20 19 19 19 19 19 19 19 19 19 19 20 21 22 22 23 24 25 26 27
53 54 52 50 48 46 43 41 39 37 36 34 33 31 30 29 28 26 25 24 24 23 22 22 21 21 20 20 20 20 20 20 21 21 22 23 24 25 26 26 27 28 29
51 53 52 50 49 47 45 43 41 39 38 36 34 33 32 30 29 28 27 26 25 24 24 24 23 23 22 22 22 22 22 22 23 23 24 25 26 27 28 28 29 30 31
51 52 51 50 48 48 46 45 43 42 40 38 36 35 33 32 31 30 29 28 27 26 26 25 25 25 24 24 24 24 24 24 25 26 27 28 28 29 29 30 31 32 32
50 50 50 49 48 48 47 46 45 44 43 41 39 37 35 34 33 32 30 30 29 29 28 27 27 26 26 25 26 26 26 26 27 28 29 29 30 30 31 32 32 33 33
50 50 50 50 50 48 47 46 46 46 44 42 41 39 38 36 35 33 32 31 31 30 30 30 29 28 28 27 27 27 28 28 29 30 31 31 32 32 32 32 33 33 34
49 52 51 51 51 50 48 47 47 47 46 44 43 41 40 38 37 35 34 34 33 33 32 31 30 30 30 30 30 30 30 30 31 32 32 32 33 33 33 34 34 35 35
49 52 50 51 52 51 51 49 48 47 47 46 45 44 42 40 39 37 37 36 36 35 34 32 32 32 32 32 32 32 32 32 32 32 33 33 33 33 33 34 35 36 37
50 52 50 49 51 51 51 49 49 48 49 48 46 45 43 42 41 40 39 39 38 37 36 35 35 34 34 34 33 33 33 33 32 33 33 34 34 35 36 37 38 38 39
49 49 51 50 48 48 50 48 48 47 47 46 46 47 45 44 43 42 41 40 39 39 38 37 37 37 37 36 36 35 34 34 34 34 35 36 36 37 38 38 39 39 40
50 50 50 51 50 48 50 49 49 48 47 47 48 48 48 47 46 44 42 40 40 40 40 40 40 39 38 38 37 35 35 35 35 35 35 36 37 37 38 38 39 40 40
49 48 49 51 52 50 49 49 49 47 46 47 47 47 46 46 46 45 45 43 42 41 40 40 39 39 38 37 36 35 35 36 35 35 36 36 37 37 38 39 40 41 42

GEFSSE_500_meanwind_120.txt.gz
Wind_Speed
32 31 29 28 26 24 22 20 19 17 16 15 14 12 11 11 10 9 8 6 5 4 3 2 2 2 2 2 2 2 2 2 1 2 2 3 5 6 7 8 9 10 11
35 34 32 30 28 26 24 22 20 19 17 16 15 14 13 12 11 10 9 8 6 5 4 4 3 3 3 3 2 2 2 1 1 1 2 3 4 5 7 8 9 10 12
37 36 34 32 30 28 27 24 22 20 19 17 16 15 14 14 13 12 11 9 8 7 6 5 4 4 3 3 3 3 2 2 1 1 2 3 4 5 7 8 9 11 12
39 38 36 34 32 30 28 27 24 22 21 19 18 17 16 15 14 13 12 11 9 8 7 6 5 5 4 4 4 3 3 3 3 3 3 4 4 6 7 8 9 11 12
40 39 38 36 34 32 30 29 26 24 23 21 19 18 17 16 15 14 13 12 11 9 8 7 6 6 5 5 5 5 4 4 4 4 4 5 5 7 8 9 10 11 12
42 41 40 38 36 34 32 30 29 26 25 23 21 19 18 17 16 16 15 14 12 11 10 9 8 7 7 6 6 6 6 5 5 5 5 6 7 8 8 9 11 12 13
44 42 42 40 39 37 35 32 31 29 27 25 23 21 20 19 18 17 16 15 13 12 11 10 9 9 8 8 7 7 7 7 6 6 7 7 8 8 9 10 12 13 14
43 43 43 42 41 39 37 35 32 31 29 28 25 23 22 21 20 18 17 16 15 14 13 11 10 10 9 9 9 8 8 8 8 8 8 8 9 9 10 11 13 14 15
46 45 44 44 43 41 39 37 35 33 31 30 27 25 24 23 21 20 19 18 17 16 14 13 12 11 11 10 10 10 9 9 9 9 9 9 10 11 12 13 14 15 16
48 47 46 45 44 43 41 39 37 35 33 31 30 27 26 24 23 22 21 20 18 17 16 15 14 13 13 12 12 11 10 10 10 10 10 11 12 12 13 14 15 16 17
49 49 47 47 47 45 43 41 39 37 35 33 32 30 28 26 25 23 22 21 20 19 18 17 16 15 15 14 13 13 12 12 12 12 12 12 13 14 14 15 16 17 18
50 49 48 47 48 47 46 44 41 39 37 35 34 32 30 28 26 25 24 23 21 20 19 18 17 17 16 16 15 15 14 14 14 14 14 14 15 15 16 17 18 19 20
52 50 50 50 49 49 48 46 44 42 39 37 35 34 32 30 28 27 26 24 23 22 21 20 19 19 18 17 17 16 16 16 16 16 16 16 16 17 17 18 19 20 22
53 51 51 52 51 51 50 48 46 44 42 40 37 36 34 32 30 28 27 26 25 24 23 22 21 20 20 19 18 18 18 18 17 18 18 18 18 18 19 19 21 22 23
55 54 52 53 52 51 50 50 48 46 45 42 40 38 36 34 32 30 29 28 27 25 25 23 23 22 21 20 20 20 19 19 19 19 19 20 20 20 20 21 22 23 24
57 55 53 53 53 52 52 51 50 48 47 45 42 40 38 36 34 32 31 30 29 28 27 25 24 24 23 22 22 21 21 21 21 21 21 21 21 22 23 23 24 25 25
58 56 54 55 54 54 52 52 51 49 48 47 44 42 40 38 36 35 33 32 31 30 28 27 26 25 24 23 23 23 22 22 22 23 23 23 24 24 24 25 25 26 26
57 56 55 54 55 53 53 52 52 51 50 48 45 43 41 39 38 37 35 34 32 31 30 28 27 27 26 25 25 24 23 24 24 24 25 26 26 26 26 27 27 27 27
55 57 55 54 54 53 53 52 50 50 51 48 46 44 42 40 39 37 36 35 34 33 31 30 29 28 27 27 26 26 25 25 26 27 28 28 28 28 28 28 28 28 29
53 55 56 55 54 53 52 52 50 50 50 49 47 45 44 42 40 39 37 36 36 34 33 32 31 30 30 29 29 28 28 28 28 29 30 30 30 30 30 30 30 30 31
53 54 55 54 52 51 51 50 49 49 49 50 49 48 45 44 42 41 40 39 37 36 35 35 34 33 32 32 32 31 31 31 30 30 31 32 32 31 31 31 31 31 31
50 52 51 52 52 51 49 49 48 47 48 49 49 48 47 46 44 42 41 40 39 38 38 37 36 35 34 34 33 33 32 32 32 32 32 32 32 32 31 31 32 32 31
47 50 50 49 52 52 50 49 50 49 49 48 48 49 48 47 45 44 43 43 42 41 40 38 37 36 37 35 34 34 33 34 33 33 34 33 33 33 32 32 33 33 33
45 46 45 48 50 51 50 50 49 50 48 47 47 47 48 47 45 46 46 45 44 43 42 40 39 39 38 37 37 36 36 36 35 34 35 34 34 34 34 34 34 34 35
42 44 42 45 49 50 48 48 47 49 48 48 48 48 48 47 47 47 47 47 46 45 44 43 42 41 40 39 38 38 37 36 36 36 36 35 35 35 35 34 34 35 36
38 41 43 42 45 48 49 47 48 48 46 46 47 48 48 48 48 48 48 48 48 47 45 44 43 43 41 40 39 39 37 37 37 37 37 36 35 35 34 34 35 35 36

GEFSSE_500_meanwind_126.txt.gz
Wind_Speed
32 31 29 28 27 25 24 21 20 18 16 15 14 13 12 11 10 9 8 8 7 6 5 5 5 5 4 4 4 4 3 3 2 1 0 1 2 3 4 6 7 8 9
33 33 32 30 29 28 26 24 22 20 19 17 16 15 14 13 12 11 10 9 8 7 7 6 6 5 5 5 5 5 4 4 3 2 2 2 2 3 4 6 7 8 9
34 34 33 32 31 30 28 27 25 23 21 19 18 17 15 14 13 12 12 10 10 9 8 8 7 6 6 6 6 6 5 5 4 4 3 3 3 4 5 6 7 8 9
35 35 35 34 33 32 31 29 27 25 24 22 20 18 17 16 15 14 13 12 11 10 10 9 8 7 7 7 7 7 6 6 5 5 4 4 4 5 5 6 7 8 10
37 36 36 36 34 34 33 31 30 27 26 24 22 21 19 18 17 16 15 14 13 12 11 11 9 9 8 8 8 8 8 7 7 6 6 6 6 6 6 7 8 9 10
39 38 38 38 36 36 35 33 32 30 28 26 25 23 21 19 18 17 16 16 15 14 13 12 11 10 10 9 9 9 9 8 8 8 7 7 7 7 8 8 9 10 11
40 40 40 40 38 37 36 36 34 32 30 28 27 25 23 21 20 19 18 17 16 15 14 14 13 12 11 11 10 10 10 10 10 9 9 9 9 9 9 10 10 11 12
42 42 41 42 41 40 38 37 36 35 32 31 29 27 25 23 22 20 19 18 18 17 16 15 14 13 12 12 12 12 11 11 11 11 10 10 10 10 10 11 12 12 13
43 42 42 43 43 42 40 39 38 37 35 33 31 30 28 26 24 22 21 20 19 19 18 17 16 15 14 13 13 13 13 13 12 12 12 12 11 12 12 12 13 13 14
45 44 43 43 45 45 43 41 40 39 37 36 34 32 30 28 26 25 23 22 21 20 19 19 18 17 16 15 15 15 14 14 13 13 13 13 13 13 13 14 14 15 16
46 46 46 44 45 47 46 44 43 41 39 38 36 35 32 30 28 27 25 24 23 22 21 20 19 18 17 17 16 16 16 15 15 15 15 14 15 15 15 15 16 16 17
47 48 47 46 46 48 48 46 45 44 42 40 38 37 35 33 31 29 27 26 25 24 22 22 21 20 19 18 18 18 18 17 17 17 17 16 16 17 17 17 17 18 19
49 50 49 49 49 48 49 47 46 45 44 42 40 39 37 35 33 31 29 28 27 26 24 23 22 22 21 20 20 20 19 19 19 19 18 18 18 18 18 19 19 19 20
51 51 51 51 51 51 50 49 47 46 46 44 42 41 39 37 35 33 32 30 29 28 27 25 25 24 23 22 21 21 21 21 21 21 20 20 20 20 20 20 20 21 21
52 52 52 52 52 53 53 51 49 47 47 45 44 42 41 39 37 35 33 32 31 30 29 27 26 25 25 24 23 23 23 22 22 22 22 22 22 22 22 22 22 22 23
53 53 53 53 53 54 54 52 50 48 47 47 46 44 43 41 39 38 36 34 33 32 31 29 28 27 26 25 25 24 24 24 24 24 23 23 23 23 23 23 24 24 24
55 55 54 53 54 56 55 54 53 50 49 49 48 47 45 43 42 40 38 37 35 34 33 31 30 29 28 27 27 26 26 26 26 25 25 25 25 24 25 25 25 26 26
57 57 56 54 54 56 57 56 54 52 50 50 49 48 47 46 44 43 41 39 37 36 34 33 31 31 30 29 29 28 28 28 27 27 27 27 27 27 27 27 27 28 28
55 57 55 56 54 55 57 57 55 54 52 51 51 51 49 48 46 44 42 40 39 38 36 35 33 32 32 31 30 30 30 29 29 29 29 29 29 29 29 29 29 29 29
52 53 53 54 57 57 57 57 57 55 53 52 52 51 50 49 49 47 44 42 41 39 38 37 36 35 34 33 32 32 32 31 31 31 31 31 32 31 31 31 31 30 30
50 52 52 51 53 55 56 57 60 57 55 53 52 53 53 51 50 48 45 44 42 41 40 39 38 37 36 35 35 34 34 34 34 33 32 33 33 33 33 32 32 32 31
48 48 51 51 52 53 54 55 58 58 55 54 52 53 52 51 52 49 48 46 45 44 43 42 41 39 39 37 37 37 36 35 35 34 34 34 33 33 33 33 33 33 33
42 44 46 49 50 51 51 52 55 57 55 53 53 52 52 51 51 49 48 47 47 46 45 44 43 42 41 40 39 39 38 37 36 35 35 34 34 34 35 35 34 34 34
37 39 41 43 45 48 51 51 52 53 54 53 52 52 52 51 49 49 49 49 49 47 46 46 45 44 44 42 41 40 39 39 38 37 36 35 35 36 36 36 36 35 34
34 36 39 40 41 45 48 49 51 52 53 53 53 52 52 52 50 49 51 50 50 49 48 48 47 45 45 44 42 41 41 41 40 39 38 37 37 37 37 37 36 36 36
29 33 37 38 40 43 45 47 49 51 52 52 52 52 52 53 52 51 51 51 51 50 50 50 49 47 46 45 44 44 44 43 42 41 39 39 39 39 39 37 37 37 38

GEFSSE_500_meanwind_132.txt.gz
Wind_Speed
29 29 29 28 27 25 24 23 22 19 17 15 13 12 10 9 8 7 6 6 5 5 4 4 4 4 4 4 4 4 3 3 3 3 4 4 4 5 6 7 7 9 10
31 30 30 30 29 28 26 25 24 22 20 18 16 14 12 11 10 9 8 7 7 6 5 5 5 5 5 5 5 5 5 5 4 4 4 5 5 5 6 7 8 9 10
32 31 31 30 30 29 29 27 26 25 23 21 19 17 15 13 12 10 10 9 8 8 7 7 7 6 6 6 6 6 6 6 6 5 5 6 6 6 7 7 8 9 10
33 33 32 32 31 31 30 29 28 27 25 23 21 19 18 16 14 12 11 11 10 9 9 8 8 7 7 7 7 7 7 7 7 7 7 7 7 7 8 8 9 10 11
35 34 34 33 32 32 31 30 30 29 27 26 23 22 20 18 16 15 13 13 12 11 10 10 9 9 8 8 8 8 8 8 8 8 8 8 8 9 9 9 10 11 12
37 36 35 34 34 34 33 32 31 31 30 28 26 24 23 21 19 17 16 15 14 13 12 12 11 11 10 9 9 9 9 9 9 9 9 9 10 10 10 10 11 11 12
40 38 37 36 36 35 35 33 33 32 31 30 29 27 25 23 21 20 18 17 16 15 14 13 13 12 11 11 11 10 10 10 10 11 11 11 11 11 11 12 12 13 13
42 40 39 38 37 37 36 35 34 33 33 32 31 30 28 26 24 22 20 19 17 16 15 15 14 14 13 13 12 12 12 12 12 12 12 12 12 12 13 13 13 14 15
45 43 41 40 39 39 38 37 36 35 34 34 33 32 30 28 27 25 22 20 19 18 17 16 16 15 15 14 14 14 14 13 13 13 13 13 14 14 14 14 15 15 16
47 45 44 42 41 40 40 39 39 37 36 35 35 34 32 31 29 27 25 23 21 20 19 18 17 17 17 16 15 15 15 15 15 15 15 15 15 15 15 16 16 17 17
49 48 47 45 44 42 41 41 41 40 38 37 36 36 35 33 32 30 28 25 23 22 21 20 19 19 18 18 17 16 16 16 16 16 16 16 16 17 17 17 18 18 19
51 50 49 48 46 45 43 43 42 42 41 39 38 38 37 35 34 32 30 28 26 24 22 21 21 21 20 20 19 18 18 18 18 18 18 18 18 18 19 19 19 20 20
52 51 51 50 49 47 46 44 44 44 43 41 40 40 39 37 36 35 33 30 28 27 25 24 23 22 22 22 21 20 20 19 19 19 19 19 19 20 20 20 21 21 21
52 52 52 51 50 49 47 46 46 46 45 44 42 42 41 40 38 36 35 33 31 29 28 27 25 24 24 24 23 22 22 21 21 21 21 21 21 21 22 22 22 22 22
53 53 52 52 51 49 47 47 48 48 47 46 45 44 43 42 41 39 37 35 33 31 30 29 28 26 26 26 25 24 23 23 22 22 22 22 23 23 23 23 23 23 23
53 53 53 53 52 52 50 49 48 48 49 48 46 46 45 44 42 41 40 38 36 34 33 32 30 29 27 27 26 26 25 25 24 24 24 24 24 25 25 25 25 25 25
52 52 52 53 52 52 51 51 50 51 52 51 48 47 47 46 45 43 42 41 38 36 35 33 32 31 29 28 28 27 27 26 25 25 25 26 26 26 26 27 27 27 27
51 51 51 52 52 52 52 51 51 51 52 52 50 49 49 48 47 46 44 42 41 39 37 35 34 33 32 31 30 30 29 29 28 27 28 28 28 28 28 28 29 29 29
48 49 50 52 54 53 52 50 51 52 53 53 52 51 50 49 48 47 46 44 43 41 39 38 37 36 34 33 32 31 31 31 30 30 29 29 29 29 30 30 31 31 31
47 47 48 50 52 53 53 53 54 53 54 54 53 52 51 51 49 49 48 46 45 43 42 40 39 38 37 36 35 34 34 33 33 32 32 31 31 31 32 32 33 32 32
44 46 48 50 50 50 52 54 54 55 54 55 55 53 52 52 51 49 49 48 47 45 43 43 42 41 39 38 38 37 37 36 35 34 34 34 34 34 34 34 34 34 34
40 43 45 48 48 48 48 50 52 54 55 55 56 54 53 53 52 51 50 50 49 47 46 45 44 43 42 42 41 41 40 38 37 37 36 36 36 36 36 36 36 36 35
37 39 41 43 44 45 46 48 50 51 53 55 56 55 55 54 55 54 52 51 50 49 47 46 46 45 44 45 44 43 42 41 40 39 38 38 38 38 38 38 38 37 37
33 36 39 40 40 40 42 45 46 48 48 51 53 54 54 54 55 54 53 52 52 51 49 48 48 47 47 47 47 46 46 44 44 42 41 41 40 40 40 39 40 39 39
29 32 34 36 38 38 39 43 45 46 48 50 51 53 54 54 55 55 54 53 52 51 50 49 49 49 48 48 48 47 47 47 46 45 43 43 42 42 41 41 41 41 40
26 30 31 31 33 35 37 39 43 45 45 47 49 49 51 52 53 54 54 54 53 53 53 52 50 50 49 49 49 49 49 48 47 47 46 46 45 44 44 43 43 42 42

GEFSSE_500_meanwind_138.txt.gz
Wind_Speed
26 26 25 24 23 23 23 22 22 21 20 19 17 15 13 12 11 10 9 7 6 5 5 4 4 3 3 3 2 2 2 2 2 2 3 3 4 5 5 6 7 8 9
28 27 27 26 26 25 25 25 24 23 23 21 19 17 16 14 13 12 11 9 8 7 6 6 5 5 4 4 4 3 3 3 3 3 3 4 4 5 6 7 7 8 9
30 29 29 28 27 27 26 26 25 25 24 23 22 20 18 17 15 14 12 11 10 9 8 7 7 6 5 5 5 5 5 5 4 4 4 5 5 6 6 7 8 9 10
32 31 30 30 29 28 28 28 27 26 26 25 24 23 21 19 18 16 14 13 12 11 9 9 8 8 7 6 6 6 6 6 6 6 6 6 6 7 7 8 8 9 10
35 34 33 32 31 30 29 29 29 28 27 26 26 25 23 22 20 18 17 15 14 13 11 10 10 9 9 8 7 7 7 7 7 7 7 7 7 8 8 9 9 10 11
38 37 35 34 33 32 32 31 30 30 29 28 27 26 25 24 22 21 19 18 16 15 14 12 12 11 10 10 9 8 8 8 8 8 8 9 9 9 9 10 10 11 12
41 40 38 37 36 34 34 33 32 31 31 30 29 28 27 26 25 23 21 20 19 17 16 15 14 13 12 12 11 10 9 9 9 10 10 10 10 10 11 11 11 12 12
44 43 41 39 38 37 36 35 34 33 32 31 30 30 29 28 26 25 24 22 21 19 18 17 16 15 14 13 13 12 11 11 11 11 11 11 11 11 12 12 12 13 14
47 46 44 43 41 39 38 37 36 35 34 33 32 31 31 29 28 27 26 25 23 22 20 19 18 17 16 15 15 14 13 13 12 12 12 12 12 13 13 13 14 14 15
48 48 47 46 44 42 41 39 38 38 36 35 34 33 32 31 30 29 28 27 25 24 22 21 20 19 18 17 17 16 15 15 14 14 14 14 14 14 14 14 15 15 15
49 49 49 48 47 45 43 42 41 39 38 38 36 35 34 33 32 31 29 28 27 26 25 23 22 21 20 19 19 18 17 16 16 16 16 15 15 16 16 16 16 16 16
50 51 51 51 50 48 46 44 43 42 40 39 38 37 36 35 34 33 32 30 29 28 27 25 24 23 22 21 20 20 19 19 18 18 18 17 17 17 18 18 17 17 18
51 52 51 52 51 50 48 47 46 44 41 40 40 39 38 37 36 34 33 32 32 31 29 28 27 26 24 23 22 22 21 21 20 20 19 19 19 19 19 19 19 19 19
50 52 52 52 52 51 50 48 47 46 44 42 41 41 40 39 37 36 35 34 34 33 32 31 30 28 27 26 25 24 23 23 22 21 21 20 20 20 20 20 21 21 21
50 52 52 53 53 52 51 50 49 48 47 45 43 43 42 41 40 39 38 36 35 35 35 33 32 31 29 28 27 26 25 24 24 23 23 22 22 21 21 21 22 22 22
51 53 53 53 53 53 52 51 50 50 48 46 45 44 44 43 42 41 40 38 37 36 36 36 35 34 32 30 29 28 27 26 26 25 24 24 24 24 23 23 23 24 24
49 51 53 54 54 54 53 52 51 51 50 49 47 46 46 44 43 42 42 41 39 39 38 38 37 36 34 32 31 31 30 29 28 27 26 26 26 26 26 26 26 26 26
48 50 53 54 55 55 54 53 52 52 51 50 49 48 47 46 45 45 44 44 43 41 40 40 39 38 37 35 34 33 32 31 30 29 29 29 28 28 28 29 28 28 28
43 47 50 52 53 54 54 54 53 52 53 52 51 50 49 47 47 47 46 47 45 43 42 42 41 40 39 38 37 36 35 34 33 32 32 31 31 30 30 30 30 30 30
38 41 44 47 50 52 53 54 54 52 52 52 52 51 49 48 48 48 47 47 47 46 45 43 43 42 41 41 40 39 38 36 35 35 34 34 33 33 33 32 32 32 32
33 35 38 42 46 49 50 51 52 53 53 52 52 52 51 49 49 48 49 48 48 48 46 45 44 43 42 42 42 41 40 40 39 38 37 36 36 36 35 35 34 34 33
30 31 34 39 42 44 47 48 50 52 53 53 52 53 52 51 51 49 48 48 48 48 48 47 47 46 46 44 43 44 44 43 42 41 40 40 39 39 38 37 37 36 36
28 30 32 36 39 41 44 45 47 51 53 53 52 51 52 51 50 49 49 50 49 50 50 50 50 48 48 47 47 46 46 45 44 44 43 43 42 41 40 40 40 39 39
25 28 31 33 37 40 43 45 46 48 51 52 51 51 52 51 50 51 51 52 51 52 52 52 52 50 49 49 49 48 47 47 47 46 45 44 44 43 42 42 42 41 41
24 26 28 30 34 38 41 42 44 45 47 49 50 51 51 51 51 52 52 52 53 54 54 53 53 53 51 50 50 50 49 48 48 48 46 46 46 46 46 45 45 44 44
20 23 25 27 30 34 36 39 40 42 44 46 47 49 50 50 50 51 53 53 52 53 54 54 54 54 53 52 52 52 51 50 49 49 48 48 48 48 47 47 47 47 46

GEFSSE_500_meanwind_144.txt.gz
Wind_Speed
22 22 23 23 22 22 22 21 20 20 19 18 17 16 15 13 12 11 10 9 8 7 7 6 6 6 5 4 3 3 2 2 1 1 1 1 2 3 5 6 7 7 8
25 25 25 25 25 24 24 23 22 21 21 21 20 18 17 16 14 13 12 11 10 9 9 8 7 7 6 6 5 4 3 3 2 2 2 2 3 3 4 5 6 7 8
28 28 27 27 27 27 26 25 24 23 22 22 21 21 20 18 17 15 14 13 12 11 11 10 9 8 8 7 7 6 5 4 4 3 3 3 4 4 5 5 6 8 9
31 31 30 29 29 29 28 28 27 26 24 23 22 22 21 20 20 18 17 15 14 13 12 12 11 10 9 9 8 8 7 6 5 5 5 5 5 5 6 6 7 8 9
34 33 33 32 31 31 30 30 29 28 27 25 24 23 22 21 21 20 19 18 17 15 14 13 13 12 12 11 10 9 9 8 7 7 7 7 7 7 7 7 8 8 9
37 36 36 35 34 33 32 32 31 30 29 28 26 25 24 23 22 22 21 20 19 18 17 15 15 14 14 13 12 11 10 10 9 9 8 8 8 8 8 8 9 9 9
40 39 38 37 36 35 34 34 33 32 31 29 28 26 26 25 24 23 23 22 20 20 19 18 17 16 15 14 14 13 12 11 11 11 10 10 9 9 9 9 9 10 10
42 42 41 40 39 38 37 36 35 34 32 31 30 29 27 27 26 25 24 24 23 21 21 20 19 18 17 16 16 15 14 13 13 12 12 11 11 11 10 10 10 10 11
43 43 42 42 42 41 39 38 37 36 34 33 32 31 30 29 28 27 26 25 25 24 23 22 21 20 19 18 17 17 16 15 15 14 14 13 13 12 12 12 12 12 12
43 44 43 43 43 42 42 41 40 39 37 35 34 33 32 31 30 29 28 27 26 26 25 24 23 22 21 21 19 18 18 17 17 16 16 16 15 14 14 14 14 14 14
43 44 44 44 44 44 44 44 43 41 40 38 36 35 35 33 32 31 30 29 28 28 26 26 25 24 23 23 22 20 20 19 19 18 18 17 17 17 16 16 16 16 16
44 45 45 46 46 45 45 45 45 44 42 41 39 38 37 36 34 33 32 31 30 29 29 28 27 26 25 25 24 23 22 21 20 20 20 19 19 18 18 18 18 18 17
46 46 47 48 47 47 47 47 46 45 44 43 41 40 40 39 36 35 34 33 32 31 30 29 28 28 27 27 26 25 24 23 22 21 21 21 20 20 20 20 19 19 19
47 46 47 48 48 49 48 48 47 46 45 45 44 42 42 41 39 38 36 35 33 33 32 31 31 30 29 28 28 27 26 25 24 23 23 22 22 22 22 22 21 21 21
47 47 46 47 48 49 49 49 48 47 46 46 45 45 44 43 42 40 39 37 36 34 33 33 33 32 32 31 30 29 28 27 26 26 25 24 24 24 24 24 23 23 23
45 46 47 47 48 49 50 50 49 48 47 47 46 45 44 43 43 42 41 40 38 37 36 35 34 34 34 33 32 31 30 30 29 28 27 27 26 26 25 25 25 25 25
43 44 46 47 48 49 49 49 49 48 48 48 48 47 46 45 44 43 43 42 41 40 39 38 37 36 35 35 34 34 33 32 31 31 30 29 28 28 28 27 27 27 27
40 42 43 45 47 48 50 49 49 49 48 49 48 48 47 47 46 46 44 43 43 42 41 39 39 38 37 37 37 36 35 35 34 33 32 31 31 30 30 30 29 29 29
38 39 41 44 47 47 48 50 50 50 50 50 49 49 49 47 47 46 46 46 45 44 42 41 40 40 39 38 38 38 38 38 37 36 35 34 34 33 32 32 32 31 31
35 37 39 43 47 48 48 50 50 51 52 51 51 50 51 49 48 48 48 47 46 46 44 43 42 41 41 40 41 41 40 40 39 38 38 37 36 36 35 34 34 34 34
33 34 36 40 44 47 47 48 49 50 51 51 51 51 51 50 50 50 50 49 48 47 46 45 43 43 42 42 44 43 42 41 40 39 39 39 39 38 38 37 37 36 36
30 32 33 35 38 42 44 45 45 45 48 50 50 50 50 51 51 51 50 50 50 49 49 47 45 44 43 43 43 43 44 44 42 42 42 42 41 41 41 40 40 39 39
27 28 30 32 34 37 40 43 44 44 46 48 49 49 49 51 52 51 50 50 50 50 50 48 47 45 44 44 43 44 45 46 45 45 45 45 45 44 44 43 42 42 41
24 26 27 29 31 35 38 39 42 44 46 46 47 48 48 49 50 50 49 50 50 50 49 49 49 47 45 45 45 45 46 48 48 47 47 47 48 48 46 46 45 45 44
24 25 26 27 29 32 35 36 38 40 42 44 44 45 47 47 48 48 49 49 49 49 49 50 50 49 49 49 49 48 48 48 49 49 48 47 48 48 48 48 48 47 47
22 23 24 26 27 28 31 34 36 37 39 41 42 42 44 45 47 46 47 48 47 48 49 49 49 50 50 50 49 49 49 49 50 51 51 49 49 49 50 51 50 49 49

GEFSSE_500_meanwind_150.txt.gz
Wind_Speed
18 19 19 19 19 19 18 18 17 17 16 15 15 14 13 12 11 11 10 9 8 7 7 7 7 7 7 6 6 5 4 4 4 4 3 3 3 2 2 3 3 4 5
21 20 20 21 20 20 20 20 19 19 18 17 17 16 16 15 14 13 12 11 10 9 9 9 9 9 8 8 7 7 6 6 5 5 5 4 4 4 3 4 4 4 5
23 23 22 23 23 23 23 22 22 21 20 19 19 18 17 17 16 16 15 13 12 12 11 10 10 10 10 9 9 9 9 8 7 6 6 6 5 5 5 5 5 5 6
26 26 25 25 25 25 25 25 24 24 23 22 21 20 19 18 18 17 17 16 15 14 13 12 12 12 11 11 11 11 10 10 9 8 8 7 7 7 6 6 6 6 6
30 29 29 28 27 27 27 27 27 26 26 25 24 22 22 21 19 19 19 18 17 16 16 15 14 13 13 13 12 12 12 12 11 10 10 9 9 8 8 8 8 8 8
33 32 32 31 30 30 30 29 29 29 28 27 26 25 24 23 22 21 20 20 19 18 18 17 16 15 15 15 14 14 14 14 13 12 12 11 11 10 10 10 9 9 9
35 34 34 34 34 33 32 31 31 31 30 29 28 27 26 26 25 23 22 22 21 20 19 19 18 17 17 16 16 16 16 15 15 14 13 13 13 12 11 11 11 11 10
37 36 36 36 35 35 35 34 33 33 32 31 31 30 28 27 27 25 24 23 23 22 22 20 20 19 18 18 17 17 17 17 16 16 15 15 15 14 13 13 12 12 12
39 38 38 38 38 37 37 36 35 35 34 33 32 31 30 29 28 27 26 25 24 24 23 22 21 21 20 20 19 19 18 18 18 18 17 17 17 16 15 14 14 14 14
40 40 40 39 39 39 39 38 38 37 36 35 34 34 32 31 30 29 28 28 27 26 25 24 23 23 22 21 21 21 20 20 19 19 19 19 18 18 17 16 16 15 15
40 40 40 40 40 40 40 40 39 39 38 37 36 36 35 34 32 31 31 30 29 28 27 26 25 25 24 23 23 22 22 21 20 20 20 20 20 19 19 18 18 17 17
39 40 40 41 41 41 41 41 41 41 40 39 39 38 38 36 35 34 33 32 31 30 29 28 27 27 26 25 25 24 24 23 22 22 22 22 21 21 20 20 19 19 19
40 41 42 41 42 42 42 42 42 42 42 41 40 40 40 39 37 36 35 34 33 32 31 30 29 28 28 27 27 26 25 25 25 24 23 23 23 22 22 22 21 21 21
40 41 42 43 43 43 43 43 43 43 43 42 41 40 40 40 39 38 37 36 35 35 34 33 31 30 30 29 29 28 27 27 27 26 25 25 24 24 24 24 24 23 23
40 41 43 44 44 44 45 45 44 44 44 43 43 42 41 40 39 39 38 38 37 36 35 35 34 33 32 31 31 30 30 29 29 28 27 27 26 26 26 26 26 25 25
40 42 43 45 45 46 45 45 45 45 45 45 44 44 43 42 41 40 39 39 38 37 37 37 36 35 34 33 32 32 32 31 31 31 30 29 28 28 28 28 27 27 27
38 40 42 44 46 47 47 46 46 45 46 46 46 45 45 44 42 42 42 41 39 39 38 38 39 38 36 35 34 33 33 32 32 32 32 32 31 31 30 30 30 29 29
37 38 41 43 45 47 48 47 47 47 47 48 47 46 46 45 44 44 43 42 41 41 41 41 40 40 39 37 36 36 35 35 35 34 34 34 33 33 32 32 32 32 32
36 37 38 41 43 45 47 48 48 48 49 49 49 48 47 46 46 46 44 44 43 42 43 42 42 42 40 39 38 37 37 36 36 36 35 35 35 35 34 34 34 34 34
35 36 37 38 40 43 45 47 47 48 49 50 50 49 49 47 46 47 46 44 44 44 44 44 43 42 41 40 40 40 39 38 37 36 36 36 36 36 36 35 35 36 36
33 34 34 36 38 41 44 46 46 47 48 49 50 51 50 49 48 48 47 46 46 46 46 45 44 43 42 42 42 42 41 40 39 38 37 38 38 38 38 38 38 38 37
30 30 31 32 35 37 39 41 43 46 47 49 51 51 51 50 50 49 49 49 48 48 48 46 45 45 44 44 44 44 43 43 41 40 40 40 40 40 41 41 41 40 40
26 27 29 31 33 35 37 40 41 44 46 48 49 50 50 50 50 50 50 51 50 50 50 49 48 47 46 46 46 46 46 44 44 43 43 43 42 42 42 43 43 43 43
25 26 26 27 30 33 36 38 40 43 44 45 46 47 48 49 49 50 51 51 51 51 50 51 50 49 48 48 47 47 47 46 46 45 44 44 44 44 44 45 46 46 46
23 24 25 26 28 30 32 35 37 38 39 41 43 43 45 47 49 48 49 50 51 51 50 51 51 50 49 48 48 47 47 47 47 45 45 44 45 45 45 45 47 48 48
22 23 24 25 26 27 28 30 32 34 36 38 39 40 42 44 46 46 46 48 49 49 49 49 49 48 48 48 48 49 49 49 47 46 46 45 46 46 46 46 47 48 49

GEFSSE_500_meanwind_156.txt.gz
Wind_Speed
20 20 20 19 19 18 17 16 15 14 13 12 11 10 9 9 8 8 7 7 6 5 5 5 5 5 5 5 5 5 5 5 5 5 5 5 5 5 5 5 5 5 6
22 21 21 21 21 20 20 19 18 17 16 14 13 12 11 11 10 9 9 9 8 8 7 7 7 7 7 7 7 7 6 6 6 6 6 6 6 6 6 6 6 6 6
23 23 22 22 22 22 22 21 20 19 18 17 16 15 14 13 12 12 11 11 10 10 10 9 9 9 8 8 9 9 8 8 8 8 7 7 7 7 7 7 7 7 7
26 25 25 24 24 23 23 22 22 22 21 20 19 18 17 16 15 14 13 12 12 12 12 11 10 10 10 10 10 10 10 10 10 9 9 9 9 9 9 9 9 9 9
28 27 27 27 26 25 25 24 24 23 23 22 21 21 20 19 17 16 16 15 14 14 13 13 13 12 12 12 12 12 12 12 11 11 11 11 11 10 10 10 10 10 10
29 30 29 29 28 28 28 27 26 25 25 24 23 23 22 21 20 19 18 18 17 16 15 15 15 14 14 14 14 13 13 13 13 13 13 13 12 12 12 12 12 12 12
31 31 31 31 31 30 30 30 29 28 27 26 26 25 25 24 23 22 21 20 19 19 18 17 17 17 16 15 15 15 15 14 14 14 14 14 14 14 14 13 13 13 13
33 33 33 33 33 33 32 31 31 31 30 29 28 27 27 26 26 25 24 23 22 21 20 19 19 19 18 17 17 16 16 16 16 16 16 16 16 16 15 15 15 14 14
35 35 35 36 36 35 35 34 33 33 33 32 31 30 29 28 27 27 26 25 24 23 22 21 21 20 20 19 19 18 18 17 18 18 18 17 17 17 17 16 16 16 16
35 36 37 37 37 37 36 36 35 35 34 34 34 33 32 30 29 29 28 27 26 25 25 24 23 22 22 21 21 20 20 19 19 19 19 19 19 18 18 18 17 17 17
36 36 37 37 38 38 38 37 37 36 36 35 35 34 33 32 31 30 29 29 28 27 27 26 25 24 24 23 22 22 22 21 21 21 21 21 21 20 20 19 19 18 18
35 35 37 37 38 39 39 38 38 37 37 36 35 35 34 34 33 32 30 30 30 29 29 28 27 26 25 25 24 24 24 23 23 23 22 22 22 22 21 21 21 20 20
35 35 36 37 38 39 39 39 39 38 38 37 37 36 36 35 34 33 32 32 31 31 31 30 29 28 27 26 26 25 25 25 25 25 25 24 24 24 23 23 23 23 23
36 36 36 37 38 38 39 39 40 40 40 39 38 38 38 37 36 35 34 34 33 33 32 31 30 30 29 28 27 27 27 27 27 27 26 26 26 25 25 25 25 24 24
36 36 37 37 38 39 39 39 40 40 41 40 40 40 40 40 39 38 37 36 35 35 35 34 33 32 31 31 30 29 29 28 28 29 28 28 28 27 27 26 26 26 26
36 37 37 37 38 40 40 41 41 42 42 42 43 43 43 43 42 40 39 38 37 36 37 38 36 34 34 33 33 32 31 30 30 30 30 29 29 29 28 28 28 28 27
35 36 37 38 39 40 41 42 43 43 43 44 44 44 45 45 44 42 41 40 40 39 39 39 38 37 37 36 35 34 34 33 32 31 31 30 30 30 30 30 30 30 29
34 34 36 38 39 39 41 42 44 45 45 45 45 45 45 46 46 45 44 43 43 42 41 41 40 39 38 38 37 37 36 35 34 34 33 33 32 32 32 32 32 32 31
34 35 35 36 38 39 40 42 44 44 46 46 46 46 47 47 48 48 47 45 45 44 44 43 41 41 40 39 38 38 38 38 37 36 36 35 35 34 34 34 34 34 34
34 34 35 36 37 38 40 41 42 44 45 46 47 47 47 48 49 49 48 47 47 46 45 44 44 42 41 41 40 40 40 40 40 39 39 38 37 36 36 36 36 35 35
34 35 36 36 36 37 39 40 41 42 44 45 45 46 47 48 49 50 50 49 48 48 47 46 45 44 43 42 42 42 42 42 42 41 41 40 40 40 38 38 38 37 37
33 34 35 36 36 36 38 40 41 42 43 44 44 45 46 47 49 51 51 50 49 49 48 48 47 47 45 44 44 44 44 44 43 42 42 42 42 41 41 40 39 39 39
32 33 33 34 35 36 37 38 40 41 41 42 44 44 44 45 47 49 51 51 50 50 51 50 50 50 49 47 46 46 47 46 45 45 44 43 43 43 42 41 41 40 40
30 31 32 33 34 34 34 35 37 39 41 42 42 43 44 45 46 47 49 50 51 50 50 51 50 51 51 49 49 48 48 47 47 45 45 44 43 43 43 43 42 43 42
28 29 30 31 31 31 33 33 34 36 38 40 41 43 44 45 46 47 49 49 50 51 50 51 50 51 51 51 50 49 49 49 48 48 46 45 45 45 45 45 45 45 44
27 28 28 29 29 30 31 32 32 33 35 37 39 40 41 41 42 44 47 48 49 50 51 51 50 50 50 50 50 49 49 49 48 48 47 46 47 46 46 47 46 46 45

GEFSSE_500_meanwind_162.txt.gz
Wind_Speed
19 19 19 18 17 16 16 15 15 14 13 12 12 11 11 10 9 8 8 8 7 7 7 7 6 6 6 6 5 5 4 4 4 3 3 3 3 4 4 4 4 4 5
21 21 20 20 20 19 18 18 17 16 16 15 14 14 13 13 12 11 10 10 9 8 8 8 8 8 7 7 7 7 7 6 6 5 5 5 5 5 5 5 5 5 5
21 22 22 22 22 21 20 20 20 19 18 18 17 16 15 15 14 14 13 12 11 10 10 9 9 9 9 9 9 9 9 8 8 8 7 7 6 6 6 6 6 6 6
22 22 23 23 23 23 23 22 22 21 20 20 20 19 18 17 16 16 15 14 13 12 12 11 11 11 10 10 10 10 10 10 10 10 9 9 8 8 8 8 8 8 8
23 23 24 24 24 25 25 25 24 24 23 23 22 21 21 20 19 18 18 17 16 15 15 14 13 13 12 12 12 12 12 12 11 11 11 11 11 10 10 9 9 9 9
25 25 25 25 25 25 25 26 26 26 26 25 25 24 23 23 22 21 20 19 19 18 17 16 16 15 14 14 14 13 14 14 13 13 13 13 13 12 12 11 11 10 11
26 26 26 26 26 26 26 26 27 27 27 27 27 26 25 24 23 23 23 22 21 20 20 19 18 17 17 16 16 16 15 15 15 15 15 14 14 14 13 13 12 12 12
28 28 28 28 28 28 28 27 27 27 27 27 28 28 27 27 25 25 25 24 23 23 22 21 20 20 19 18 17 17 17 17 16 16 16 16 16 15 15 15 14 14 13
29 29 29 29 29 29 29 29 28 28 28 28 28 29 29 29 28 27 27 26 26 25 24 23 23 22 21 21 20 19 19 18 18 18 18 17 17 17 16 16 16 15 15
30 29 30 30 30 30 30 30 31 30 30 30 30 30 30 30 30 30 29 28 28 27 26 25 25 24 23 23 22 21 21 20 20 19 19 19 19 18 18 18 18 17 17
31 30 30 31 31 31 31 31 32 32 32 32 32 31 32 32 32 31 31 30 29 28 28 27 27 26 26 25 24 23 23 22 21 21 21 21 20 20 20 20 20 19 19
32 32 31 32 32 33 33 33 33 33 33 34 34 34 33 33 33 33 32 31 31 30 30 29 28 28 27 27 26 26 25 24 23 23 22 22 22 21 21 21 21 21 21
33 33 33 34 34 34 35 35 35 34 34 34 34 35 35 34 34 34 34 33 33 32 32 31 31 30 29 28 28 27 26 26 25 24 24 23 23 23 23 23 22 22 22
33 34 34 35 35 35 35 35 36 36 35 35 35 35 36 36 36 36 35 35 34 33 33 32 32 32 31 30 30 29 29 28 27 26 26 26 25 25 24 24 24 24 23
33 34 34 34 34 34 34 34 35 36 36 36 37 37 37 38 38 38 38 37 37 36 35 34 34 33 33 33 32 32 31 30 29 29 28 28 27 26 26 26 26 26 25
32 32 33 33 33 34 34 35 35 37 38 38 37 37 38 38 39 39 39 39 39 38 37 37 36 36 35 35 35 34 34 33 33 32 31 30 30 29 28 28 28 28 27
31 32 32 32 33 34 34 35 36 37 38 39 39 38 38 39 40 41 41 41 41 40 40 39 38 38 37 37 37 36 36 36 35 34 34 33 32 31 31 30 29 29 29
30 31 32 32 33 34 35 36 37 38 38 40 40 40 40 40 40 41 42 42 42 42 42 41 40 40 40 41 40 39 38 38 38 37 36 35 34 33 33 32 31 31 31
30 30 31 32 34 35 36 37 38 38 39 40 40 41 41 41 41 42 43 43 44 44 44 44 43 42 42 42 42 43 41 40 39 39 38 37 36 35 34 34 34 33 33
30 31 31 32 33 34 36 36 37 38 39 39 40 41 41 42 43 43 44 45 45 46 47 47 46 45 44 43 43 44 43 41 41 41 40 40 39 38 37 36 36 35 35
30 31 31 32 32 33 34 35 37 38 39 40 41 42 43 43 44 45 45 46 47 48 48 48 48 48 47 47 47 46 46 45 43 42 42 42 41 41 39 38 38 38 37
30 31 32 32 32 33 33 35 36 38 39 40 40 41 43 44 45 45 46 47 47 48 49 50 50 49 49 48 48 48 48 47 45 44 43 43 43 43 42 42 41 40 39
30 31 32 32 32 33 33 34 35 36 38 40 40 41 42 43 44 45 46 47 47 47 48 49 50 49 49 48 48 49 49 49 47 46 45 45 45 45 45 44 43 42 42
30 31 31 32 33 34 33 33 34 35 37 38 40 41 42 42 43 43 44 45 46 46 47 48 49 50 50 49 49 49 49 50 49 47 46 46 47 47 47 47 45 45 44
29 30 31 32 33 33 34 34 35 35 36 37 38 39 41 42 42 43 43 44 45 45 45 46 47 48 49 49 49 49 50 51 51 49 47 46 47 47 48 48 47 47 46
29 30 30 31 32 33 33 34 34 35 35 35 36 38 39 39 40 40 41 42 43 44 44 45 46 47 47 48 48 49 50 50 50 50 48 47 47 47 48 49 49 48 47

GEFSSE_500_meanwind_168.txt.gz
Wind_Speed
18 18 17 17 16 15 15 14 14 13 12 12 12 11 11 11 11 11 11 11 10 10 9 8 8 8 8 8 7 7 6 6 5 5 4 4 4 3 3 4 4 4 4
19 19 19 19 18 18 17 17 16 15 14 14 13 13 13 13 13 13 12 12 12 12 11 10 10 10 10 9 9 9 8 8 7 7 7 6 6 5 5 5 5 5 5
20 20 20 20 20 20 19 19 19 18 17 17 16 15 15 15 15 15 15 14 14 13 13 12 11 11 11 11 11 10 10 10 10 9 9 8 8 7 7 7 7 7 7
22 22 21 21 21 21 21 21 20 20 19 19 18 18 18 17 17 17 17 17 16 16 15 14 14 13 13 13 13 12 12 12 12 11 11 10 10 10 9 9 9 8 8
23 23 23 23 23 23 23 23 22 22 21 21 21 20 20 20 19 19 19 19 18 18 17 17 16 16 15 14 14 14 14 13 13 13 13 13 12 12 11 11 10 10 10
23 23 24 24 24 24 24 24 24 24 24 23 23 23 22 21 21 21 21 21 21 20 20 19 18 18 18 17 16 16 16 15 15 15 14 14 14 14 13 13 12 12 11
25 24 24 25 25 25 25 25 26 25 25 25 24 25 24 24 24 23 22 22 22 22 21 21 21 20 20 19 18 18 17 17 17 16 16 16 15 15 15 14 14 13 13
26 25 26 26 26 26 26 26 26 26 26 26 26 26 26 26 26 25 24 24 24 24 24 23 23 22 22 21 21 20 19 19 18 18 18 18 17 17 16 15 15 15 14
27 27 27 27 27 27 27 27 27 27 27 27 27 26 27 27 27 26 26 26 25 25 25 25 25 25 24 23 22 22 21 21 21 20 19 19 19 18 18 17 17 16 16
29 28 28 28 27 28 28 29 29 28 28 28 29 28 28 28 28 28 27 27 27 27 27 27 26 26 26 25 24 24 23 23 22 22 21 21 20 20 19 19 19 18 18
30 29 29 29 28 29 29 29 29 29 29 29 30 30 29 29 29 29 29 28 28 28 28 29 28 27 27 27 26 26 25 25 24 24 23 22 22 21 21 21 20 20 20
31 30 30 30 29 29 29 30 30 30 30 30 30 31 31 30 30 30 30 30 30 30 30 30 30 30 29 29 29 28 27 27 26 25 25 24 24 23 23 22 22 21 21
32 31 30 30 30 30 30 30 31 32 32 31 32 32 32 33 32 32 32 32 32 32 31 31 32 32 32 31 30 30 29 29 28 27 27 26 26 25 25 24 24 23 23
32 31 31 31 31 32 32 32 32 32 33 33 33 33 33 33 33 33 33 33 33 33 33 33 33 33 33 33 33 32 31 30 30 29 29 28 28 27 26 26 25 25 25
32 32 32 32 32 32 32 32 32 32 33 33 34 35 35 35 34 34 34 34 34 35 35 34 34 34 34 34 34 34 34 33 33 32 31 31 30 29 28 28 27 27 27
31 31 31 31 32 32 32 32 33 33 33 34 34 35 35 35 35 35 36 36 35 36 37 37 36 36 36 36 35 35 36 36 34 34 33 33 32 32 31 30 30 29 28
30 30 31 31 31 32 32 33 33 33 33 33 34 35 35 35 35 36 37 37 37 37 37 38 38 39 39 39 38 37 37 37 37 36 35 34 34 33 33 32 32 31 30
30 30 31 31 32 32 33 34 34 34 33 34 35 35 35 35 35 36 36 36 38 38 39 39 40 41 41 40 40 40 39 39 40 40 38 36 36 35 35 34 34 33 33
30 30 31 31 32 32 33 34 34 35 34 34 34 35 36 37 37 37 37 38 38 39 41 41 41 42 42 42 42 41 40 40 40 40 40 39 38 37 37 36 36 36 35
30 30 31 31 31 32 32 33 34 34 34 35 35 36 37 38 38 39 39 39 39 40 41 42 43 42 43 44 44 43 41 41 42 42 41 40 40 40 40 39 39 38 37
29 30 30 31 32 32 33 33 34 34 35 36 37 37 37 38 39 40 40 40 40 40 41 42 43 44 44 45 45 45 43 42 42 42 42 42 41 41 42 41 41 41 40
29 30 30 31 32 33 34 34 34 35 36 37 38 38 39 39 40 40 41 41 42 41 42 42 43 44 45 46 46 46 46 44 44 44 43 43 43 42 42 42 42 42 41
29 30 31 32 33 34 35 36 36 36 36 37 38 38 38 39 39 41 42 42 43 43 43 43 43 44 46 46 47 48 47 45 45 45 45 44 44 43 43 43 42 43 42
29 30 32 33 34 35 36 36 36 36 37 37 37 37 38 39 39 40 41 42 42 43 43 43 44 44 45 46 47 48 48 47 46 46 46 46 45 44 44 44 44 44 44
31 32 33 34 35 36 37 37 38 38 38 38 38 38 38 39 39 39 40 40 40 41 42 42 43 45 45 45 46 47 47 47 47 46 46 46 47 46 46 46 46 46 46
32 33 34 35 36 37 37 38 38 39 39 39 39 39 39 39 40 40 40 40 41 41 41 42 43 44 45 45 46 46 47 47 48 47 46 46 47 47 47 47 46 46 47

GEFSSE_500_meanwind_174.txt.gz
Wind_Speed
14 14 13 13 13 12 12 11 11 11 11 11 11 11 11 11 11 11 11 11 11 11 11 10 10 10 10 10 9 9 8 8 7 7 7 6 6 6 6 6 5 5 5
15 15 15 15 14 14 14 13 13 13 13 13 13 13 13 13 13 12 12 12 12 13 13 12 12 12 11 11 11 10 10 10 9 9 8 8 8 8 8 8 7 7 7
17 17 16 16 16 16 16 15 15 15 15 15 15 15 15 15 15 14 14 14 14 14 14 14 14 13 13 13 12 12 12 12 12 11 11 10 10 10 10 10 10 9 9
19 19 18 18 18 18 18 17 17 17 17 17 17 17 17 17 16 16 15 15 15 15 16 16 16 15 15 14 14 14 14 13 13 13 13 13 12 12 12 12 12 11 11
20 20 20 19 19 19 19 19 19 19 19 19 19 18 18 18 18 17 17 17 16 16 16 17 17 17 17 16 16 15 15 15 15 15 15 14 14 14 14 14 13 13 12
22 21 21 21 20 20 20 21 21 21 20 20 20 19 19 19 20 20 20 19 19 18 18 18 18 19 18 18 18 18 18 17 17 17 16 16 16 16 16 15 15 15 14
24 23 23 23 22 22 22 22 22 22 22 22 22 22 21 21 22 22 22 22 21 21 20 21 21 21 21 20 20 20 20 19 19 19 18 18 18 18 18 17 17 16 16
25 24 24 23 23 23 23 24 23 23 23 23 23 23 23 23 23 23 23 24 23 23 23 23 23 22 22 22 22 22 22 21 21 21 21 20 20 19 19 19 18 18 17
26 25 24 24 24 24 24 24 23 23 24 24 25 25 24 25 25 25 25 25 25 25 25 25 25 24 24 24 23 23 23 22 23 23 22 22 21 21 20 20 20 20 20
26 25 25 24 24 24 24 24 24 24 24 25 26 26 26 26 26 26 26 26 26 26 26 26 27 26 26 26 26 25 24 24 24 24 23 23 23 23 22 22 22 21 21
27 26 25 25 25 24 25 25 25 25 25 26 26 26 27 27 27 27 27 27 27 28 28 28 29 29 28 28 28 27 27 26 26 25 25 25 24 24 24 24 23 23 23
28 27 26 26 25 25 25 26 26 26 26 27 27 27 27 27 28 28 28 29 28 29 29 30 30 31 30 30 30 30 29 28 28 28 27 27 26 25 25 25 25 25 24
28 28 27 26 27 27 27 27 27 27 28 28 28 29 29 29 29 29 30 30 30 31 31 31 32 32 32 31 31 31 31 30 30 30 29 28 28 28 27 27 27 27 26
29 28 28 28 28 28 28 28 28 28 28 28 29 29 30 30 30 31 31 31 31 32 33 33 33 33 33 32 32 32 32 33 32 31 31 30 30 29 29 29 28 28 28
29 28 28 28 29 29 29 29 29 29 29 29 29 30 30 31 31 31 32 32 32 33 33 33 33 34 34 34 33 33 33 33 34 33 32 31 31 31 32 31 30 30 29
29 28 28 29 29 29 29 30 30 30 30 30 30 31 31 32 33 32 32 33 33 34 33 33 34 34 35 35 35 35 35 35 35 34 34 34 33 33 33 33 33 32 32
28 29 29 29 29 29 30 30 30 30 31 31 32 33 33 34 34 33 33 33 34 35 35 35 35 35 36 37 37 37 37 37 36 36 36 35 35 34 34 34 34 34 34
28 28 29 29 29 29 30 30 30 31 32 32 33 33 34 34 34 34 34 34 34 35 35 36 36 37 37 38 38 39 39 39 39 38 38 37 36 35 35 35 36 36 36
28 28 29 29 29 30 30 30 30 30 32 33 33 33 33 34 34 34 35 35 36 36 36 37 38 38 38 38 39 40 41 41 41 41 40 39 38 37 37 36 37 38 38
28 27 28 28 28 29 29 30 31 31 32 32 32 34 34 35 36 36 36 36 36 37 37 38 38 39 39 40 40 40 41 42 42 43 42 42 41 40 40 39 38 39 40
27 28 27 28 29 29 30 30 32 33 33 34 34 35 36 36 36 37 37 37 37 38 38 39 40 40 41 41 41 41 42 42 42 43 43 44 43 43 41 40 39 40 40
27 27 28 29 29 30 31 33 33 34 34 36 36 37 37 37 37 37 37 38 39 39 40 40 41 41 41 42 42 41 42 43 43 44 44 45 45 45 44 44 43 42 42
28 29 29 29 30 31 33 34 35 35 36 36 37 37 37 38 39 39 39 39 40 40 41 41 42 42 42 42 43 43 43 43 43 44 46 46 46 46 45 45 46 45 43
29 29 30 30 31 32 33 34 35 35 36 37 38 38 38 39 40 41 41 41 42 42 42 42 42 43 43 43 43 44 44 44 44 43 45 46 47 48 48 47 47 47 46
28 29 30 31 32 32 33 34 35 36 36 37 38 39 40 40 41 41 42 42 43 43 43 43 43 43 43 42 43 43 44 44 45 45 45 46 48 49 49 49 50 49 48
28 29 30 31 33 33 34 35 36 36 37 38 39 40 40 41 41 42 42 42 43 43 43 42 43 44 44 43 43 43 43 44 45 46 46 46 47 49 50 50 50 50 49

GEFSSE_500_meanwind_180.txt.gz
Wind_Speed
16 15 14 14 13 12 11 11 11 10 10 9 9 8 8 8 8 8 8 8 8 8 8 8 8 8 8 8 8 8 8 7 7 7 7 7 7 7 7 8 8 8 8
17 16 16 15 15 14 13 13 12 12 11 11 10 10 10 10 9 9 9 9 9 9 9 9 10 10 9 9 9 9 9 9 9 9 9 9 9 9 9 9 9 10 10
18 17 17 16 15 14 14 14 14 14 13 13 12 12 12 11 11 11 11 10 10 10 10 10 11 11 11 11 11 11 11 10 10 10 10 11 10 10 10 10 11 11 11
19 18 18 17 16 15 15 15 15 14 15 15 14 14 14 13 12 12 12 12 12 12 12 12 12 12 12 12 12 12 12 12 12 12 12 12 12 12 12 12 12 12 12
20 19 19 19 17 16 16 16 16 15 15 15 15 15 15 14 14 14 14 14 14 14 13 13 13 13 13 13 13 13 14 14 14 14 14 14 15 15 15 15 14 14 13
21 21 21 20 19 18 17 17 17 17 16 16 16 15 15 15 15 15 16 16 16 16 16 15 15 15 15 15 15 15 15 15 16 17 17 16 17 17 17 17 16 16 15
22 22 22 22 20 19 19 19 18 18 17 16 16 16 16 16 16 16 16 16 17 17 17 18 17 17 17 17 17 18 18 18 18 18 19 18 18 18 18 18 18 18 17
23 22 22 22 22 21 20 20 19 19 18 18 17 17 18 18 18 18 18 18 18 19 19 19 19 19 19 20 20 20 20 20 20 20 20 20 19 19 19 19 20 20 19
24 23 23 23 22 22 22 21 21 20 19 19 19 19 19 19 19 20 20 20 20 20 21 21 21 21 21 21 22 22 22 22 21 21 21 21 21 20 20 20 21 21 21
25 24 24 23 23 23 23 22 22 21 21 21 21 20 20 21 22 22 22 22 22 22 23 23 23 23 23 23 23 23 24 24 23 23 22 22 22 22 22 22 22 22 22
26 25 25 24 24 23 23 23 23 23 23 23 22 22 22 22 23 23 23 24 24 24 24 25 25 25 25 25 25 25 26 25 25 25 24 24 24 24 24 24 24 24 23
27 26 25 25 26 25 24 24 24 24 24 24 23 23 23 23 23 24 25 25 25 25 25 26 27 27 27 26 26 27 27 27 27 26 26 26 26 26 26 26 25 25 25
28 27 26 26 26 26 25 24 25 25 25 25 24 24 24 24 24 25 26 26 26 26 26 26 28 28 28 28 29 29 28 28 28 28 28 28 28 28 27 27 27 27 27
28 27 28 27 26 26 26 25 25 25 26 25 25 25 25 25 25 25 26 27 27 27 27 27 28 29 29 30 31 30 30 30 30 29 29 29 30 29 29 29 29 29 28
28 28 28 28 27 26 27 27 27 26 27 26 26 26 26 26 26 26 26 27 28 28 28 28 29 30 30 31 31 31 32 32 32 32 32 31 31 31 31 30 30 30 30
29 29 29 29 29 28 27 28 28 28 28 28 28 28 27 27 28 28 28 28 29 30 30 30 30 30 31 32 32 32 32 33 33 34 34 34 34 34 33 32 32 31 31
30 31 31 31 30 29 29 28 28 28 29 29 29 29 29 29 29 30 30 30 30 31 31 31 31 31 32 33 33 33 34 34 34 35 36 36 36 36 36 35 34 33 33
30 30 31 31 30 30 29 29 28 29 29 29 30 30 30 30 30 31 31 30 31 31 32 32 32 32 32 33 34 34 34 35 35 36 36 37 37 37 37 37 36 36 36
28 29 30 30 30 30 30 29 29 30 30 30 30 30 30 31 32 32 32 32 32 33 33 34 34 35 34 34 35 35 35 36 36 37 37 38 38 38 38 38 38 38 37
28 29 29 29 29 30 30 30 30 30 31 31 31 31 32 32 33 34 34 34 34 34 35 36 36 37 36 37 36 36 36 37 38 39 40 41 41 40 40 41 41 41 41
28 28 28 29 29 29 30 30 31 32 32 33 33 32 33 33 34 35 36 36 36 36 37 38 39 39 39 39 39 39 38 39 40 40 41 41 42 42 42 42 43 43 43
27 27 27 28 29 29 30 30 31 32 33 34 35 35 35 35 35 36 37 37 38 38 38 39 39 40 41 41 41 42 42 42 42 42 42 42 42 42 43 43 44 44 44
27 28 28 29 29 30 30 31 32 33 34 35 35 36 37 38 38 39 39 39 39 40 40 40 40 41 41 43 43 44 44 44 44 43 44 44 44 44 44 45 45 45 45
28 28 29 29 30 31 32 32 33 33 34 36 36 37 38 39 40 40 41 41 41 41 41 41 42 43 43 44 44 45 46 45 45 44 44 44 44 45 45 45 46 46 46
28 29 30 31 31 32 32 33 34 35 35 36 37 38 39 39 40 41 42 42 42 43 43 43 44 44 44 45 45 45 46 46 47 45 44 44 44 44 44 44 45 46 46
29 30 30 31 32 32 33 34 34 35 35 36 37 38 39 40 41 42 43 43 43 44 44 44 44 45 45 45 45 45 46 46 46 46 45 44 44 44 44 44 45 45 46

GEFSSE_500_meanwind_186.txt.gz
Wind_Speed
18 17 16 15 14 13 13 12 12 12 12 11 12 11 11 11 10 9 9 9 8 7 7 6 6 5 5 6 6 5 5 5 6 6 6 6 6 6 6 6 7 7 7
20 19 17 16 15 14 14 14 13 13 13 12 12 12 12 12 11 11 10 10 9 9 8 8 7 7 7 7 7 7 7 7 7 7 8 8 8 8 9 9 9 9 9
21 20 19 18 17 16 15 15 14 14 13 13 13 13 13 13 12 12 12 11 11 11 10 9 9 8 8 8 8 8 8 8 9 9 9 9 10 10 10 11 11 11 11
22 21 20 19 18 17 16 16 15 15 15 14 14 14 13 13 13 13 13 13 12 12 12 11 10 10 10 10 10 10 10 10 10 11 11 11 12 12 12 12 12 12 12
23 22 21 20 19 18 17 17 17 16 16 15 15 15 14 14 14 14 13 13 13 13 13 13 12 12 12 12 11 11 11 11 11 12 12 13 13 13 14 14 14 14 13
23 23 22 21 20 19 18 17 17 17 16 16 15 15 15 15 15 15 14 14 14 14 14 14 13 13 13 13 13 13 13 13 14 14 14 14 14 15 15 15 15 15 15
24 23 23 22 21 19 19 19 18 17 17 17 17 16 16 16 16 16 15 15 15 15 15 15 15 15 15 15 15 15 15 15 15 15 16 16 16 16 16 16 16 16 17
25 23 22 23 22 21 21 20 20 19 19 19 18 18 17 17 17 16 16 16 16 16 16 17 17 17 17 17 17 17 17 17 17 17 17 17 17 17 17 17 17 18 18
25 25 24 23 22 22 22 22 21 21 21 21 20 20 19 18 18 17 18 18 18 18 18 18 18 19 19 19 19 19 19 19 19 19 19 18 18 18 18 18 19 19 19
26 25 25 24 23 23 23 23 22 22 22 22 21 21 21 20 19 19 19 19 19 19 20 19 19 20 21 21 21 21 21 21 21 20 20 20 20 20 20 20 20 20 20
27 26 26 25 25 25 24 24 24 23 23 23 23 23 23 22 21 21 21 21 21 21 21 21 21 21 21 22 22 22 23 23 23 22 22 21 22 21 22 22 22 22 22
28 27 27 26 25 25 25 25 24 24 24 23 23 23 23 23 22 22 21 22 22 22 22 22 22 22 22 22 23 23 24 24 24 24 24 24 24 24 24 24 24 24 24
28 27 28 27 26 26 26 25 24 24 25 24 24 24 24 23 23 22 22 22 22 22 23 23 22 23 23 23 24 24 25 26 26 25 25 25 26 26 26 26 27 27 27
29 28 29 28 27 27 27 26 26 26 26 25 25 25 25 25 24 24 23 22 22 23 23 24 24 24 24 25 25 26 26 27 27 28 28 28 28 28 28 28 28 28 29
30 30 29 29 28 27 27 27 27 28 27 27 27 27 26 26 26 26 25 25 24 24 24 25 25 25 26 26 26 26 27 28 29 29 29 29 30 30 30 30 30 30 30
30 30 30 30 30 30 27 27 28 28 28 28 28 28 28 28 28 28 27 27 26 26 26 26 27 27 27 27 27 27 28 28 29 30 30 31 30 31 32 32 32 32 32
29 30 31 31 31 31 30 29 28 29 29 30 29 29 28 29 29 30 29 28 28 28 28 28 28 29 29 29 29 29 29 29 30 31 31 32 32 32 33 33 33 34 34
29 30 31 31 32 32 31 30 30 29 29 29 30 30 29 29 30 30 31 30 30 30 30 30 30 30 31 31 31 31 31 31 32 32 33 33 34 34 34 34 34 34 35
30 30 31 31 31 31 31 29 30 30 31 30 31 31 31 31 31 32 32 32 32 32 33 33 33 32 32 32 33 33 33 34 34 34 34 35 36 36 37 37 36 36 36
29 29 29 30 30 30 30 30 29 30 31 30 31 32 31 31 32 33 34 34 34 34 34 34 34 34 34 34 35 35 36 36 36 37 37 37 38 39 40 40 39 39 38
28 29 29 28 29 30 30 30 30 30 30 30 31 32 32 32 32 33 33 34 35 35 35 35 35 36 36 37 37 38 38 38 38 38 39 39 40 40 41 42 41 41 41
29 29 28 29 29 29 30 30 30 30 30 31 32 34 34 34 34 34 34 34 35 36 36 37 37 38 38 39 40 40 40 40 41 41 41 41 41 42 42 42 42 43 43
28 29 28 28 28 29 30 30 30 31 31 32 33 34 36 36 35 36 36 36 36 36 36 37 38 38 39 40 41 42 42 42 42 42 43 43 43 43 44 44 44 44 44
28 29 29 29 29 30 31 31 31 32 33 33 33 34 35 36 37 37 37 38 38 39 39 39 39 39 40 41 42 42 43 43 43 43 43 44 44 45 45 45 45 45 45
29 29 30 31 31 31 32 32 32 32 33 34 34 35 35 36 37 37 38 39 39 39 41 41 42 42 42 42 42 43 43 44 44 44 44 44 44 44 45 46 46 46 46
30 31 31 31 32 32 32 33 34 34 34 35 35 36 36 37 38 39 39 40 40 41 42 43 44 44 43 43 43 43 44 45 45 45 44 44 44 44 45 46 47 47 47

GEFSSE_500_meanwind_192.txt.gz
Wind_Speed
19 19 18 17 17 16 16 15 15 14 14 13 13 13 13 12 12 12 12 11 11 10 9 9 8 7 7 6 6 6 6 6 6 6 6 6 6 6 6 6 6 7 7
20 20 20 18 18 17 16 16 15 15 15 15 14 14 14 13 13 13 13 12 12 11 11 10 9 9 8 8 8 7 7 7 7 8 8 8 8 8 9 8 8 8 9
22 21 21 20 19 18 17 17 17 16 16 16 16 15 15 14 14 14 13 13 13 12 12 12 11 11 10 10 9 9 9 9 9 9 9 9 10 10 10 10 10 10 10
23 22 21 20 20 19 18 18 18 18 17 17 17 16 15 15 15 14 14 14 13 13 13 13 12 12 12 12 11 11 11 11 10 10 10 10 11 11 11 11 11 11 11
24 23 23 20 20 20 19 18 18 18 18 18 17 17 16 16 15 15 15 14 14 14 14 14 13 13 13 13 13 13 12 12 12 12 12 12 12 12 12 12 13 13 12
25 24 24 22 21 21 20 19 19 19 18 18 17 17 17 17 16 16 16 16 15 15 15 14 14 14 14 14 14 14 14 14 14 13 14 14 14 13 14 14 14 14 14
26 25 25 24 23 23 22 21 20 20 19 19 19 19 19 18 18 17 17 17 16 16 16 15 15 15 15 15 15 15 15 15 15 15 15 15 15 15 15 15 15 15 15
28 27 26 25 25 24 23 22 22 22 20 20 20 20 19 19 19 18 18 17 17 17 17 16 16 16 16 16 16 16 16 16 16 16 16 16 16 16 16 16 16 16 16
29 29 27 27 27 26 24 24 24 23 21 21 21 21 20 20 20 20 20 19 19 18 19 19 18 18 18 18 18 18 18 17 17 17 18 18 18 18 18 17 17 17 17
29 29 28 28 28 27 26 26 25 24 23 22 22 22 21 21 21 21 21 21 20 20 20 20 20 19 19 19 19 19 19 19 19 19 19 19 19 19 19 18 18 18 18
28 29 28 28 28 27 27 27 27 26 25 24 23 23 23 22 22 22 22 22 22 21 21 21 21 21 21 21 20 20 20 20 20 20 20 20 20 20 20 20 20 20 20
28 28 28 27 27 27 27 28 28 28 27 25 24 23 23 24 23 23 22 23 22 22 22 21 22 22 22 21 21 21 21 21 21 22 22 22 22 22 22 22 22 23 23
29 29 28 29 28 28 28 27 27 27 26 26 25 25 23 23 23 23 23 23 23 23 22 22 22 22 22 22 21 22 22 22 22 22 23 23 24 24 24 24 24 25 25
29 29 28 28 28 29 29 28 27 28 27 27 26 25 25 23 23 23 23 23 24 23 23 23 23 23 24 24 23 23 23 23 24 24 24 25 25 25 26 26 27 27 27
29 29 28 28 28 29 29 29 29 29 28 27 27 26 26 26 26 25 25 24 24 24 24 24 24 24 24 24 25 25 24 25 25 25 26 26 26 27 28 28 28 29 29
29 29 29 27 27 28 29 30 30 30 29 28 28 27 27 28 28 27 27 26 25 25 25 25 25 25 25 25 26 27 27 27 28 28 28 28 28 28 29 29 29 30 30
29 29 29 29 28 26 28 30 30 31 30 29 29 29 28 28 28 28 27 28 27 26 27 27 27 26 27 27 28 28 29 29 29 29 29 29 30 30 30 31 31 32 32
29 29 28 29 28 27 28 30 31 31 30 29 29 29 29 29 30 30 29 29 30 29 29 29 29 28 28 28 29 29 30 30 30 30 30 31 31 32 32 32 33 33 34
29 29 29 29 28 28 28 29 30 31 31 30 29 30 30 30 31 31 31 32 31 31 31 31 31 30 29 30 30 30 31 32 32 33 33 33 33 34 34 34 34 35 35
27 28 29 29 29 28 28 29 29 30 30 30 30 30 31 31 31 32 32 33 33 33 33 32 32 32 32 32 32 32 33 33 34 35 35 35 36 36 36 37 37 37 37
26 27 29 29 29 29 28 29 29 30 31 31 31 32 32 32 33 33 33 33 34 33 33 33 34 34 35 35 34 34 35 35 35 36 36 37 37 38 38 39 39 39 39
26 27 27 29 29 29 29 29 30 31 31 31 32 33 34 34 34 34 35 34 34 33 34 34 35 35 36 37 37 37 36 36 36 37 37 38 39 39 40 40 41 41 42
26 27 28 29 29 29 29 30 31 31 32 32 34 34 34 34 34 34 35 35 35 34 34 35 35 36 36 37 38 38 38 38 38 37 38 39 39 40 41 41 42 42 43
27 27 27 28 30 30 30 31 32 31 32 32 32 33 34 34 34 35 35 35 35 35 35 36 37 37 38 38 38 39 39 40 40 40 40 40 40 41 41 42 42 43 43
27 28 28 29 30 30 30 30 30 31 31 31 31 31 32 33 34 35 36 36 37 37 37 38 38 39 39 39 40 40 40 40 41 41 41 41 42 43 43 43 42 43 43
27 29 29 30 31 31 31 31 31 31 32 32 32 33 33 33 35 36 36 37 39 39 39 39 39 40 40 41 41 41 42 42 43 43 43 43 43 43 44 44 44 44 44

GEFSSE_500_meanwind_198.txt.gz
Wind_Speed
16 16 17 16 16 15 15 15 15 15 15 14 14 13 13 13 13 13 13 13 12 12 11 11 10 10 9 9 8 8 8 7 7 7 7 7 7 7 7 7 7 7 7
18 17 17 18 18 17 17 17 17 16 16 16 15 15 14 14 14 14 14 13 13 12 12 12 12 11 11 11 10 10 10 9 9 9 9 9 8 9 9 9 9 8 9
19 18 18 18 18 18 18 18 17 17 17 16 16 16 16 15 15 15 15 14 14 13 13 13 12 12 12 12 12 11 11 11 11 11 10 10 10 10 10 10 10 10 10
20 20 19 19 19 19 18 19 18 18 18 17 17 17 17 17 17 16 16 16 15 14 14 14 14 13 13 13 13 13 13 12 12 12 12 12 12 11 11 12 11 11 11
21 21 20 20 20 19 19 19 19 19 19 18 18 17 17 17 17 17 17 17 16 16 15 15 15 15 14 14 14 14 14 14 14 13 13 13 13 12 13 13 13 13 13
22 22 22 20 21 21 20 20 20 20 19 19 19 19 18 18 18 18 18 18 18 18 17 16 16 16 16 16 16 15 15 15 15 14 14 14 14 14 14 14 14 14 14
23 24 24 23 22 22 22 21 21 21 20 20 20 20 19 19 18 19 19 19 19 19 18 18 17 17 18 17 17 16 16 16 15 15 15 15 15 15 15 15 15 15 15
23 25 26 25 24 22 22 22 22 22 22 21 21 21 21 20 20 19 20 21 20 20 20 19 19 19 19 18 18 17 17 17 17 16 16 16 16 16 16 16 17 17 17
24 25 26 25 24 23 23 23 23 23 23 23 23 22 22 21 21 21 21 21 21 21 21 21 21 20 20 19 19 19 18 18 18 18 18 17 17 17 17 17 17 17 18
25 24 26 25 25 25 25 25 25 24 24 24 24 23 23 22 22 21 21 21 22 22 22 22 22 22 22 21 21 21 20 19 19 19 19 19 19 19 19 18 18 18 18
26 25 26 26 26 26 25 26 26 25 25 25 25 24 24 24 24 23 22 22 22 22 22 22 22 22 23 23 23 22 22 21 21 21 21 21 21 21 21 21 20 20 20
25 25 25 26 26 27 26 26 27 27 27 27 27 26 26 25 25 24 23 22 22 22 22 22 23 23 23 23 24 23 23 23 22 22 22 22 22 22 22 22 22 22 22
25 25 26 26 26 27 27 27 28 28 29 29 28 28 27 26 25 25 24 23 23 23 23 24 24 23 23 23 23 23 23 23 23 23 23 23 23 23 24 24 24 24 24
27 26 26 26 27 28 27 27 28 29 30 30 29 29 29 29 27 26 25 25 25 25 24 24 24 24 23 23 23 23 24 24 24 24 24 24 24 25 25 25 25 25 26
26 27 27 27 28 28 27 27 28 29 28 29 30 29 29 30 29 28 27 26 25 25 24 24 25 25 24 23 23 24 24 24 24 24 25 25 25 26 26 27 27 27 28
28 28 27 27 28 28 27 26 27 29 28 29 30 30 30 30 29 28 27 27 27 26 26 26 25 25 25 25 25 25 25 25 25 25 26 27 27 27 28 28 29 29 29
28 29 27 27 26 27 27 27 27 26 27 29 31 31 31 31 30 29 28 28 28 28 28 27 27 27 27 26 26 26 27 27 27 28 28 29 29 29 29 30 30 30 30
26 27 27 27 27 27 28 28 27 26 26 27 30 31 31 31 31 30 30 29 29 29 29 29 28 28 28 28 28 28 29 29 30 30 31 31 31 32 32 32 32 33 33
26 26 27 27 27 27 27 28 27 27 27 27 29 30 30 30 30 30 30 30 30 29 30 31 31 30 30 30 30 30 31 31 32 32 32 33 33 34 34 34 34 34 34
26 27 27 28 28 28 27 26 27 27 27 27 28 30 29 30 29 29 30 30 30 30 30 30 30 31 31 31 31 32 32 32 33 33 33 33 34 34 34 34 35 35 35
24 25 26 28 28 28 28 27 26 26 27 27 28 30 30 30 30 29 30 30 30 31 31 31 31 31 31 32 32 33 33 33 33 34 35 35 35 35 35 35 35 35 35
23 24 25 26 27 27 28 28 28 27 27 26 27 29 29 30 31 31 31 31 31 32 32 33 33 33 32 32 33 33 33 33 34 35 35 36 36 36 36 36 36 36 37
23 24 24 25 27 27 28 28 28 30 29 28 28 29 30 31 32 32 32 32 33 33 34 35 35 35 36 36 36 35 35 35 35 34 35 36 36 36 37 37 37 38 38
24 24 24 24 25 27 28 28 29 30 29 28 28 29 30 31 32 33 34 34 34 35 36 36 37 37 38 38 38 38 38 39 38 37 36 37 37 38 38 39 39 40 40
24 25 25 25 25 27 28 29 30 30 30 29 29 30 31 32 33 34 35 35 36 37 37 38 39 39 40 40 40 40 41 41 41 41 40 40 40 41 41 41 41 41 42
24 25 26 27 27 28 28 29 30 30 30 29 30 31 32 33 33 35 37 37 37 39 40 40 41 41 41 42 42 42 43 43 43 43 43 42 42 43 43 43 43 43 43

GEFSSE_500_meanwind_204.txt.gz
Wind_Speed
17 16 15 16 16 16 15 14 13 13 12 12 11 11 10 10 9 9 9 9 8 8 8 8 7 7 8 8 8 8 8 7 7 7 7 7 7 7 7 6 7 7 7
18 18 17 17 17 17 16 15 15 14 13 13 12 12 12 11 11 10 10 10 10 9 9 9 8 9 9 9 9 9 9 9 9 9 9 9 9 9 8 8 9 9 9
20 19 18 18 18 18 18 17 16 15 15 14 13 13 13 12 12 12 12 11 11 10 10 10 10 10 10 10 10 10 10 10 10 10 10 10 10 10 11 10 10 10 10
21 20 19 19 19 19 19 19 18 17 16 15 15 14 14 13 13 13 13 12 12 12 11 11 11 11 11 11 11 11 11 12 12 12 11 11 12 12 12 12 11 12 12
22 22 21 20 20 20 20 20 19 18 17 16 16 16 15 15 15 14 14 13 13 13 13 13 13 12 12 12 12 13 13 13 13 13 13 13 13 13 13 13 13 13 13
23 23 22 21 21 21 20 20 20 19 17 17 17 17 16 16 15 15 15 15 14 14 14 14 14 14 14 13 13 14 14 14 13 13 13 13 14 14 14 14 14 14 14
23 23 23 22 22 23 22 21 21 20 19 18 18 18 18 17 17 16 16 16 16 16 16 16 16 16 15 15 15 15 15 15 15 14 14 15 15 15 15 15 15 15 15
24 24 24 24 23 24 23 22 21 21 20 20 19 19 19 19 18 18 18 17 17 17 17 17 17 17 17 16 16 16 16 16 16 16 16 16 16 16 16 16 16 16 16
25 25 25 25 25 25 24 23 22 21 21 21 20 20 20 20 19 19 19 19 19 18 18 17 17 18 18 18 18 18 18 18 18 17 17 17 17 17 17 17 17 17 18
26 25 24 25 25 26 25 24 23 22 22 21 21 21 21 21 20 20 20 20 20 19 18 18 17 18 18 19 19 19 19 19 19 18 18 18 18 18 18 18 18 18 19
26 25 24 25 25 25 25 24 23 22 22 21 21 21 22 22 22 21 21 21 21 20 19 19 19 19 19 20 20 20 19 19 19 19 19 19 19 19 19 19 19 20 20
27 26 25 25 25 25 25 25 24 23 22 22 22 23 23 23 23 22 23 23 22 22 21 21 21 21 21 20 20 20 20 20 20 20 21 21 20 20 21 21 21 21 21
27 27 25 26 27 27 26 25 25 24 23 22 22 23 23 24 24 24 23 24 23 23 23 22 23 22 22 22 22 22 21 21 21 21 21 21 21 22 22 22 22 22 23
27 27 25 25 26 27 27 27 26 25 24 23 23 24 24 25 25 25 25 25 25 24 24 24 23 23 23 23 23 23 22 22 22 22 22 22 23 23 23 24 24 24 24
27 26 26 25 27 28 28 27 27 25 24 24 25 24 25 25 26 26 26 26 26 25 23 23 24 24 25 25 24 23 23 23 23 23 23 23 24 24 24 25 25 25 26
26 26 27 26 25 25 26 26 27 26 25 25 25 25 25 25 26 27 27 26 26 25 25 24 26 26 26 26 24 24 23 24 24 24 25 25 25 25 25 26 26 27 27
26 26 26 26 26 26 27 28 28 27 26 26 27 27 26 26 26 27 28 27 27 27 27 26 26 27 27 27 26 25 25 25 25 26 26 27 27 27 27 27 28 29 29
25 27 27 25 26 26 27 28 29 27 27 27 28 28 28 28 27 27 28 28 28 28 27 27 26 26 27 28 27 27 26 26 27 27 27 28 28 29 29 29 30 30 30
24 25 26 27 26 26 26 27 27 27 26 27 27 27 27 28 28 28 28 29 29 29 29 28 27 27 28 29 29 29 28 28 28 29 29 29 30 30 31 31 31 31 32
26 26 27 27 27 27 27 27 28 27 27 27 27 27 28 28 28 28 29 30 30 30 31 31 30 29 30 30 30 30 30 30 31 31 31 32 32 33 33 33 34 34 34
25 26 27 27 27 28 26 26 28 28 28 28 29 29 29 30 29 29 29 30 31 31 32 32 32 31 31 31 31 32 32 32 32 33 33 34 34 35 35 35 35 36 36
24 25 26 27 27 28 27 26 27 29 30 30 29 30 31 31 31 30 31 32 33 33 33 34 34 35 35 34 33 34 34 34 33 34 34 35 35 36 36 36 37 37 37
26 26 26 27 28 28 28 28 29 29 29 29 29 31 32 32 32 32 33 34 35 35 35 36 35 35 35 36 35 35 36 36 35 35 36 36 37 37 38 38 38 38 39
26 26 27 27 28 28 28 28 29 28 29 29 29 30 32 33 33 33 34 35 36 36 36 37 37 37 36 37 38 38 38 37 37 37 38 38 39 39 39 39 40 40 41
26 27 27 27 27 28 28 28 29 29 29 30 30 30 31 32 33 34 34 35 36 37 38 39 38 37 37 38 39 40 40 40 41 40 40 40 40 41 41 42 42 43 43
26 26 27 28 28 28 29 29 30 30 30 30 31 31 32 32 33 34 33 34 36 37 38 39 38 38 39 40 41 41 42 42 43 42 42 42 42 42 43 44 45 45 45

GEFSSE_500_meanwind_210.txt.gz
Wind_Speed
16 16 16 16 16 16 15 15 15 14 13 12 12 11 11 10 10 10 9 8 8 7 7 6 6 6 6 6 6 6 6 6 6 6 6 6 5 5 5 5 6 6 7
18 17 17 17 17 17 17 17 16 15 14 13 13 12 12 11 11 11 10 9 9 8 8 7 7 7 7 7 7 7 7 7 7 7 7 7 7 7 7 7 7 7 7
20 19 19 19 18 18 18 18 17 17 16 15 14 13 13 12 11 11 11 11 10 10 9 8 8 8 7 8 8 8 8 8 8 8 8 8 8 8 8 8 8 8 8
22 21 20 20 20 19 19 19 19 18 17 16 15 14 14 13 13 12 11 11 11 11 10 10 9 9 9 8 9 9 8 8 9 8 9 9 9 9 10 10 10 10 10
23 23 22 21 21 20 20 20 20 19 18 17 17 16 16 15 14 13 13 12 12 11 11 11 11 10 10 10 10 10 10 9 9 9 9 10 10 10 11 11 11 11 10
25 24 24 23 22 21 21 21 21 20 19 19 18 18 17 16 15 15 14 14 13 12 12 12 12 12 12 11 11 11 10 10 10 10 10 10 11 11 12 12 11 11 11
26 26 25 24 24 23 22 22 23 23 22 20 20 19 18 17 17 17 16 16 15 14 14 14 13 13 13 13 13 12 12 12 12 12 12 12 12 12 12 12 12 12 12
26 26 26 26 25 24 24 23 24 24 23 22 21 20 19 19 18 18 18 18 17 16 16 15 15 14 14 14 14 14 14 14 14 13 13 13 13 13 12 12 12 13 13
26 27 27 26 26 25 24 24 24 24 24 23 22 20 20 20 19 19 19 18 18 18 17 16 16 16 15 15 15 15 15 15 15 14 14 14 14 14 14 14 14 14 15
27 27 28 27 27 26 25 25 24 24 23 23 22 21 20 19 19 18 18 19 19 19 19 18 18 17 17 16 16 16 16 16 15 15 16 16 15 15 15 15 15 16 16
27 28 28 28 27 27 26 26 26 25 24 23 22 21 20 20 19 19 19 19 20 20 20 19 19 19 19 18 17 17 17 16 16 16 16 17 17 16 16 16 17 17 17
28 29 29 29 28 28 27 28 27 26 25 24 24 23 22 21 20 20 20 20 20 21 21 21 21 21 20 20 19 19 19 18 18 18 17 17 17 17 17 17 18 18 19
27 29 29 29 29 28 28 29 29 27 25 25 24 24 23 22 21 21 21 20 21 21 21 22 22 22 21 21 21 21 20 20 20 20 19 19 18 18 18 19 19 19 20
27 28 28 29 29 29 29 29 30 29 26 24 23 23 24 23 22 22 22 21 21 21 22 22 23 23 23 23 22 22 21 21 21 21 21 21 20 20 21 21 20 20 20
27 27 28 29 29 29 29 28 29 30 28 26 24 23 24 23 23 22 22 22 22 22 22 23 24 24 24 24 24 24 23 22 22 22 22 23 22 22 22 22 22 22 22
26 28 28 27 29 30 30 29 28 29 29 29 27 24 23 23 23 23 23 22 23 23 24 24 25 26 26 26 25 25 24 24 23 24 24 24 24 24 24 24 24 24 24
26 28 30 30 29 30 31 29 28 28 29 29 27 26 24 24 25 24 24 24 24 24 24 25 26 26 27 27 27 25 25 25 25 26 26 26 26 26 25 25 25 26 26
26 28 29 30 30 29 30 30 29 29 29 29 28 28 27 25 27 27 27 26 25 25 25 26 26 27 28 28 28 27 26 26 26 27 27 28 27 27 27 27 27 28 28
27 28 29 29 29 30 30 30 30 30 29 29 28 29 29 27 27 28 28 27 27 27 27 27 28 28 29 29 29 29 27 28 28 28 29 29 29 29 29 29 29 30 30
25 27 28 29 30 30 30 30 30 31 31 30 29 29 30 30 29 29 29 29 28 28 28 28 29 29 29 29 30 31 30 29 30 30 30 30 31 30 30 31 31 32 32
23 25 26 27 29 29 30 30 30 30 31 32 31 31 31 31 31 31 31 31 30 30 29 30 30 30 31 31 32 32 32 31 31 31 32 32 33 32 32 33 33 34 34
23 25 27 28 28 29 29 29 29 30 32 32 32 32 31 31 32 32 32 32 32 31 31 31 31 32 33 33 34 34 35 35 33 33 33 34 34 35 34 35 35 35 36
23 25 27 28 28 29 28 28 30 30 30 31 31 31 31 32 32 32 32 32 32 33 33 33 33 34 35 35 36 37 37 37 36 35 36 36 36 36 36 37 37 37 37
24 26 27 28 30 29 28 28 29 30 31 32 32 33 33 32 33 33 33 34 34 34 35 35 35 35 36 36 37 38 38 39 38 37 37 37 38 37 38 38 38 38 39
25 26 27 28 29 29 29 29 30 31 32 32 33 34 34 34 35 35 35 35 36 36 36 36 37 37 37 37 38 38 39 39 39 39 38 37 38 39 39 40 40 40 41
25 26 27 29 28 28 29 30 31 31 32 33 34 35 35 35 36 37 37 37 37 37 37 37 38 38 37 37 38 38 39 40 41 41 41 40 40 40 41 42 43 43 43

GEFSSE_500_meanwind_216.txt.gz
Wind_Speed
17 17 16 16 15 16 16 15 15 15 14 13 12 12 11 11 10 10 9 9 8 8 7 7 6 6 6 6 6 5 5 5 4 4 4 4 4 4 4 4 4 4 4
18 18 18 17 17 17 18 17 17 16 15 15 14 13 12 12 12 11 11 10 10 9 9 8 7 7 7 6 6 6 6 6 5 5 5 5 5 5 5 5 5 5 5
21 20 20 19 19 19 19 19 19 18 17 16 15 15 13 13 12 12 12 12 11 11 10 10 9 8 8 7 7 7 7 6 6 6 6 6 6 6 7 7 7 7 7
23 22 22 22 21 21 21 21 21 20 19 18 17 16 15 14 13 13 12 12 12 12 12 11 11 10 9 9 8 8 7 7 7 7 7 7 7 7 7 7 7 7 7
24 24 24 23 23 23 22 22 22 21 20 19 18 17 17 16 15 14 13 13 13 13 12 12 12 11 10 10 10 9 9 9 9 9 9 9 8 8 8 8 8 8 8
26 26 25 25 25 24 24 23 23 22 21 21 20 18 18 17 16 15 15 14 14 14 13 13 13 12 11 11 11 11 11 11 11 10 10 10 9 8 8 9 9 9 9
27 27 27 27 26 25 25 24 24 23 22 22 21 20 19 18 17 16 16 15 14 14 14 14 14 13 13 12 12 12 12 12 12 11 11 10 10 10 10 10 10 10 10
28 28 28 27 27 26 26 25 25 24 23 22 22 21 20 19 18 18 17 16 16 15 15 15 15 15 14 14 14 13 13 12 12 12 12 12 12 11 11 11 11 11 11
29 29 28 28 28 28 27 26 25 25 24 24 22 21 21 20 20 19 18 17 16 16 16 15 16 15 15 15 15 14 14 13 13 13 13 13 13 13 13 13 13 12 12
29 29 29 29 29 29 28 27 26 26 25 25 24 22 22 21 20 19 18 18 17 16 16 16 16 16 16 16 16 16 16 15 14 15 14 14 14 14 14 14 14 14 14
30 29 29 28 29 29 29 28 27 27 27 26 25 24 23 22 21 20 19 19 18 17 17 17 17 17 17 17 17 17 17 16 17 17 16 16 15 15 15 16 16 16 16
30 29 29 29 29 29 28 28 28 28 28 27 27 25 24 23 22 21 20 20 19 18 17 18 18 18 18 18 19 19 18 18 18 18 18 18 17 17 17 17 17 17 17
30 30 30 30 29 28 29 29 29 29 29 28 28 26 26 25 23 22 21 20 20 19 19 19 19 19 19 19 20 20 20 20 20 19 20 20 19 19 18 18 18 18 19
30 29 30 30 29 29 29 30 30 29 29 29 29 27 26 26 25 24 22 21 20 20 20 20 20 20 20 21 21 22 21 21 22 21 21 21 21 21 20 20 20 20 19
29 28 29 29 29 30 30 30 30 30 29 30 29 28 27 27 26 24 23 22 22 21 21 22 22 22 21 21 22 23 23 23 23 22 22 22 22 22 22 21 21 22 22
28 28 28 28 29 30 31 31 31 30 29 30 31 29 28 27 27 25 24 23 23 22 22 22 22 22 22 22 22 23 24 24 24 24 23 23 23 23 23 23 23 23 23
28 27 28 28 29 30 32 32 32 30 30 30 31 30 29 29 29 28 27 25 24 23 23 23 23 22 22 23 23 24 24 25 25 25 24 24 24 24 25 25 24 24 24
28 28 28 29 29 30 32 33 32 30 30 31 31 30 29 29 29 29 28 26 25 25 25 24 24 24 24 24 24 24 25 26 27 27 26 26 25 24 25 25 26 26 26
28 29 28 28 29 30 31 32 31 31 30 30 31 31 30 30 30 30 30 28 26 25 25 25 25 25 25 26 26 26 27 27 28 28 28 28 28 26 26 27 27 28 28
27 29 28 28 29 31 32 31 30 31 31 30 30 31 31 31 31 31 31 30 28 27 26 26 27 27 27 28 28 28 28 28 28 29 29 30 30 29 28 29 29 29 30
28 28 27 28 29 31 32 31 29 29 29 30 31 31 31 31 31 31 30 31 30 29 28 28 29 29 29 29 29 29 29 29 29 29 30 32 32 31 30 30 31 31 31
27 26 26 27 29 30 31 31 30 30 29 29 29 31 31 32 32 32 31 31 31 31 30 30 30 30 30 29 30 30 30 30 31 31 32 33 34 34 33 32 32 33 33
26 26 27 27 28 30 31 31 30 30 29 29 30 30 31 31 32 32 32 33 32 32 31 31 31 31 31 31 31 32 32 32 32 33 34 34 35 36 35 34 34 34 35
26 26 28 28 29 30 31 31 31 31 31 31 31 32 33 33 33 34 34 34 33 33 33 33 33 33 33 33 33 33 33 34 34 35 35 36 37 37 37 35 34 35 36
27 27 28 29 30 31 32 32 31 31 33 33 32 32 33 34 35 35 35 35 35 34 34 34 34 35 35 35 35 35 36 37 37 37 37 37 38 38 38 38 37 36 37
29 28 27 29 31 31 32 33 31 32 33 34 33 34 35 35 35 35 36 36 36 36 36 36 36 37 37 37 38 38 38 39 39 40 40 39 39 40 40 41 40 39 40

GEFSSE_500_meanwind_222.txt.gz
Wind_Speed
14 14 14 13 13 13 12 12 12 12 12 12 11 11 11 11 10 10 9 9 9 8 8 8 8 8 7 7 7 6 5 5 4 4 4 4 4 4 4 4 4 4 4
16 15 15 15 15 14 14 14 14 14 14 13 13 13 12 12 12 11 11 11 10 9 9 9 9 9 8 8 8 7 6 6 5 5 5 5 5 5 6 6 5 5 5
18 18 17 17 17 16 16 16 16 16 15 15 15 14 14 13 13 12 12 11 11 11 10 10 10 10 9 9 9 8 7 7 7 7 6 6 6 6 6 6 6 6 6
19 19 19 19 19 19 19 18 18 18 17 17 16 16 16 15 14 14 13 12 12 12 11 11 11 11 11 10 10 9 9 8 8 8 8 8 7 7 7 7 7 7 7
21 21 21 21 21 21 20 20 20 20 20 19 18 18 17 17 16 16 15 14 14 13 13 12 12 11 11 11 11 11 10 10 9 10 10 9 9 8 8 8 8 8 8
23 23 23 23 23 23 22 22 22 22 22 21 21 19 18 18 18 18 17 16 15 15 14 14 13 13 12 11 11 12 11 11 11 11 11 10 9 9 9 9 9 9 10
26 25 25 25 25 25 24 24 24 24 23 23 22 21 20 19 19 19 18 17 17 16 15 15 15 14 14 13 13 12 12 12 11 11 11 10 10 10 10 10 10 10 10
28 28 27 28 27 27 26 26 25 25 24 24 24 22 21 20 20 19 19 18 18 17 17 16 16 15 15 14 13 13 13 13 12 12 11 11 11 11 11 11 11 11 11
30 30 29 29 29 29 28 27 26 26 26 25 25 24 23 22 21 21 20 19 18 18 17 17 16 16 15 14 14 14 13 13 13 13 13 12 13 13 13 13 13 13 13
32 31 31 31 31 30 30 29 28 27 27 27 26 25 24 23 22 22 21 20 19 18 18 18 17 16 15 15 14 14 14 14 14 14 14 14 14 15 15 15 15 15 15
32 32 32 32 32 31 31 30 29 28 28 27 27 26 25 24 23 23 22 21 21 20 19 18 18 17 16 16 16 16 15 15 15 15 15 16 16 16 16 17 17 16 16
31 31 31 32 32 32 32 31 31 30 29 29 28 27 26 26 24 24 24 23 22 22 21 20 19 18 18 17 17 17 17 16 16 17 17 17 18 18 18 18 18 18 19
31 31 31 31 31 32 32 33 32 31 30 30 29 29 28 27 26 26 25 25 24 23 22 21 20 19 19 19 19 18 18 18 18 18 18 19 18 19 19 20 20 20 20
31 31 31 31 32 32 32 33 33 32 32 31 30 30 28 28 27 27 27 26 25 24 23 22 22 21 20 21 20 20 20 20 20 20 20 20 20 20 21 21 21 21 21
31 31 31 31 32 32 32 32 33 32 32 31 31 30 29 29 29 28 29 28 27 26 24 24 23 23 22 21 22 22 21 21 21 21 21 21 22 22 22 22 23 23 22
31 31 31 31 32 32 32 32 32 32 32 32 31 30 30 29 29 29 28 29 28 27 26 25 25 24 24 23 23 23 23 23 22 23 23 23 23 24 24 24 24 24 24
31 31 31 31 31 31 32 33 32 32 33 32 32 32 31 29 29 29 28 29 29 28 27 27 27 25 25 24 23 24 25 24 24 24 24 25 24 25 25 25 26 26 26
30 30 30 31 31 30 31 32 33 33 34 33 33 33 31 30 30 30 29 29 29 29 29 28 27 27 26 26 25 25 26 26 26 26 26 26 26 26 27 27 27 27 27
31 31 31 31 31 30 31 32 33 34 34 34 33 33 32 31 31 31 30 30 30 30 29 29 28 27 27 27 26 26 26 27 27 28 28 28 28 28 27 27 28 28 29
31 32 32 31 31 31 31 32 32 33 34 34 34 33 32 32 32 32 31 31 32 32 32 31 29 28 28 27 27 27 28 29 29 29 29 29 29 29 29 28 28 29 30
31 31 32 32 33 32 31 31 32 33 34 35 35 34 33 33 33 33 33 32 31 31 31 31 30 30 30 30 29 28 29 30 30 30 30 30 30 30 30 30 29 30 31
31 31 31 32 33 33 32 31 32 33 34 35 35 34 33 33 33 34 34 33 32 32 31 31 31 32 32 32 32 31 30 31 31 30 30 31 31 31 31 31 31 31 32
32 32 31 32 33 33 33 33 32 33 34 36 35 33 32 32 33 33 33 33 33 32 32 32 32 32 32 33 33 32 31 31 32 32 32 31 31 32 33 33 33 33 33
31 31 31 32 32 32 32 32 32 34 34 35 34 33 33 34 34 34 34 34 34 33 33 32 32 33 33 33 33 33 34 33 34 33 33 34 34 34 35 35 35 36 37
31 31 31 32 32 31 31 32 33 34 34 35 35 34 34 34 35 34 34 35 35 34 34 34 34 34 35 35 34 35 35 36 36 36 35 35 36 37 37 37 38 38 39
30 31 31 32 32 31 32 31 32 33 35 35 34 34 33 34 34 35 35 35 35 35 35 36 36 36 36 36 36 36 36 37 37 37 37 37 38 38 39 40 40 41 41

GEFSSE_500_meanwind_228.txt.gz
Wind_Speed
13 13 12 12 11 11 11 10 10 9 8 8 7 7 6 6 6 6 6 5 5 5 4 4 4 4 4 4 4 4 3 3 3 2 2 2 3 3 4 4 4 5 5
14 14 13 13 12 12 12 11 11 11 10 9 9 8 8 8 8 7 7 7 6 6 5 5 5 5 5 5 5 5 4 4 4 4 3 3 3 4 4 5 5 5 6
15 15 14 14 14 13 13 13 13 13 12 11 10 10 9 9 9 9 9 8 8 7 7 7 6 6 6 6 6 6 6 6 5 5 5 5 5 5 6 6 6 6 7
17 17 16 16 16 16 15 14 14 14 14 13 12 12 11 11 10 10 10 10 9 9 8 8 8 7 7 7 7 7 7 6 6 6 6 6 6 6 7 7 7 7 8
19 19 19 19 18 18 18 17 16 16 15 15 14 14 13 13 12 12 12 12 11 11 10 10 9 9 8 8 8 7 7 7 7 7 7 7 7 8 8 7 8 8 9
22 21 21 20 20 20 20 19 18 18 17 17 16 16 15 15 14 14 13 13 13 13 12 12 11 11 10 9 9 8 8 8 8 8 8 8 8 8 9 9 9 9 9
24 23 23 23 22 22 22 21 21 20 20 19 18 18 17 17 16 15 15 14 14 13 13 13 12 12 11 11 10 10 10 9 9 9 9 9 9 9 9 10 10 10 10
27 26 25 25 24 24 24 23 23 23 22 21 21 20 19 18 18 17 16 16 15 15 14 14 14 13 13 12 12 11 11 11 10 10 10 10 10 10 11 10 10 11 11
29 28 28 27 26 26 25 25 25 25 24 23 23 22 21 20 19 18 18 17 17 16 16 15 15 14 14 13 13 12 11 11 11 11 11 11 12 12 12 12 12 12 12
31 30 30 29 28 28 28 27 27 26 26 25 25 24 23 22 21 20 19 19 19 18 17 16 15 15 15 14 14 13 13 12 12 12 12 12 12 13 13 13 13 14 14
32 32 31 31 30 30 29 29 29 28 27 26 26 26 25 24 22 21 21 20 20 20 19 18 17 16 16 16 15 15 14 13 13 13 13 13 13 14 14 14 15 15 15
34 33 33 33 33 32 31 31 30 29 28 28 28 27 26 25 24 23 22 22 21 21 20 19 18 18 17 17 17 16 16 15 15 14 15 15 15 15 15 15 16 16 17
34 34 34 34 34 33 32 32 32 31 30 29 28 28 28 27 26 25 24 23 23 23 22 21 20 19 19 19 19 18 18 17 17 16 16 16 17 17 16 16 17 17 18
33 33 34 34 33 32 31 31 32 31 31 30 29 29 29 28 28 27 26 25 25 24 24 23 22 21 21 21 20 20 20 19 19 19 18 18 18 18 18 18 18 19 19
34 34 34 34 34 33 31 30 31 31 32 32 31 30 30 30 29 28 28 27 26 25 25 24 24 23 23 23 22 22 21 21 21 21 20 20 20 20 20 19 19 19 20
34 34 34 34 34 34 33 32 32 32 32 33 32 32 32 31 31 30 29 28 27 27 26 26 25 25 25 24 24 23 23 22 22 22 22 22 21 22 21 21 21 21 21
34 34 34 34 34 35 34 33 32 32 33 33 33 32 32 32 32 31 30 29 28 28 28 27 27 26 26 26 25 25 24 24 24 23 23 24 23 23 23 23 23 23 23
34 34 34 34 35 35 35 33 33 33 34 34 34 33 33 33 31 31 31 30 30 29 29 29 28 27 27 27 27 27 26 25 25 25 25 25 25 25 25 24 24 24 24
34 34 34 35 35 35 35 34 34 34 35 35 34 34 34 34 32 31 32 32 30 31 31 30 29 29 28 28 29 28 27 26 26 26 26 26 26 26 26 26 26 26 26
34 33 34 35 35 35 36 35 35 35 35 35 36 36 36 35 34 33 33 34 32 31 31 32 30 30 29 29 29 29 29 28 28 28 27 27 27 28 28 28 29 29 28
34 33 34 35 35 35 35 35 35 35 35 35 35 36 36 35 34 34 34 35 33 31 31 32 32 31 31 31 32 32 31 30 29 29 29 29 29 29 30 30 30 30 30
34 34 33 33 34 34 34 34 34 35 35 35 36 35 35 36 35 35 35 36 34 33 33 33 33 33 32 32 32 32 32 32 31 31 31 31 30 31 32 32 32 32 32
34 34 34 33 34 34 34 34 35 34 34 34 34 35 35 35 36 36 36 36 35 34 34 34 34 34 33 32 32 32 32 32 32 32 32 33 33 33 32 32 33 34 34
34 34 34 34 34 34 34 35 34 34 33 33 34 34 34 34 36 36 36 36 34 33 34 35 35 34 33 33 32 32 33 33 33 33 33 34 35 34 34 35 35 36 36
34 34 35 35 34 34 34 34 34 34 34 33 33 34 35 35 35 36 35 35 34 34 34 35 35 35 35 34 34 34 34 35 35 35 35 35 36 36 37 37 37 37 38
34 34 35 36 36 34 33 33 34 34 34 34 34 34 34 35 35 36 36 35 34 34 34 35 35 35 35 35 35 35 35 36 37 38 37 37 37 38 38 39 39 39 40

GEFSSE_500_meanwind_234.txt.gz
Wind_Speed
14 14 13 13 12 12 11 11 10 10 10 9 9 9 9 8 7 7 7 6 6 5 5 5 4 5 4 4 4 4 3 3 2 2 2 1 1 0 1 2 2 3 3
15 14 14 14 13 13 12 11 11 11 11 10 10 10 10 9 8 8 8 7 7 6 6 5 5 5 5 5 5 4 4 4 3 3 2 2 1 1 1 2 3 3 4
16 15 15 14 14 14 13 13 12 12 12 12 11 11 11 10 9 8 8 8 8 7 7 6 6 6 6 5 5 5 5 5 4 4 3 3 2 2 2 3 3 4 4
18 17 16 16 16 15 15 14 14 13 13 14 13 13 12 11 11 10 10 9 9 8 8 7 7 7 6 6 6 6 6 6 6 5 4 4 3 3 3 3 4 4 5
20 19 19 18 18 17 16 16 15 15 15 15 15 14 14 13 12 12 11 11 11 10 9 9 8 8 7 7 7 7 6 6 6 6 5 5 5 4 4 4 5 5 5
22 21 21 20 20 19 18 18 17 17 16 17 16 16 15 15 14 14 13 12 12 11 10 10 10 9 9 8 8 7 7 7 7 7 6 6 5 5 5 5 6 6 6
24 24 23 22 21 21 20 20 20 19 18 18 18 18 17 16 16 15 14 14 13 12 12 11 10 10 10 10 9 9 9 8 8 8 7 7 6 7 7 7 7 7 8
25 25 24 24 24 23 23 22 22 21 20 20 20 20 19 18 17 17 16 15 14 14 13 13 12 12 11 11 11 10 10 10 9 9 9 8 8 8 8 8 9 9 9
27 27 26 26 26 25 25 25 24 24 23 22 22 21 21 20 18 18 17 16 15 15 14 14 13 13 13 13 12 12 11 11 11 11 10 10 9 9 9 9 10 10 10
28 28 28 28 28 27 27 27 26 26 25 25 24 23 23 22 21 20 19 18 17 16 16 15 15 15 14 14 13 13 13 12 12 12 11 10 10 9 10 10 10 10 10
30 30 30 30 30 29 29 28 28 28 28 27 26 25 25 25 23 22 21 20 19 18 18 17 17 16 16 16 15 15 14 14 13 13 12 12 11 11 11 11 11 11 11
30 30 30 31 31 31 30 29 30 30 29 29 29 28 27 27 26 25 23 22 21 20 19 19 19 18 17 17 17 16 16 16 16 15 14 14 13 13 13 12 12 12 12
31 31 31 32 32 32 32 31 30 31 31 31 30 30 29 29 28 27 26 25 24 22 21 21 20 20 19 19 18 18 18 18 17 17 16 16 16 15 15 14 14 14 14
33 32 33 33 33 33 33 33 32 31 32 32 31 31 31 31 30 30 28 27 26 25 23 23 22 22 21 21 20 20 20 19 19 19 18 18 17 17 17 16 16 16 16
34 33 33 33 33 34 35 35 34 32 32 33 32 31 32 32 32 32 30 29 28 27 26 25 23 23 22 22 22 22 21 21 21 20 20 20 19 19 19 19 19 19 19
34 34 34 35 35 35 35 36 36 34 32 32 33 32 32 32 33 32 32 31 30 29 28 27 26 25 24 24 23 23 23 22 22 22 22 22 22 21 21 21 21 21 21
35 35 35 36 36 36 36 36 37 36 34 33 34 34 33 33 33 33 32 32 31 31 30 29 28 27 26 26 26 26 25 24 24 23 23 23 24 24 23 23 23 23 22
36 36 36 36 37 37 36 37 38 37 36 35 35 35 34 34 34 34 33 32 32 32 32 31 30 29 28 28 28 28 27 25 25 25 25 25 25 26 26 25 25 25 24
37 37 37 37 37 37 36 37 38 38 37 37 36 35 35 35 35 35 34 34 34 34 33 32 31 31 30 30 30 29 29 28 28 27 27 27 27 27 27 27 26 27 27
38 37 37 37 37 37 36 37 38 38 37 37 38 37 37 36 36 36 35 35 35 35 34 33 33 32 32 31 31 31 31 30 30 30 29 29 29 29 29 29 28 29 29
38 37 37 37 37 36 36 37 37 37 36 36 37 38 37 37 37 37 36 35 36 36 36 35 35 34 33 33 33 32 33 33 32 32 31 31 31 31 31 30 30 30 30
37 37 36 36 36 36 36 37 37 37 37 36 37 37 37 38 38 38 38 36 37 37 37 36 35 34 34 34 35 35 35 34 33 34 33 33 33 33 32 32 32 32 32
38 37 37 36 37 37 37 37 38 38 37 36 37 38 38 38 39 39 39 38 38 38 37 37 36 35 36 36 36 36 35 35 34 34 34 34 34 34 34 34 33 34 34
38 38 38 36 37 38 37 37 38 38 37 37 37 38 39 39 39 39 39 38 37 38 38 38 37 37 37 37 36 37 36 35 35 35 35 34 34 35 35 35 35 35 36
38 38 37 37 38 38 37 37 38 38 38 38 38 38 39 39 40 38 39 39 38 38 38 38 37 38 38 38 37 37 37 36 36 35 34 34 35 36 37 36 37 37 37
37 36 36 37 37 38 38 37 37 37 37 38 37 38 39 39 39 38 39 39 39 39 39 38 38 38 38 39 38 38 37 36 36 36 36 35 36 37 37 37 37 37 38

GEFSSE_500_meanwind_240.txt.gz
Wind_Speed
15 15 14 14 13 12 12 12 11 11 10 10 10 9 9 8 8 7 6 6 6 6 6 5 5 4 4 3 3 3 3 2 2 2 2 2 2 2 2 2 3 3 4
16 16 15 15 15 14 13 13 12 12 12 11 11 11 10 10 9 8 8 7 7 7 6 6 6 5 5 4 4 3 3 3 2 2 1 1 1 1 1 2 2 3 4
18 17 16 16 16 16 15 14 13 13 13 13 12 12 11 11 10 10 9 8 8 8 7 7 6 6 5 5 5 5 5 4 3 3 2 2 1 1 1 1 2 3 3
19 19 18 17 17 17 17 16 15 14 13 13 13 13 12 12 11 10 10 9 9 9 8 8 7 7 6 6 6 6 6 5 5 4 3 3 2 2 1 2 2 2 3
21 20 20 19 19 18 18 17 16 15 15 14 14 14 13 13 12 11 11 10 10 10 9 9 8 8 7 7 6 6 6 6 6 6 5 4 3 3 2 2 2 3 3
22 22 22 21 20 19 19 19 18 17 16 16 15 15 15 14 14 13 12 12 11 11 10 10 9 9 9 8 8 7 7 7 7 6 6 6 5 5 4 3 3 3 4
24 23 23 23 22 21 21 20 20 19 18 18 17 17 16 16 15 15 14 14 13 12 11 11 11 10 10 9 9 9 8 8 8 8 7 7 6 6 5 5 5 5 5
26 25 25 24 24 23 22 22 22 21 20 19 19 19 18 17 17 16 15 15 14 13 13 12 12 12 11 11 10 10 10 9 9 9 8 8 7 7 7 7 6 6 6
27 27 27 26 26 25 24 24 23 23 22 21 21 20 20 20 19 18 17 16 15 15 14 14 13 13 13 12 11 11 11 11 10 10 9 9 9 8 8 8 8 8 7
29 29 29 28 28 27 26 26 25 24 24 23 22 22 22 21 21 20 19 18 17 16 16 16 15 14 14 13 13 12 12 12 11 11 11 10 10 9 9 9 9 9 8
31 30 30 29 29 28 28 27 27 26 25 25 24 23 23 23 22 21 21 20 19 18 17 17 16 16 15 15 15 14 14 13 13 12 12 12 12 12 11 10 10 10 10
32 32 32 31 31 30 29 29 29 28 27 27 26 25 24 24 24 23 22 22 21 20 20 19 18 17 17 17 17 16 16 15 15 14 14 14 14 13 13 12 12 12 12
33 33 33 32 32 31 31 30 30 30 29 28 28 27 26 26 26 26 25 24 23 23 22 21 20 19 19 18 18 18 17 17 16 16 15 15 15 15 15 14 14 14 14
34 34 33 33 33 33 32 32 31 31 30 30 29 28 27 27 27 27 26 26 26 25 24 24 22 21 20 20 20 20 19 19 18 18 18 17 16 16 16 16 16 16 16
35 35 34 34 34 35 34 33 33 32 31 31 31 30 29 29 28 28 27 27 27 27 27 26 25 23 22 22 22 21 21 20 20 20 19 19 18 18 18 18 18 17 18
37 36 36 35 35 35 35 35 35 35 33 33 32 32 31 31 31 29 29 29 29 28 28 28 26 25 24 24 23 23 22 22 22 21 21 21 21 20 20 20 20 20 19
39 38 37 37 36 36 36 36 36 36 36 35 34 33 32 32 31 30 31 31 31 30 29 29 28 27 26 25 25 25 24 24 24 24 23 23 23 23 22 22 22 22 22
40 40 39 39 38 37 37 37 37 37 37 36 36 35 35 34 33 32 32 32 32 32 31 31 30 29 28 27 27 27 26 26 25 26 25 25 25 25 24 24 24 24 25
41 41 41 40 39 38 38 36 37 37 37 38 37 37 36 36 35 33 33 33 33 32 32 32 31 31 30 29 28 28 28 28 28 28 27 26 26 27 26 26 26 26 26
41 41 41 41 40 39 39 38 37 37 38 39 38 37 37 37 36 35 35 34 34 34 33 32 32 31 31 30 30 29 29 30 30 29 29 29 28 28 28 28 28 28 28
41 41 40 41 41 40 40 38 37 37 38 38 38 38 37 37 36 35 35 35 35 35 34 33 32 32 32 31 31 30 30 30 30 30 30 30 30 30 30 30 30 30 30
41 40 40 40 41 40 40 39 38 38 38 38 38 38 38 37 36 36 36 36 36 36 35 35 34 34 33 33 32 32 31 32 32 32 32 32 32 32 31 31 31 31 32
42 41 40 40 40 40 39 39 39 39 38 38 38 38 38 37 37 36 36 36 36 37 37 36 35 35 34 34 34 34 33 33 34 34 34 34 34 33 33 33 33 33 34
42 41 41 40 40 40 39 39 39 39 38 37 38 38 39 38 37 37 37 38 38 37 36 36 35 36 35 35 35 35 35 35 35 35 35 36 37 36 35 35 35 35 35
42 41 41 40 40 39 39 39 39 39 39 38 38 39 39 39 39 38 38 38 38 38 38 37 37 37 36 36 36 37 37 36 36 36 37 37 37 37 37 37 37 36 36
42 41 41 40 40 40 40 39 39 39 39 38 38 39 39 39 39 39 39 39 39 39 39 38 38 37 38 37 37 38 38 37 37 37 37 37 37 37 38 38 38 39 38